<?xml version="1.0" encoding="UTF-8" standalone="no" ?>
<gpx xmlns="http://www.topografix.com/GPX/1/1" xmlns:xsi="http://www.w3.org/2001/XMLSchema-instance" xsi:schemaLocation="http://www.topografix.com/GPX/1/1 http://www.topografix.com/GPX/1/1/gpx.xsd" version="1.1" creator="VisuGPX - https://www.visugpx.com">
  <metadata>
    <name>Du coté de Sermentizon</name>
    <desc><![CDATA[Balade vers les étangs]]></desc>
  </metadata>
  <trk>
    <name><![CDATA[En plaine]]></name>
    <desc><![CDATA[Seul]]></desc>
    <trkseg>
      <trkpt lat="45.84913" lon="3.17268">
        <ele>327.79998779297</ele>
        <time>2011-02-26T07:09:23.000Z</time>
      </trkpt>
      <trkpt lat="45.84913" lon="3.17268">
        <ele>327.79998779297</ele>
        <time>2011-02-26T07:09:24.000Z</time>
      </trkpt>
      <trkpt lat="45.84904" lon="3.17267">
        <ele>328.60000610352</ele>
        <time>2011-02-26T07:09:31.000Z</time>
      </trkpt>
      <trkpt lat="45.84895" lon="3.17263">
        <ele>327.79998779297</ele>
        <time>2011-02-26T07:09:35.000Z</time>
      </trkpt>
      <trkpt lat="45.84886" lon="3.17275">
        <ele>327.60000610352</ele>
        <time>2011-02-26T07:09:41.000Z</time>
      </trkpt>
      <trkpt lat="45.84886" lon="3.17294">
        <ele>328.39999389648</ele>
        <time>2011-02-26T07:09:45.000Z</time>
      </trkpt>
      <trkpt lat="45.84888" lon="3.17345">
        <ele>328.39999389648</ele>
        <time>2011-02-26T07:09:53.000Z</time>
      </trkpt>
      <trkpt lat="45.84892" lon="3.17418">
        <ele>328.20001220703</ele>
        <time>2011-02-26T07:10:03.000Z</time>
      </trkpt>
      <trkpt lat="45.84895" lon="3.17489">
        <ele>328.39999389648</ele>
        <time>2011-02-26T07:10:12.000Z</time>
      </trkpt>
      <trkpt lat="45.84899" lon="3.17589">
        <ele>328.60000610352</ele>
        <time>2011-02-26T07:10:24.000Z</time>
      </trkpt>
      <trkpt lat="45.84903" lon="3.17665">
        <ele>328</ele>
        <time>2011-02-26T07:10:33.000Z</time>
      </trkpt>
      <trkpt lat="45.84914" lon="3.17783">
        <ele>328.39999389648</ele>
        <time>2011-02-26T07:10:47.000Z</time>
      </trkpt>
      <trkpt lat="45.84919" lon="3.17869">
        <ele>328.20001220703</ele>
        <time>2011-02-26T07:10:57.000Z</time>
      </trkpt>
      <trkpt lat="45.84919" lon="3.17945">
        <ele>328.39999389648</ele>
        <time>2011-02-26T07:11:06.000Z</time>
      </trkpt>
      <trkpt lat="45.84921" lon="3.17997">
        <ele>328.60000610352</ele>
        <time>2011-02-26T07:11:12.000Z</time>
      </trkpt>
      <trkpt lat="45.84924" lon="3.18041">
        <ele>328.39999389648</ele>
        <time>2011-02-26T07:11:17.000Z</time>
      </trkpt>
      <trkpt lat="45.84938" lon="3.18075">
        <ele>327.60000610352</ele>
        <time>2011-02-26T07:11:22.000Z</time>
      </trkpt>
      <trkpt lat="45.84947" lon="3.18098">
        <ele>327.79998779297</ele>
        <time>2011-02-26T07:11:26.000Z</time>
      </trkpt>
      <trkpt lat="45.84943" lon="3.18112">
        <ele>328</ele>
        <time>2011-02-26T07:11:28.000Z</time>
      </trkpt>
      <trkpt lat="45.84935" lon="3.18133">
        <ele>328</ele>
        <time>2011-02-26T07:11:31.000Z</time>
      </trkpt>
      <trkpt lat="45.8493" lon="3.18176">
        <ele>327.79998779297</ele>
        <time>2011-02-26T07:11:36.000Z</time>
      </trkpt>
      <trkpt lat="45.84932" lon="3.18194">
        <ele>327.60000610352</ele>
        <time>2011-02-26T07:11:38.000Z</time>
      </trkpt>
      <trkpt lat="45.84939" lon="3.18238">
        <ele>327.39999389648</ele>
        <time>2011-02-26T07:11:43.000Z</time>
      </trkpt>
      <trkpt lat="45.84933" lon="3.18272">
        <ele>327.39999389648</ele>
        <time>2011-02-26T07:11:47.000Z</time>
      </trkpt>
      <trkpt lat="45.84918" lon="3.18287">
        <ele>327.79998779297</ele>
        <time>2011-02-26T07:11:50.000Z</time>
      </trkpt>
      <trkpt lat="45.84858" lon="3.18325">
        <ele>327.79998779297</ele>
        <time>2011-02-26T07:12:00.000Z</time>
      </trkpt>
      <trkpt lat="45.84825" lon="3.18368">
        <ele>328</ele>
        <time>2011-02-26T07:12:07.000Z</time>
      </trkpt>
      <trkpt lat="45.84795" lon="3.18414">
        <ele>327.79998779297</ele>
        <time>2011-02-26T07:12:14.000Z</time>
      </trkpt>
      <trkpt lat="45.84763" lon="3.18438">
        <ele>328.20001220703</ele>
        <time>2011-02-26T07:12:20.000Z</time>
      </trkpt>
      <trkpt lat="45.84757" lon="3.18439">
        <ele>328.39999389648</ele>
        <time>2011-02-26T07:12:21.000Z</time>
      </trkpt>
      <trkpt lat="45.84731" lon="3.18457">
        <ele>329</ele>
        <time>2011-02-26T07:12:26.000Z</time>
      </trkpt>
      <trkpt lat="45.84734" lon="3.18482">
        <ele>329.20001220703</ele>
        <time>2011-02-26T07:12:29.000Z</time>
      </trkpt>
      <trkpt lat="45.84749" lon="3.18523">
        <ele>329</ele>
        <time>2011-02-26T07:12:34.000Z</time>
      </trkpt>
      <trkpt lat="45.84751" lon="3.18542">
        <ele>329</ele>
        <time>2011-02-26T07:12:36.000Z</time>
      </trkpt>
      <trkpt lat="45.84751" lon="3.18562">
        <ele>328.79998779297</ele>
        <time>2011-02-26T07:12:38.000Z</time>
      </trkpt>
      <trkpt lat="45.8474" lon="3.18627">
        <ele>328.20001220703</ele>
        <time>2011-02-26T07:12:45.000Z</time>
      </trkpt>
      <trkpt lat="45.84722" lon="3.18681">
        <ele>327.79998779297</ele>
        <time>2011-02-26T07:12:52.000Z</time>
      </trkpt>
      <trkpt lat="45.84704" lon="3.18722">
        <ele>327.60000610352</ele>
        <time>2011-02-26T07:12:59.000Z</time>
      </trkpt>
      <trkpt lat="45.84688" lon="3.18757">
        <ele>327.39999389648</ele>
        <time>2011-02-26T07:13:05.000Z</time>
      </trkpt>
      <trkpt lat="45.84661" lon="3.18822">
        <ele>328.60000610352</ele>
        <time>2011-02-26T07:13:14.000Z</time>
      </trkpt>
      <trkpt lat="45.84631" lon="3.189">
        <ele>328.39999389648</ele>
        <time>2011-02-26T07:13:24.000Z</time>
      </trkpt>
      <trkpt lat="45.84619" lon="3.18972">
        <ele>328.79998779297</ele>
        <time>2011-02-26T07:13:32.000Z</time>
      </trkpt>
      <trkpt lat="45.84602" lon="3.19082">
        <ele>328.20001220703</ele>
        <time>2011-02-26T07:13:44.000Z</time>
      </trkpt>
      <trkpt lat="45.84585" lon="3.19191">
        <ele>328.39999389648</ele>
        <time>2011-02-26T07:13:56.000Z</time>
      </trkpt>
      <trkpt lat="45.84581" lon="3.19264">
        <ele>328</ele>
        <time>2011-02-26T07:14:04.000Z</time>
      </trkpt>
      <trkpt lat="45.84583" lon="3.19387">
        <ele>328</ele>
        <time>2011-02-26T07:14:17.000Z</time>
      </trkpt>
      <trkpt lat="45.84586" lon="3.19519">
        <ele>327.39999389648</ele>
        <time>2011-02-26T07:14:31.000Z</time>
      </trkpt>
      <trkpt lat="45.84586" lon="3.19623">
        <ele>327.20001220703</ele>
        <time>2011-02-26T07:14:42.000Z</time>
      </trkpt>
      <trkpt lat="45.84575" lon="3.19705">
        <ele>327.20001220703</ele>
        <time>2011-02-26T07:14:51.000Z</time>
      </trkpt>
      <trkpt lat="45.8456" lon="3.19805">
        <ele>327.20001220703</ele>
        <time>2011-02-26T07:15:02.000Z</time>
      </trkpt>
      <trkpt lat="45.84544" lon="3.19914">
        <ele>328</ele>
        <time>2011-02-26T07:15:14.000Z</time>
      </trkpt>
      <trkpt lat="45.84529" lon="3.20016">
        <ele>327.60000610352</ele>
        <time>2011-02-26T07:15:25.000Z</time>
      </trkpt>
      <trkpt lat="45.84514" lon="3.2007">
        <ele>327.39999389648</ele>
        <time>2011-02-26T07:15:31.000Z</time>
      </trkpt>
      <trkpt lat="45.84482" lon="3.20143">
        <ele>327.60000610352</ele>
        <time>2011-02-26T07:15:40.000Z</time>
      </trkpt>
      <trkpt lat="45.84449" lon="3.20235">
        <ele>328</ele>
        <time>2011-02-26T07:15:51.000Z</time>
      </trkpt>
      <trkpt lat="45.84425" lon="3.20334">
        <ele>327.79998779297</ele>
        <time>2011-02-26T07:16:02.000Z</time>
      </trkpt>
      <trkpt lat="45.84401" lon="3.20435">
        <ele>328</ele>
        <time>2011-02-26T07:16:13.000Z</time>
      </trkpt>
      <trkpt lat="45.84377" lon="3.20537">
        <ele>328</ele>
        <time>2011-02-26T07:16:24.000Z</time>
      </trkpt>
      <trkpt lat="45.84351" lon="3.20628">
        <ele>328.20001220703</ele>
        <time>2011-02-26T07:16:34.000Z</time>
      </trkpt>
      <trkpt lat="45.84315" lon="3.207">
        <ele>328.20001220703</ele>
        <time>2011-02-26T07:16:43.000Z</time>
      </trkpt>
      <trkpt lat="45.84261" lon="3.20798">
        <ele>328.39999389648</ele>
        <time>2011-02-26T07:16:56.000Z</time>
      </trkpt>
      <trkpt lat="45.84246" lon="3.20831">
        <ele>328.20001220703</ele>
        <time>2011-02-26T07:17:00.000Z</time>
      </trkpt>
      <trkpt lat="45.84224" lon="3.20904">
        <ele>327.79998779297</ele>
        <time>2011-02-26T07:17:08.000Z</time>
      </trkpt>
      <trkpt lat="45.84196" lon="3.21009">
        <ele>328</ele>
        <time>2011-02-26T07:17:19.000Z</time>
      </trkpt>
      <trkpt lat="45.84167" lon="3.2112">
        <ele>327.39999389648</ele>
        <time>2011-02-26T07:17:31.000Z</time>
      </trkpt>
      <trkpt lat="45.8415" lon="3.21147">
        <ele>327.20001220703</ele>
        <time>2011-02-26T07:17:35.000Z</time>
      </trkpt>
      <trkpt lat="45.84139" lon="3.2117">
        <ele>327.20001220703</ele>
        <time>2011-02-26T07:17:38.000Z</time>
      </trkpt>
      <trkpt lat="45.84143" lon="3.21188">
        <ele>327.20001220703</ele>
        <time>2011-02-26T07:17:40.000Z</time>
      </trkpt>
      <trkpt lat="45.84158" lon="3.21221">
        <ele>327.79998779297</ele>
        <time>2011-02-26T07:17:44.000Z</time>
      </trkpt>
      <trkpt lat="45.84161" lon="3.2123">
        <ele>327.79998779297</ele>
        <time>2011-02-26T07:17:45.000Z</time>
      </trkpt>
      <trkpt lat="45.84188" lon="3.21391">
        <ele>327.60000610352</ele>
        <time>2011-02-26T07:18:02.000Z</time>
      </trkpt>
      <trkpt lat="45.84201" lon="3.21454">
        <ele>328.20001220703</ele>
        <time>2011-02-26T07:18:09.000Z</time>
      </trkpt>
      <trkpt lat="45.84216" lon="3.21482">
        <ele>328.39999389648</ele>
        <time>2011-02-26T07:18:13.000Z</time>
      </trkpt>
      <trkpt lat="45.84229" lon="3.21487">
        <ele>328.39999389648</ele>
        <time>2011-02-26T07:18:15.000Z</time>
      </trkpt>
      <trkpt lat="45.84298" lon="3.21504">
        <ele>328</ele>
        <time>2011-02-26T07:18:25.000Z</time>
      </trkpt>
      <trkpt lat="45.84345" lon="3.21531">
        <ele>327.39999389648</ele>
        <time>2011-02-26T07:18:32.000Z</time>
      </trkpt>
      <trkpt lat="45.84428" lon="3.21581">
        <ele>328.39999389648</ele>
        <time>2011-02-26T07:18:45.000Z</time>
      </trkpt>
      <trkpt lat="45.84503" lon="3.21624">
        <ele>328.60000610352</ele>
        <time>2011-02-26T07:18:57.000Z</time>
      </trkpt>
      <trkpt lat="45.84566" lon="3.21651">
        <ele>329</ele>
        <time>2011-02-26T07:19:07.000Z</time>
      </trkpt>
      <trkpt lat="45.84654" lon="3.2168">
        <ele>330.20001220703</ele>
        <time>2011-02-26T07:19:21.000Z</time>
      </trkpt>
      <trkpt lat="45.84723" lon="3.21699">
        <ele>330.60000610352</ele>
        <time>2011-02-26T07:19:32.000Z</time>
      </trkpt>
      <trkpt lat="45.84801" lon="3.21715">
        <ele>331.79998779297</ele>
        <time>2011-02-26T07:19:44.000Z</time>
      </trkpt>
      <trkpt lat="45.84872" lon="3.21732">
        <ele>332.20001220703</ele>
        <time>2011-02-26T07:19:55.000Z</time>
      </trkpt>
      <trkpt lat="45.84929" lon="3.21756">
        <ele>332.79998779297</ele>
        <time>2011-02-26T07:20:04.000Z</time>
      </trkpt>
      <trkpt lat="45.85014" lon="3.21789">
        <ele>333.39999389648</ele>
        <time>2011-02-26T07:20:17.000Z</time>
      </trkpt>
      <trkpt lat="45.85062" lon="3.21796">
        <ele>333.39999389648</ele>
        <time>2011-02-26T07:20:24.000Z</time>
      </trkpt>
      <trkpt lat="45.85135" lon="3.21791">
        <ele>332.39999389648</ele>
        <time>2011-02-26T07:20:34.000Z</time>
      </trkpt>
      <trkpt lat="45.85231" lon="3.21784">
        <ele>332.39999389648</ele>
        <time>2011-02-26T07:20:47.000Z</time>
      </trkpt>
      <trkpt lat="45.85326" lon="3.21778">
        <ele>331.79998779297</ele>
        <time>2011-02-26T07:21:00.000Z</time>
      </trkpt>
      <trkpt lat="45.85403" lon="3.21775">
        <ele>332</ele>
        <time>2011-02-26T07:21:11.000Z</time>
      </trkpt>
      <trkpt lat="45.85466" lon="3.21784">
        <ele>332.39999389648</ele>
        <time>2011-02-26T07:21:20.000Z</time>
      </trkpt>
      <trkpt lat="45.85555" lon="3.2181">
        <ele>332.60000610352</ele>
        <time>2011-02-26T07:21:33.000Z</time>
      </trkpt>
      <trkpt lat="45.85638" lon="3.21829">
        <ele>333</ele>
        <time>2011-02-26T07:21:45.000Z</time>
      </trkpt>
      <trkpt lat="45.85695" lon="3.2184">
        <ele>332.60000610352</ele>
        <time>2011-02-26T07:21:53.000Z</time>
      </trkpt>
      <trkpt lat="45.85782" lon="3.2185">
        <ele>332.20001220703</ele>
        <time>2011-02-26T07:22:05.000Z</time>
      </trkpt>
      <trkpt lat="45.85857" lon="3.21848">
        <ele>331.20001220703</ele>
        <time>2011-02-26T07:22:15.000Z</time>
      </trkpt>
      <trkpt lat="45.85954" lon="3.21841">
        <ele>330.79998779297</ele>
        <time>2011-02-26T07:22:28.000Z</time>
      </trkpt>
      <trkpt lat="45.86027" lon="3.21836">
        <ele>329.60000610352</ele>
        <time>2011-02-26T07:22:38.000Z</time>
      </trkpt>
      <trkpt lat="45.86106" lon="3.21828">
        <ele>329.60000610352</ele>
        <time>2011-02-26T07:22:49.000Z</time>
      </trkpt>
      <trkpt lat="45.8617" lon="3.21819">
        <ele>328.79998779297</ele>
        <time>2011-02-26T07:22:58.000Z</time>
      </trkpt>
      <trkpt lat="45.86254" lon="3.21805">
        <ele>328</ele>
        <time>2011-02-26T07:23:10.000Z</time>
      </trkpt>
      <trkpt lat="45.86303" lon="3.21805">
        <ele>327.79998779297</ele>
        <time>2011-02-26T07:23:17.000Z</time>
      </trkpt>
      <trkpt lat="45.86359" lon="3.21819">
        <ele>327.20001220703</ele>
        <time>2011-02-26T07:23:25.000Z</time>
      </trkpt>
      <trkpt lat="45.86366" lon="3.21821">
        <ele>327.20001220703</ele>
        <time>2011-02-26T07:23:26.000Z</time>
      </trkpt>
      <trkpt lat="45.86404" lon="3.21847">
        <ele>326.39999389648</ele>
        <time>2011-02-26T07:23:32.000Z</time>
      </trkpt>
      <trkpt lat="45.86417" lon="3.21856">
        <ele>326.39999389648</ele>
        <time>2011-02-26T07:23:34.000Z</time>
      </trkpt>
      <trkpt lat="45.86456" lon="3.21897">
        <ele>326.79998779297</ele>
        <time>2011-02-26T07:23:41.000Z</time>
      </trkpt>
      <trkpt lat="45.86517" lon="3.21956">
        <ele>326.20001220703</ele>
        <time>2011-02-26T07:23:52.000Z</time>
      </trkpt>
      <trkpt lat="45.8657" lon="3.22018">
        <ele>326.20001220703</ele>
        <time>2011-02-26T07:24:02.000Z</time>
      </trkpt>
      <trkpt lat="45.86623" lon="3.22082">
        <ele>325.60000610352</ele>
        <time>2011-02-26T07:24:12.000Z</time>
      </trkpt>
      <trkpt lat="45.86669" lon="3.2214">
        <ele>325.39999389648</ele>
        <time>2011-02-26T07:24:21.000Z</time>
      </trkpt>
      <trkpt lat="45.86709" lon="3.22206">
        <ele>325.39999389648</ele>
        <time>2011-02-26T07:24:30.000Z</time>
      </trkpt>
      <trkpt lat="45.86742" lon="3.22262">
        <ele>324.60000610352</ele>
        <time>2011-02-26T07:24:38.000Z</time>
      </trkpt>
      <trkpt lat="45.86771" lon="3.2231">
        <ele>324.79998779297</ele>
        <time>2011-02-26T07:24:45.000Z</time>
      </trkpt>
      <trkpt lat="45.86803" lon="3.22368">
        <ele>325.20001220703</ele>
        <time>2011-02-26T07:24:53.000Z</time>
      </trkpt>
      <trkpt lat="45.86839" lon="3.22421">
        <ele>325.60000610352</ele>
        <time>2011-02-26T07:25:01.000Z</time>
      </trkpt>
      <trkpt lat="45.86881" lon="3.22472">
        <ele>324.79998779297</ele>
        <time>2011-02-26T07:25:10.000Z</time>
      </trkpt>
      <trkpt lat="45.86919" lon="3.22522">
        <ele>324.60000610352</ele>
        <time>2011-02-26T07:25:18.000Z</time>
      </trkpt>
      <trkpt lat="45.86954" lon="3.22565">
        <ele>324.79998779297</ele>
        <time>2011-02-26T07:25:25.000Z</time>
      </trkpt>
      <trkpt lat="45.87012" lon="3.22638">
        <ele>325.20001220703</ele>
        <time>2011-02-26T07:25:37.000Z</time>
      </trkpt>
      <trkpt lat="45.87061" lon="3.22712">
        <ele>325.39999389648</ele>
        <time>2011-02-26T07:25:48.000Z</time>
      </trkpt>
      <trkpt lat="45.87098" lon="3.22782">
        <ele>325.20001220703</ele>
        <time>2011-02-26T07:25:57.000Z</time>
      </trkpt>
      <trkpt lat="45.87143" lon="3.22879">
        <ele>325.20001220703</ele>
        <time>2011-02-26T07:26:09.000Z</time>
      </trkpt>
      <trkpt lat="45.8716" lon="3.22908">
        <ele>324.79998779297</ele>
        <time>2011-02-26T07:26:13.000Z</time>
      </trkpt>
      <trkpt lat="45.87174" lon="3.22926">
        <ele>324.60000610352</ele>
        <time>2011-02-26T07:26:16.000Z</time>
      </trkpt>
      <trkpt lat="45.87196" lon="3.22939">
        <ele>324.39999389648</ele>
        <time>2011-02-26T07:26:20.000Z</time>
      </trkpt>
      <trkpt lat="45.87211" lon="3.2293">
        <ele>324.39999389648</ele>
        <time>2011-02-26T07:26:23.000Z</time>
      </trkpt>
      <trkpt lat="45.87224" lon="3.22938">
        <ele>324.39999389648</ele>
        <time>2011-02-26T07:26:26.000Z</time>
      </trkpt>
      <trkpt lat="45.87226" lon="3.22946">
        <ele>324.39999389648</ele>
        <time>2011-02-26T07:26:27.000Z</time>
      </trkpt>
      <trkpt lat="45.87246" lon="3.23013">
        <ele>323.79998779297</ele>
        <time>2011-02-26T07:26:35.000Z</time>
      </trkpt>
      <trkpt lat="45.87273" lon="3.2307">
        <ele>324.20001220703</ele>
        <time>2011-02-26T07:26:42.000Z</time>
      </trkpt>
      <trkpt lat="45.87319" lon="3.23153">
        <ele>324.20001220703</ele>
        <time>2011-02-26T07:26:53.000Z</time>
      </trkpt>
      <trkpt lat="45.87377" lon="3.23253">
        <ele>324.20001220703</ele>
        <time>2011-02-26T07:27:06.000Z</time>
      </trkpt>
      <trkpt lat="45.87435" lon="3.23363">
        <ele>323.79998779297</ele>
        <time>2011-02-26T07:27:20.000Z</time>
      </trkpt>
      <trkpt lat="45.87472" lon="3.2346">
        <ele>323.79998779297</ele>
        <time>2011-02-26T07:27:31.000Z</time>
      </trkpt>
      <trkpt lat="45.87509" lon="3.23564">
        <ele>324.20001220703</ele>
        <time>2011-02-26T07:27:43.000Z</time>
      </trkpt>
      <trkpt lat="45.87557" lon="3.23695">
        <ele>324.60000610352</ele>
        <time>2011-02-26T07:27:58.000Z</time>
      </trkpt>
      <trkpt lat="45.87595" lon="3.23791">
        <ele>324</ele>
        <time>2011-02-26T07:28:09.000Z</time>
      </trkpt>
      <trkpt lat="45.87641" lon="3.23895">
        <ele>323.39999389648</ele>
        <time>2011-02-26T07:28:21.000Z</time>
      </trkpt>
      <trkpt lat="45.87679" lon="3.23993">
        <ele>322.79998779297</ele>
        <time>2011-02-26T07:28:32.000Z</time>
      </trkpt>
      <trkpt lat="45.87708" lon="3.24077">
        <ele>322.39999389648</ele>
        <time>2011-02-26T07:28:41.000Z</time>
      </trkpt>
      <trkpt lat="45.87748" lon="3.24197">
        <ele>322.39999389648</ele>
        <time>2011-02-26T07:28:54.000Z</time>
      </trkpt>
      <trkpt lat="45.87778" lon="3.24286">
        <ele>322.60000610352</ele>
        <time>2011-02-26T07:29:04.000Z</time>
      </trkpt>
      <trkpt lat="45.87816" lon="3.24398">
        <ele>323.39999389648</ele>
        <time>2011-02-26T07:29:17.000Z</time>
      </trkpt>
      <trkpt lat="45.87849" lon="3.24497">
        <ele>323</ele>
        <time>2011-02-26T07:29:28.000Z</time>
      </trkpt>
      <trkpt lat="45.87891" lon="3.24621">
        <ele>321.60000610352</ele>
        <time>2011-02-26T07:29:41.000Z</time>
      </trkpt>
      <trkpt lat="45.87935" lon="3.24753">
        <ele>321.20001220703</ele>
        <time>2011-02-26T07:29:55.000Z</time>
      </trkpt>
      <trkpt lat="45.87979" lon="3.24882">
        <ele>320.39999389648</ele>
        <time>2011-02-26T07:30:09.000Z</time>
      </trkpt>
      <trkpt lat="45.88006" lon="3.24969">
        <ele>320.60000610352</ele>
        <time>2011-02-26T07:30:19.000Z</time>
      </trkpt>
      <trkpt lat="45.88023" lon="3.25049">
        <ele>321.60000610352</ele>
        <time>2011-02-26T07:30:28.000Z</time>
      </trkpt>
      <trkpt lat="45.88043" lon="3.2516">
        <ele>322</ele>
        <time>2011-02-26T07:30:40.000Z</time>
      </trkpt>
      <trkpt lat="45.88064" lon="3.25253">
        <ele>321.20001220703</ele>
        <time>2011-02-26T07:30:50.000Z</time>
      </trkpt>
      <trkpt lat="45.88085" lon="3.25305">
        <ele>321</ele>
        <time>2011-02-26T07:30:56.000Z</time>
      </trkpt>
      <trkpt lat="45.88139" lon="3.25412">
        <ele>320.60000610352</ele>
        <time>2011-02-26T07:31:09.000Z</time>
      </trkpt>
      <trkpt lat="45.88207" lon="3.25545">
        <ele>320</ele>
        <time>2011-02-26T07:31:25.000Z</time>
      </trkpt>
      <trkpt lat="45.88269" lon="3.25668">
        <ele>319.79998779297</ele>
        <time>2011-02-26T07:31:40.000Z</time>
      </trkpt>
      <trkpt lat="45.8831" lon="3.25749">
        <ele>320.20001220703</ele>
        <time>2011-02-26T07:31:50.000Z</time>
      </trkpt>
      <trkpt lat="45.88361" lon="3.25856">
        <ele>320.60000610352</ele>
        <time>2011-02-26T07:32:03.000Z</time>
      </trkpt>
      <trkpt lat="45.88388" lon="3.25938">
        <ele>320.39999389648</ele>
        <time>2011-02-26T07:32:12.000Z</time>
      </trkpt>
      <trkpt lat="45.88429" lon="3.26063">
        <ele>320.60000610352</ele>
        <time>2011-02-26T07:32:26.000Z</time>
      </trkpt>
      <trkpt lat="45.8846" lon="3.26162">
        <ele>320.20001220703</ele>
        <time>2011-02-26T07:32:37.000Z</time>
      </trkpt>
      <trkpt lat="45.88462" lon="3.2617">
        <ele>320</ele>
        <time>2011-02-26T07:32:38.000Z</time>
      </trkpt>
      <trkpt lat="45.88463" lon="3.26206">
        <ele>319.60000610352</ele>
        <time>2011-02-26T07:32:42.000Z</time>
      </trkpt>
      <trkpt lat="45.8845" lon="3.26227">
        <ele>319.39999389648</ele>
        <time>2011-02-26T07:32:45.000Z</time>
      </trkpt>
      <trkpt lat="45.88445" lon="3.26232">
        <ele>319.39999389648</ele>
        <time>2011-02-26T07:32:46.000Z</time>
      </trkpt>
      <trkpt lat="45.88373" lon="3.26277">
        <ele>320</ele>
        <time>2011-02-26T07:32:58.000Z</time>
      </trkpt>
      <trkpt lat="45.88299" lon="3.26325">
        <ele>320.39999389648</ele>
        <time>2011-02-26T07:33:11.000Z</time>
      </trkpt>
      <trkpt lat="45.88235" lon="3.26367">
        <ele>321</ele>
        <time>2011-02-26T07:33:22.000Z</time>
      </trkpt>
      <trkpt lat="45.88155" lon="3.26419">
        <ele>322.20001220703</ele>
        <time>2011-02-26T07:33:36.000Z</time>
      </trkpt>
      <trkpt lat="45.88071" lon="3.26474">
        <ele>323.60000610352</ele>
        <time>2011-02-26T07:33:51.000Z</time>
      </trkpt>
      <trkpt lat="45.88006" lon="3.26517">
        <ele>325.60000610352</ele>
        <time>2011-02-26T07:34:03.000Z</time>
      </trkpt>
      <trkpt lat="45.87944" lon="3.26559">
        <ele>326.60000610352</ele>
        <time>2011-02-26T07:34:15.000Z</time>
      </trkpt>
      <trkpt lat="45.87873" lon="3.26609">
        <ele>327</ele>
        <time>2011-02-26T07:34:28.000Z</time>
      </trkpt>
      <trkpt lat="45.87807" lon="3.26656">
        <ele>327.20001220703</ele>
        <time>2011-02-26T07:34:40.000Z</time>
      </trkpt>
      <trkpt lat="45.87745" lon="3.26699">
        <ele>327.39999389648</ele>
        <time>2011-02-26T07:34:51.000Z</time>
      </trkpt>
      <trkpt lat="45.87669" lon="3.26752">
        <ele>327.79998779297</ele>
        <time>2011-02-26T07:35:05.000Z</time>
      </trkpt>
      <trkpt lat="45.87628" lon="3.26787">
        <ele>328.20001220703</ele>
        <time>2011-02-26T07:35:13.000Z</time>
      </trkpt>
      <trkpt lat="45.87612" lon="3.26823">
        <ele>328.39999389648</ele>
        <time>2011-02-26T07:35:18.000Z</time>
      </trkpt>
      <trkpt lat="45.87608" lon="3.26841">
        <ele>328.60000610352</ele>
        <time>2011-02-26T07:35:20.000Z</time>
      </trkpt>
      <trkpt lat="45.87598" lon="3.26924">
        <ele>328.39999389648</ele>
        <time>2011-02-26T07:35:29.000Z</time>
      </trkpt>
      <trkpt lat="45.87583" lon="3.27068">
        <ele>329.60000610352</ele>
        <time>2011-02-26T07:35:45.000Z</time>
      </trkpt>
      <trkpt lat="45.8757" lon="3.2719">
        <ele>330.60000610352</ele>
        <time>2011-02-26T07:35:59.000Z</time>
      </trkpt>
      <trkpt lat="45.87562" lon="3.27284">
        <ele>332</ele>
        <time>2011-02-26T07:36:10.000Z</time>
      </trkpt>
      <trkpt lat="45.87548" lon="3.27375">
        <ele>333</ele>
        <time>2011-02-26T07:36:21.000Z</time>
      </trkpt>
      <trkpt lat="45.8753" lon="3.27438">
        <ele>334</ele>
        <time>2011-02-26T07:36:29.000Z</time>
      </trkpt>
      <trkpt lat="45.87505" lon="3.27517">
        <ele>334.60000610352</ele>
        <time>2011-02-26T07:36:39.000Z</time>
      </trkpt>
      <trkpt lat="45.8749" lon="3.27578">
        <ele>334.39999389648</ele>
        <time>2011-02-26T07:36:46.000Z</time>
      </trkpt>
      <trkpt lat="45.87483" lon="3.27655">
        <ele>334.39999389648</ele>
        <time>2011-02-26T07:36:54.000Z</time>
      </trkpt>
      <trkpt lat="45.8748" lon="3.27774">
        <ele>334</ele>
        <time>2011-02-26T07:37:06.000Z</time>
      </trkpt>
      <trkpt lat="45.87477" lon="3.27875">
        <ele>333.60000610352</ele>
        <time>2011-02-26T07:37:16.000Z</time>
      </trkpt>
      <trkpt lat="45.87467" lon="3.27924">
        <ele>333.20001220703</ele>
        <time>2011-02-26T07:37:21.000Z</time>
      </trkpt>
      <trkpt lat="45.87444" lon="3.27985">
        <ele>333.39999389648</ele>
        <time>2011-02-26T07:37:28.000Z</time>
      </trkpt>
      <trkpt lat="45.87385" lon="3.28128">
        <ele>333.39999389648</ele>
        <time>2011-02-26T07:37:45.000Z</time>
      </trkpt>
      <trkpt lat="45.87341" lon="3.28234">
        <ele>333.60000610352</ele>
        <time>2011-02-26T07:37:58.000Z</time>
      </trkpt>
      <trkpt lat="45.87306" lon="3.28338">
        <ele>333.39999389648</ele>
        <time>2011-02-26T07:38:10.000Z</time>
      </trkpt>
      <trkpt lat="45.8727" lon="3.28443">
        <ele>333.60000610352</ele>
        <time>2011-02-26T07:38:22.000Z</time>
      </trkpt>
      <trkpt lat="45.87239" lon="3.28538">
        <ele>333.79998779297</ele>
        <time>2011-02-26T07:38:33.000Z</time>
      </trkpt>
      <trkpt lat="45.87205" lon="3.28637">
        <ele>333.60000610352</ele>
        <time>2011-02-26T07:38:45.000Z</time>
      </trkpt>
      <trkpt lat="45.87174" lon="3.28702">
        <ele>334.39999389648</ele>
        <time>2011-02-26T07:38:54.000Z</time>
      </trkpt>
      <trkpt lat="45.87133" lon="3.28761">
        <ele>335.39999389648</ele>
        <time>2011-02-26T07:39:04.000Z</time>
      </trkpt>
      <trkpt lat="45.87087" lon="3.28826">
        <ele>335.79998779297</ele>
        <time>2011-02-26T07:39:15.000Z</time>
      </trkpt>
      <trkpt lat="45.87025" lon="3.28916">
        <ele>337</ele>
        <time>2011-02-26T07:39:30.000Z</time>
      </trkpt>
      <trkpt lat="45.86997" lon="3.28967">
        <ele>336.79998779297</ele>
        <time>2011-02-26T07:39:37.000Z</time>
      </trkpt>
      <trkpt lat="45.86973" lon="3.29016">
        <ele>335.79998779297</ele>
        <time>2011-02-26T07:39:43.000Z</time>
      </trkpt>
      <trkpt lat="45.86934" lon="3.29108">
        <ele>333.60000610352</ele>
        <time>2011-02-26T07:39:53.000Z</time>
      </trkpt>
      <trkpt lat="45.86899" lon="3.29219">
        <ele>332.20001220703</ele>
        <time>2011-02-26T07:40:04.000Z</time>
      </trkpt>
      <trkpt lat="45.86864" lon="3.29331">
        <ele>330.39999389648</ele>
        <time>2011-02-26T07:40:15.000Z</time>
      </trkpt>
      <trkpt lat="45.86834" lon="3.29417">
        <ele>329.39999389648</ele>
        <time>2011-02-26T07:40:24.000Z</time>
      </trkpt>
      <trkpt lat="45.86788" lon="3.29511">
        <ele>328.60000610352</ele>
        <time>2011-02-26T07:40:35.000Z</time>
      </trkpt>
      <trkpt lat="45.86735" lon="3.29616">
        <ele>327.79998779297</ele>
        <time>2011-02-26T07:40:48.000Z</time>
      </trkpt>
      <trkpt lat="45.86693" lon="3.29705">
        <ele>327.39999389648</ele>
        <time>2011-02-26T07:40:59.000Z</time>
      </trkpt>
      <trkpt lat="45.86667" lon="3.29782">
        <ele>327</ele>
        <time>2011-02-26T07:41:08.000Z</time>
      </trkpt>
      <trkpt lat="45.86627" lon="3.29907">
        <ele>326.60000610352</ele>
        <time>2011-02-26T07:41:22.000Z</time>
      </trkpt>
      <trkpt lat="45.86601" lon="3.30005">
        <ele>326.60000610352</ele>
        <time>2011-02-26T07:41:33.000Z</time>
      </trkpt>
      <trkpt lat="45.86586" lon="3.30092">
        <ele>326.20001220703</ele>
        <time>2011-02-26T07:41:42.000Z</time>
      </trkpt>
      <trkpt lat="45.86572" lon="3.30187">
        <ele>325.79998779297</ele>
        <time>2011-02-26T07:41:52.000Z</time>
      </trkpt>
      <trkpt lat="45.86562" lon="3.30238">
        <ele>325</ele>
        <time>2011-02-26T07:41:58.000Z</time>
      </trkpt>
      <trkpt lat="45.86554" lon="3.3027">
        <ele>324.60000610352</ele>
        <time>2011-02-26T07:42:03.000Z</time>
      </trkpt>
      <trkpt lat="45.86536" lon="3.30273">
        <ele>324.20001220703</ele>
        <time>2011-02-26T07:42:08.000Z</time>
      </trkpt>
      <trkpt lat="45.86495" lon="3.30266">
        <ele>324.39999389648</ele>
        <time>2011-02-26T07:42:15.000Z</time>
      </trkpt>
      <trkpt lat="45.86445" lon="3.30243">
        <ele>324.79998779297</ele>
        <time>2011-02-26T07:42:23.000Z</time>
      </trkpt>
      <trkpt lat="45.86406" lon="3.30235">
        <ele>325.20001220703</ele>
        <time>2011-02-26T07:42:29.000Z</time>
      </trkpt>
      <trkpt lat="45.86363" lon="3.30204">
        <ele>325</ele>
        <time>2011-02-26T07:42:36.000Z</time>
      </trkpt>
      <trkpt lat="45.86323" lon="3.30189">
        <ele>324.20001220703</ele>
        <time>2011-02-26T07:42:42.000Z</time>
      </trkpt>
      <trkpt lat="45.86285" lon="3.30175">
        <ele>323.39999389648</ele>
        <time>2011-02-26T07:42:48.000Z</time>
      </trkpt>
      <trkpt lat="45.86273" lon="3.30171">
        <ele>323.39999389648</ele>
        <time>2011-02-26T07:42:50.000Z</time>
      </trkpt>
      <trkpt lat="45.86256" lon="3.30185">
        <ele>323.20001220703</ele>
        <time>2011-02-26T07:42:54.000Z</time>
      </trkpt>
      <trkpt lat="45.86255" lon="3.30193">
        <ele>323.20001220703</ele>
        <time>2011-02-26T07:42:55.000Z</time>
      </trkpt>
      <trkpt lat="45.86249" lon="3.30218">
        <ele>322.39999389648</ele>
        <time>2011-02-26T07:42:58.000Z</time>
      </trkpt>
      <trkpt lat="45.86238" lon="3.30276">
        <ele>320.39999389648</ele>
        <time>2011-02-26T07:43:04.000Z</time>
      </trkpt>
      <trkpt lat="45.86228" lon="3.30341">
        <ele>316.79998779297</ele>
        <time>2011-02-26T07:43:10.000Z</time>
      </trkpt>
      <trkpt lat="45.86227" lon="3.30351">
        <ele>316</ele>
        <time>2011-02-26T07:43:11.000Z</time>
      </trkpt>
      <trkpt lat="45.86222" lon="3.30372">
        <ele>312.79998779297</ele>
        <time>2011-02-26T07:43:15.000Z</time>
      </trkpt>
      <trkpt lat="45.8622" lon="3.30411">
        <ele>311</ele>
        <time>2011-02-26T07:43:20.000Z</time>
      </trkpt>
      <trkpt lat="45.86214" lon="3.30491">
        <ele>309.60000610352</ele>
        <time>2011-02-26T07:43:28.000Z</time>
      </trkpt>
      <trkpt lat="45.86202" lon="3.30575">
        <ele>309.60000610352</ele>
        <time>2011-02-26T07:43:37.000Z</time>
      </trkpt>
      <trkpt lat="45.86186" lon="3.30661">
        <ele>310.39999389648</ele>
        <time>2011-02-26T07:43:47.000Z</time>
      </trkpt>
      <trkpt lat="45.86162" lon="3.30777">
        <ele>311</ele>
        <time>2011-02-26T07:44:00.000Z</time>
      </trkpt>
      <trkpt lat="45.86143" lon="3.30876">
        <ele>309.79998779297</ele>
        <time>2011-02-26T07:44:10.000Z</time>
      </trkpt>
      <trkpt lat="45.86119" lon="3.30988">
        <ele>307.39999389648</ele>
        <time>2011-02-26T07:44:21.000Z</time>
      </trkpt>
      <trkpt lat="45.86088" lon="3.31143">
        <ele>305.79998779297</ele>
        <time>2011-02-26T07:44:36.000Z</time>
      </trkpt>
      <trkpt lat="45.8606" lon="3.31279">
        <ele>305.60000610352</ele>
        <time>2011-02-26T07:44:50.000Z</time>
      </trkpt>
      <trkpt lat="45.86046" lon="3.31376">
        <ele>305.39999389648</ele>
        <time>2011-02-26T07:45:00.000Z</time>
      </trkpt>
      <trkpt lat="45.86043" lon="3.31464">
        <ele>304.60000610352</ele>
        <time>2011-02-26T07:45:09.000Z</time>
      </trkpt>
      <trkpt lat="45.86042" lon="3.31573">
        <ele>304.39999389648</ele>
        <time>2011-02-26T07:45:20.000Z</time>
      </trkpt>
      <trkpt lat="45.86043" lon="3.31656">
        <ele>304.39999389648</ele>
        <time>2011-02-26T07:45:29.000Z</time>
      </trkpt>
      <trkpt lat="45.86044" lon="3.31773">
        <ele>305.60000610352</ele>
        <time>2011-02-26T07:45:42.000Z</time>
      </trkpt>
      <trkpt lat="45.86044" lon="3.31902">
        <ele>306.20001220703</ele>
        <time>2011-02-26T07:45:56.000Z</time>
      </trkpt>
      <trkpt lat="45.86045" lon="3.32018">
        <ele>305.79998779297</ele>
        <time>2011-02-26T07:46:08.000Z</time>
      </trkpt>
      <trkpt lat="45.86046" lon="3.32165">
        <ele>305.20001220703</ele>
        <time>2011-02-26T07:46:23.000Z</time>
      </trkpt>
      <trkpt lat="45.86051" lon="3.32236">
        <ele>306</ele>
        <time>2011-02-26T07:46:31.000Z</time>
      </trkpt>
      <trkpt lat="45.86062" lon="3.32286">
        <ele>307.60000610352</ele>
        <time>2011-02-26T07:46:38.000Z</time>
      </trkpt>
      <trkpt lat="45.86078" lon="3.32339">
        <ele>309.60000610352</ele>
        <time>2011-02-26T07:46:47.000Z</time>
      </trkpt>
      <trkpt lat="45.86092" lon="3.32385">
        <ele>311.79998779297</ele>
        <time>2011-02-26T07:46:55.000Z</time>
      </trkpt>
      <trkpt lat="45.86108" lon="3.3244">
        <ele>314.20001220703</ele>
        <time>2011-02-26T07:47:04.000Z</time>
      </trkpt>
      <trkpt lat="45.86119" lon="3.32496">
        <ele>315.79998779297</ele>
        <time>2011-02-26T07:47:12.000Z</time>
      </trkpt>
      <trkpt lat="45.86119" lon="3.32553">
        <ele>316.60000610352</ele>
        <time>2011-02-26T07:47:19.000Z</time>
      </trkpt>
      <trkpt lat="45.86111" lon="3.32613">
        <ele>316.60000610352</ele>
        <time>2011-02-26T07:47:26.000Z</time>
      </trkpt>
      <trkpt lat="45.86098" lon="3.3269">
        <ele>316.60000610352</ele>
        <time>2011-02-26T07:47:35.000Z</time>
      </trkpt>
      <trkpt lat="45.86092" lon="3.3278">
        <ele>316.60000610352</ele>
        <time>2011-02-26T07:47:45.000Z</time>
      </trkpt>
      <trkpt lat="45.86091" lon="3.32872">
        <ele>316.60000610352</ele>
        <time>2011-02-26T07:47:55.000Z</time>
      </trkpt>
      <trkpt lat="45.86095" lon="3.32964">
        <ele>316</ele>
        <time>2011-02-26T07:48:05.000Z</time>
      </trkpt>
      <trkpt lat="45.861" lon="3.33027">
        <ele>316.20001220703</ele>
        <time>2011-02-26T07:48:12.000Z</time>
      </trkpt>
      <trkpt lat="45.86109" lon="3.33118">
        <ele>316</ele>
        <time>2011-02-26T07:48:22.000Z</time>
      </trkpt>
      <trkpt lat="45.86118" lon="3.33222">
        <ele>315</ele>
        <time>2011-02-26T07:48:33.000Z</time>
      </trkpt>
      <trkpt lat="45.86128" lon="3.3327">
        <ele>313.79998779297</ele>
        <time>2011-02-26T07:48:38.000Z</time>
      </trkpt>
      <trkpt lat="45.86157" lon="3.3337">
        <ele>310.39999389648</ele>
        <time>2011-02-26T07:48:48.000Z</time>
      </trkpt>
      <trkpt lat="45.86186" lon="3.33458">
        <ele>309.60000610352</ele>
        <time>2011-02-26T07:48:58.000Z</time>
      </trkpt>
      <trkpt lat="45.86197" lon="3.33484">
        <ele>309.39999389648</ele>
        <time>2011-02-26T07:49:01.000Z</time>
      </trkpt>
      <trkpt lat="45.86225" lon="3.33516">
        <ele>308.79998779297</ele>
        <time>2011-02-26T07:49:06.000Z</time>
      </trkpt>
      <trkpt lat="45.86282" lon="3.33544">
        <ele>308.39999389648</ele>
        <time>2011-02-26T07:49:15.000Z</time>
      </trkpt>
      <trkpt lat="45.86293" lon="3.3355">
        <ele>308.79998779297</ele>
        <time>2011-02-26T07:49:17.000Z</time>
      </trkpt>
      <trkpt lat="45.86301" lon="3.33563">
        <ele>309.60000610352</ele>
        <time>2011-02-26T07:49:20.000Z</time>
      </trkpt>
      <trkpt lat="45.86296" lon="3.3358">
        <ele>310.20001220703</ele>
        <time>2011-02-26T07:49:23.000Z</time>
      </trkpt>
      <trkpt lat="45.86283" lon="3.33633">
        <ele>311.79998779297</ele>
        <time>2011-02-26T07:49:31.000Z</time>
      </trkpt>
      <trkpt lat="45.86279" lon="3.33661">
        <ele>312.39999389648</ele>
        <time>2011-02-26T07:49:35.000Z</time>
      </trkpt>
      <trkpt lat="45.86279" lon="3.33689">
        <ele>312.79998779297</ele>
        <time>2011-02-26T07:49:39.000Z</time>
      </trkpt>
      <trkpt lat="45.86269" lon="3.33745">
        <ele>313.20001220703</ele>
        <time>2011-02-26T07:49:47.000Z</time>
      </trkpt>
      <trkpt lat="45.86266" lon="3.33776">
        <ele>313.20001220703</ele>
        <time>2011-02-26T07:49:51.000Z</time>
      </trkpt>
      <trkpt lat="45.86272" lon="3.3382">
        <ele>313.39999389648</ele>
        <time>2011-02-26T07:49:57.000Z</time>
      </trkpt>
      <trkpt lat="45.86289" lon="3.33867">
        <ele>314.20001220703</ele>
        <time>2011-02-26T07:50:04.000Z</time>
      </trkpt>
      <trkpt lat="45.86309" lon="3.33903">
        <ele>314.79998779297</ele>
        <time>2011-02-26T07:50:10.000Z</time>
      </trkpt>
      <trkpt lat="45.86355" lon="3.33971">
        <ele>315.79998779297</ele>
        <time>2011-02-26T07:50:22.000Z</time>
      </trkpt>
      <trkpt lat="45.86392" lon="3.34034">
        <ele>316.79998779297</ele>
        <time>2011-02-26T07:50:33.000Z</time>
      </trkpt>
      <trkpt lat="45.86422" lon="3.34105">
        <ele>318</ele>
        <time>2011-02-26T07:50:44.000Z</time>
      </trkpt>
      <trkpt lat="45.86444" lon="3.34173">
        <ele>318.79998779297</ele>
        <time>2011-02-26T07:50:54.000Z</time>
      </trkpt>
      <trkpt lat="45.86447" lon="3.34231">
        <ele>319.60000610352</ele>
        <time>2011-02-26T07:51:02.000Z</time>
      </trkpt>
      <trkpt lat="45.86447" lon="3.34301">
        <ele>321.39999389648</ele>
        <time>2011-02-26T07:51:12.000Z</time>
      </trkpt>
      <trkpt lat="45.86443" lon="3.34365">
        <ele>323</ele>
        <time>2011-02-26T07:51:22.000Z</time>
      </trkpt>
      <trkpt lat="45.86437" lon="3.34425">
        <ele>325.79998779297</ele>
        <time>2011-02-26T07:51:33.000Z</time>
      </trkpt>
      <trkpt lat="45.86431" lon="3.3446">
        <ele>328</ele>
        <time>2011-02-26T07:51:40.000Z</time>
      </trkpt>
      <trkpt lat="45.86423" lon="3.34499">
        <ele>329.79998779297</ele>
        <time>2011-02-26T07:51:48.000Z</time>
      </trkpt>
      <trkpt lat="45.86412" lon="3.34544">
        <ele>332.39999389648</ele>
        <time>2011-02-26T07:51:57.000Z</time>
      </trkpt>
      <trkpt lat="45.86404" lon="3.34594">
        <ele>335</ele>
        <time>2011-02-26T07:52:06.000Z</time>
      </trkpt>
      <trkpt lat="45.86406" lon="3.34641">
        <ele>337</ele>
        <time>2011-02-26T07:52:14.000Z</time>
      </trkpt>
      <trkpt lat="45.86414" lon="3.34692">
        <ele>339.20001220703</ele>
        <time>2011-02-26T07:52:23.000Z</time>
      </trkpt>
      <trkpt lat="45.8642" lon="3.34748">
        <ele>341.20001220703</ele>
        <time>2011-02-26T07:52:32.000Z</time>
      </trkpt>
      <trkpt lat="45.86422" lon="3.34807">
        <ele>343.39999389648</ele>
        <time>2011-02-26T07:52:42.000Z</time>
      </trkpt>
      <trkpt lat="45.86426" lon="3.34872">
        <ele>346</ele>
        <time>2011-02-26T07:52:53.000Z</time>
      </trkpt>
      <trkpt lat="45.86431" lon="3.34933">
        <ele>347.60000610352</ele>
        <time>2011-02-26T07:53:03.000Z</time>
      </trkpt>
      <trkpt lat="45.86438" lon="3.35018">
        <ele>349.79998779297</ele>
        <time>2011-02-26T07:53:16.000Z</time>
      </trkpt>
      <trkpt lat="45.86443" lon="3.35107">
        <ele>351.39999389648</ele>
        <time>2011-02-26T07:53:29.000Z</time>
      </trkpt>
      <trkpt lat="45.86434" lon="3.35157">
        <ele>352</ele>
        <time>2011-02-26T07:53:36.000Z</time>
      </trkpt>
      <trkpt lat="45.86416" lon="3.35233">
        <ele>353</ele>
        <time>2011-02-26T07:53:47.000Z</time>
      </trkpt>
      <trkpt lat="45.86405" lon="3.35301">
        <ele>354.20001220703</ele>
        <time>2011-02-26T07:53:57.000Z</time>
      </trkpt>
      <trkpt lat="45.86392" lon="3.35388">
        <ele>356.20001220703</ele>
        <time>2011-02-26T07:54:10.000Z</time>
      </trkpt>
      <trkpt lat="45.86383" lon="3.35446">
        <ele>358</ele>
        <time>2011-02-26T07:54:20.000Z</time>
      </trkpt>
      <trkpt lat="45.86374" lon="3.35508">
        <ele>361</ele>
        <time>2011-02-26T07:54:31.000Z</time>
      </trkpt>
      <trkpt lat="45.86371" lon="3.35562">
        <ele>363</ele>
        <time>2011-02-26T07:54:40.000Z</time>
      </trkpt>
      <trkpt lat="45.86371" lon="3.35621">
        <ele>365.60000610352</ele>
        <time>2011-02-26T07:54:50.000Z</time>
      </trkpt>
      <trkpt lat="45.86379" lon="3.35692">
        <ele>368.39999389648</ele>
        <time>2011-02-26T07:55:02.000Z</time>
      </trkpt>
      <trkpt lat="45.8639" lon="3.35765">
        <ele>369.60000610352</ele>
        <time>2011-02-26T07:55:13.000Z</time>
      </trkpt>
      <trkpt lat="45.86395" lon="3.35829">
        <ele>370.20001220703</ele>
        <time>2011-02-26T07:55:21.000Z</time>
      </trkpt>
      <trkpt lat="45.86402" lon="3.35925">
        <ele>369</ele>
        <time>2011-02-26T07:55:32.000Z</time>
      </trkpt>
      <trkpt lat="45.86395" lon="3.35977">
        <ele>369.20001220703</ele>
        <time>2011-02-26T07:55:38.000Z</time>
      </trkpt>
      <trkpt lat="45.86375" lon="3.36052">
        <ele>369.79998779297</ele>
        <time>2011-02-26T07:55:47.000Z</time>
      </trkpt>
      <trkpt lat="45.8635" lon="3.36145">
        <ele>370</ele>
        <time>2011-02-26T07:55:58.000Z</time>
      </trkpt>
      <trkpt lat="45.86321" lon="3.36254">
        <ele>369</ele>
        <time>2011-02-26T07:56:11.000Z</time>
      </trkpt>
      <trkpt lat="45.86292" lon="3.36365">
        <ele>369.39999389648</ele>
        <time>2011-02-26T07:56:24.000Z</time>
      </trkpt>
      <trkpt lat="45.86273" lon="3.36432">
        <ele>369.20001220703</ele>
        <time>2011-02-26T07:56:31.000Z</time>
      </trkpt>
      <trkpt lat="45.86245" lon="3.36537">
        <ele>368.39999389648</ele>
        <time>2011-02-26T07:56:42.000Z</time>
      </trkpt>
      <trkpt lat="45.86224" lon="3.36618">
        <ele>368</ele>
        <time>2011-02-26T07:56:51.000Z</time>
      </trkpt>
      <trkpt lat="45.86202" lon="3.36701">
        <ele>369.39999389648</ele>
        <time>2011-02-26T07:57:01.000Z</time>
      </trkpt>
      <trkpt lat="45.86184" lon="3.36768">
        <ele>370.60000610352</ele>
        <time>2011-02-26T07:57:10.000Z</time>
      </trkpt>
      <trkpt lat="45.86156" lon="3.36874">
        <ele>371.60000610352</ele>
        <time>2011-02-26T07:57:24.000Z</time>
      </trkpt>
      <trkpt lat="45.86132" lon="3.36962">
        <ele>372.20001220703</ele>
        <time>2011-02-26T07:57:35.000Z</time>
      </trkpt>
      <trkpt lat="45.86109" lon="3.37048">
        <ele>372.20001220703</ele>
        <time>2011-02-26T07:57:46.000Z</time>
      </trkpt>
      <trkpt lat="45.86088" lon="3.37127">
        <ele>372.79998779297</ele>
        <time>2011-02-26T07:57:56.000Z</time>
      </trkpt>
      <trkpt lat="45.8607" lon="3.37196">
        <ele>372.20001220703</ele>
        <time>2011-02-26T07:58:04.000Z</time>
      </trkpt>
      <trkpt lat="45.86039" lon="3.37313">
        <ele>371.60000610352</ele>
        <time>2011-02-26T07:58:17.000Z</time>
      </trkpt>
      <trkpt lat="45.86012" lon="3.37416">
        <ele>371.60000610352</ele>
        <time>2011-02-26T07:58:29.000Z</time>
      </trkpt>
      <trkpt lat="45.85995" lon="3.37481">
        <ele>371.60000610352</ele>
        <time>2011-02-26T07:58:37.000Z</time>
      </trkpt>
      <trkpt lat="45.85969" lon="3.37575">
        <ele>373</ele>
        <time>2011-02-26T07:58:49.000Z</time>
      </trkpt>
      <trkpt lat="45.85933" lon="3.37709">
        <ele>373.79998779297</ele>
        <time>2011-02-26T07:59:06.000Z</time>
      </trkpt>
      <trkpt lat="45.85912" lon="3.37789">
        <ele>374.79998779297</ele>
        <time>2011-02-26T07:59:17.000Z</time>
      </trkpt>
      <trkpt lat="45.85892" lon="3.37861">
        <ele>376.20001220703</ele>
        <time>2011-02-26T07:59:27.000Z</time>
      </trkpt>
      <trkpt lat="45.8587" lon="3.37946">
        <ele>378.20001220703</ele>
        <time>2011-02-26T07:59:39.000Z</time>
      </trkpt>
      <trkpt lat="45.85858" lon="3.37993">
        <ele>379</ele>
        <time>2011-02-26T07:59:46.000Z</time>
      </trkpt>
      <trkpt lat="45.85848" lon="3.38034">
        <ele>379.60000610352</ele>
        <time>2011-02-26T07:59:52.000Z</time>
      </trkpt>
      <trkpt lat="45.8583" lon="3.381">
        <ele>380.79998779297</ele>
        <time>2011-02-26T08:00:01.000Z</time>
      </trkpt>
      <trkpt lat="45.85808" lon="3.38164">
        <ele>382</ele>
        <time>2011-02-26T08:00:10.000Z</time>
      </trkpt>
      <trkpt lat="45.85782" lon="3.38216">
        <ele>383.39999389648</ele>
        <time>2011-02-26T08:00:19.000Z</time>
      </trkpt>
      <trkpt lat="45.85751" lon="3.38276">
        <ele>385.79998779297</ele>
        <time>2011-02-26T08:00:30.000Z</time>
      </trkpt>
      <trkpt lat="45.8572" lon="3.38332">
        <ele>388.20001220703</ele>
        <time>2011-02-26T08:00:41.000Z</time>
      </trkpt>
      <trkpt lat="45.85691" lon="3.38387">
        <ele>390.79998779297</ele>
        <time>2011-02-26T08:00:52.000Z</time>
      </trkpt>
      <trkpt lat="45.85661" lon="3.38443">
        <ele>393</ele>
        <time>2011-02-26T08:01:03.000Z</time>
      </trkpt>
      <trkpt lat="45.85637" lon="3.38488">
        <ele>394.39999389648</ele>
        <time>2011-02-26T08:01:12.000Z</time>
      </trkpt>
      <trkpt lat="45.85615" lon="3.38531">
        <ele>396.20001220703</ele>
        <time>2011-02-26T08:01:21.000Z</time>
      </trkpt>
      <trkpt lat="45.85595" lon="3.3857">
        <ele>398.39999389648</ele>
        <time>2011-02-26T08:01:28.000Z</time>
      </trkpt>
      <trkpt lat="45.85568" lon="3.38617">
        <ele>398.20001220703</ele>
        <time>2011-02-26T08:01:35.000Z</time>
      </trkpt>
      <trkpt lat="45.85531" lon="3.38684">
        <ele>398.60000610352</ele>
        <time>2011-02-26T08:01:45.000Z</time>
      </trkpt>
      <trkpt lat="45.85501" lon="3.3874">
        <ele>398</ele>
        <time>2011-02-26T08:01:53.000Z</time>
      </trkpt>
      <trkpt lat="45.85471" lon="3.38795">
        <ele>399.39999389648</ele>
        <time>2011-02-26T08:02:02.000Z</time>
      </trkpt>
      <trkpt lat="45.8545" lon="3.38833">
        <ele>400.60000610352</ele>
        <time>2011-02-26T08:02:09.000Z</time>
      </trkpt>
      <trkpt lat="45.85426" lon="3.38878">
        <ele>402</ele>
        <time>2011-02-26T08:02:17.000Z</time>
      </trkpt>
      <trkpt lat="45.85395" lon="3.38936">
        <ele>403</ele>
        <time>2011-02-26T08:02:27.000Z</time>
      </trkpt>
      <trkpt lat="45.85371" lon="3.38979">
        <ele>403.60000610352</ele>
        <time>2011-02-26T08:02:34.000Z</time>
      </trkpt>
      <trkpt lat="45.85348" lon="3.39021">
        <ele>404.60000610352</ele>
        <time>2011-02-26T08:02:41.000Z</time>
      </trkpt>
      <trkpt lat="45.85339" lon="3.39035">
        <ele>404.60000610352</ele>
        <time>2011-02-26T08:02:44.000Z</time>
      </trkpt>
      <trkpt lat="45.8533" lon="3.39051">
        <ele>405.20001220703</ele>
        <time>2011-02-26T08:02:47.000Z</time>
      </trkpt>
      <trkpt lat="45.85319" lon="3.39067">
        <ele>405.60000610352</ele>
        <time>2011-02-26T08:02:50.000Z</time>
      </trkpt>
      <trkpt lat="45.85297" lon="3.3911">
        <ele>406.60000610352</ele>
        <time>2011-02-26T08:02:56.000Z</time>
      </trkpt>
      <trkpt lat="45.85294" lon="3.39119">
        <ele>406.60000610352</ele>
        <time>2011-02-26T08:02:57.000Z</time>
      </trkpt>
      <trkpt lat="45.85281" lon="3.39175">
        <ele>405.79998779297</ele>
        <time>2011-02-26T08:03:03.000Z</time>
      </trkpt>
      <trkpt lat="45.85281" lon="3.39229">
        <ele>405</ele>
        <time>2011-02-26T08:03:09.000Z</time>
      </trkpt>
      <trkpt lat="45.85281" lon="3.39237">
        <ele>404.79998779297</ele>
        <time>2011-02-26T08:03:10.000Z</time>
      </trkpt>
      <trkpt lat="45.85282" lon="3.39253">
        <ele>404.60000610352</ele>
        <time>2011-02-26T08:03:14.000Z</time>
      </trkpt>
      <trkpt lat="45.85282" lon="3.39253">
        <ele>404.20001220703</ele>
        <time>2011-02-26T08:03:16.000Z</time>
      </trkpt>
      <trkpt lat="45.85285" lon="3.39263">
        <ele>404.60000610352</ele>
        <time>2011-02-26T08:03:21.000Z</time>
      </trkpt>
      <trkpt lat="45.85286" lon="3.39267">
        <ele>404.60000610352</ele>
        <time>2011-02-26T08:03:22.000Z</time>
      </trkpt>
      <trkpt lat="45.85294" lon="3.39286">
        <ele>404.79998779297</ele>
        <time>2011-02-26T08:03:25.000Z</time>
      </trkpt>
      <trkpt lat="45.85299" lon="3.39319">
        <ele>404.39999389648</ele>
        <time>2011-02-26T08:03:29.000Z</time>
      </trkpt>
      <trkpt lat="45.853" lon="3.39357">
        <ele>403.20001220703</ele>
        <time>2011-02-26T08:03:33.000Z</time>
      </trkpt>
      <trkpt lat="45.85289" lon="3.39412">
        <ele>402.60000610352</ele>
        <time>2011-02-26T08:03:39.000Z</time>
      </trkpt>
      <trkpt lat="45.8527" lon="3.39494">
        <ele>401.60000610352</ele>
        <time>2011-02-26T08:03:48.000Z</time>
      </trkpt>
      <trkpt lat="45.85257" lon="3.3959">
        <ele>401.60000610352</ele>
        <time>2011-02-26T08:03:58.000Z</time>
      </trkpt>
      <trkpt lat="45.85252" lon="3.39682">
        <ele>402.20001220703</ele>
        <time>2011-02-26T08:04:08.000Z</time>
      </trkpt>
      <trkpt lat="45.85247" lon="3.39766">
        <ele>403.39999389648</ele>
        <time>2011-02-26T08:04:18.000Z</time>
      </trkpt>
      <trkpt lat="45.85246" lon="3.39849">
        <ele>404</ele>
        <time>2011-02-26T08:04:28.000Z</time>
      </trkpt>
      <trkpt lat="45.85254" lon="3.39908">
        <ele>405.39999389648</ele>
        <time>2011-02-26T08:04:35.000Z</time>
      </trkpt>
      <trkpt lat="45.85273" lon="3.39964">
        <ele>406</ele>
        <time>2011-02-26T08:04:42.000Z</time>
      </trkpt>
      <trkpt lat="45.853" lon="3.40007">
        <ele>406.39999389648</ele>
        <time>2011-02-26T08:04:48.000Z</time>
      </trkpt>
      <trkpt lat="45.8534" lon="3.40048">
        <ele>405</ele>
        <time>2011-02-26T08:04:55.000Z</time>
      </trkpt>
      <trkpt lat="45.85413" lon="3.40114">
        <ele>404</ele>
        <time>2011-02-26T08:05:07.000Z</time>
      </trkpt>
      <trkpt lat="45.85481" lon="3.40178">
        <ele>403.39999389648</ele>
        <time>2011-02-26T08:05:18.000Z</time>
      </trkpt>
      <trkpt lat="45.85523" lon="3.40225">
        <ele>402.79998779297</ele>
        <time>2011-02-26T08:05:25.000Z</time>
      </trkpt>
      <trkpt lat="45.85556" lon="3.40284">
        <ele>402.39999389648</ele>
        <time>2011-02-26T08:05:32.000Z</time>
      </trkpt>
      <trkpt lat="45.85589" lon="3.40364">
        <ele>402.60000610352</ele>
        <time>2011-02-26T08:05:41.000Z</time>
      </trkpt>
      <trkpt lat="45.85619" lon="3.4041">
        <ele>402.20001220703</ele>
        <time>2011-02-26T08:05:47.000Z</time>
      </trkpt>
      <trkpt lat="45.8566" lon="3.40456">
        <ele>401.79998779297</ele>
        <time>2011-02-26T08:05:54.000Z</time>
      </trkpt>
      <trkpt lat="45.85685" lon="3.40495">
        <ele>401.39999389648</ele>
        <time>2011-02-26T08:05:59.000Z</time>
      </trkpt>
      <trkpt lat="45.85707" lon="3.4055">
        <ele>401.39999389648</ele>
        <time>2011-02-26T08:06:05.000Z</time>
      </trkpt>
      <trkpt lat="45.8574" lon="3.40654">
        <ele>401</ele>
        <time>2011-02-26T08:06:16.000Z</time>
      </trkpt>
      <trkpt lat="45.85779" lon="3.40753">
        <ele>400.39999389648</ele>
        <time>2011-02-26T08:06:27.000Z</time>
      </trkpt>
      <trkpt lat="45.85831" lon="3.40872">
        <ele>398.79998779297</ele>
        <time>2011-02-26T08:06:40.000Z</time>
      </trkpt>
      <trkpt lat="45.85878" lon="3.40982">
        <ele>398</ele>
        <time>2011-02-26T08:06:52.000Z</time>
      </trkpt>
      <trkpt lat="45.85926" lon="3.41094">
        <ele>396</ele>
        <time>2011-02-26T08:07:04.000Z</time>
      </trkpt>
      <trkpt lat="45.85958" lon="3.41183">
        <ele>395</ele>
        <time>2011-02-26T08:07:13.000Z</time>
      </trkpt>
      <trkpt lat="45.85976" lon="3.41268">
        <ele>394</ele>
        <time>2011-02-26T08:07:21.000Z</time>
      </trkpt>
      <trkpt lat="45.86002" lon="3.41407">
        <ele>392.79998779297</ele>
        <time>2011-02-26T08:07:34.000Z</time>
      </trkpt>
      <trkpt lat="45.86034" lon="3.4153">
        <ele>390.79998779297</ele>
        <time>2011-02-26T08:07:46.000Z</time>
      </trkpt>
      <trkpt lat="45.86065" lon="3.4165">
        <ele>389.60000610352</ele>
        <time>2011-02-26T08:07:58.000Z</time>
      </trkpt>
      <trkpt lat="45.8607" lon="3.41713">
        <ele>388.79998779297</ele>
        <time>2011-02-26T08:08:04.000Z</time>
      </trkpt>
      <trkpt lat="45.8606" lon="3.4176">
        <ele>389.20001220703</ele>
        <time>2011-02-26T08:08:09.000Z</time>
      </trkpt>
      <trkpt lat="45.86048" lon="3.41786">
        <ele>389.60000610352</ele>
        <time>2011-02-26T08:08:12.000Z</time>
      </trkpt>
      <trkpt lat="45.86026" lon="3.41812">
        <ele>390.20001220703</ele>
        <time>2011-02-26T08:08:16.000Z</time>
      </trkpt>
      <trkpt lat="45.8602" lon="3.41816">
        <ele>390</ele>
        <time>2011-02-26T08:08:17.000Z</time>
      </trkpt>
      <trkpt lat="45.85951" lon="3.41864">
        <ele>389.79998779297</ele>
        <time>2011-02-26T08:08:28.000Z</time>
      </trkpt>
      <trkpt lat="45.85895" lon="3.41892">
        <ele>390</ele>
        <time>2011-02-26T08:08:36.000Z</time>
      </trkpt>
      <trkpt lat="45.85855" lon="3.41901">
        <ele>389.60000610352</ele>
        <time>2011-02-26T08:08:42.000Z</time>
      </trkpt>
      <trkpt lat="45.8581" lon="3.41908">
        <ele>389.60000610352</ele>
        <time>2011-02-26T08:08:49.000Z</time>
      </trkpt>
      <trkpt lat="45.85751" lon="3.41917">
        <ele>388.79998779297</ele>
        <time>2011-02-26T08:08:58.000Z</time>
      </trkpt>
      <trkpt lat="45.85703" lon="3.41926">
        <ele>387.60000610352</ele>
        <time>2011-02-26T08:09:05.000Z</time>
      </trkpt>
      <trkpt lat="45.85655" lon="3.4193">
        <ele>385.39999389648</ele>
        <time>2011-02-26T08:09:11.000Z</time>
      </trkpt>
      <trkpt lat="45.85604" lon="3.41933">
        <ele>382.79998779297</ele>
        <time>2011-02-26T08:09:17.000Z</time>
      </trkpt>
      <trkpt lat="45.85564" lon="3.41954">
        <ele>381.20001220703</ele>
        <time>2011-02-26T08:09:22.000Z</time>
      </trkpt>
      <trkpt lat="45.85541" lon="3.4197">
        <ele>380.60000610352</ele>
        <time>2011-02-26T08:09:25.000Z</time>
      </trkpt>
      <trkpt lat="45.85512" lon="3.41965">
        <ele>379.79998779297</ele>
        <time>2011-02-26T08:09:29.000Z</time>
      </trkpt>
      <trkpt lat="45.85495" lon="3.41936">
        <ele>379</ele>
        <time>2011-02-26T08:09:33.000Z</time>
      </trkpt>
      <trkpt lat="45.85467" lon="3.41872">
        <ele>379.79998779297</ele>
        <time>2011-02-26T08:09:42.000Z</time>
      </trkpt>
      <trkpt lat="45.85452" lon="3.41852">
        <ele>380</ele>
        <time>2011-02-26T08:09:46.000Z</time>
      </trkpt>
      <trkpt lat="45.85427" lon="3.41836">
        <ele>381</ele>
        <time>2011-02-26T08:09:52.000Z</time>
      </trkpt>
      <trkpt lat="45.85389" lon="3.41817">
        <ele>383.20001220703</ele>
        <time>2011-02-26T08:10:00.000Z</time>
      </trkpt>
      <trkpt lat="45.85351" lon="3.41799">
        <ele>385.20001220703</ele>
        <time>2011-02-26T08:10:08.000Z</time>
      </trkpt>
      <trkpt lat="45.85309" lon="3.4178">
        <ele>386.60000610352</ele>
        <time>2011-02-26T08:10:17.000Z</time>
      </trkpt>
      <trkpt lat="45.85268" lon="3.4177">
        <ele>387.20001220703</ele>
        <time>2011-02-26T08:10:25.000Z</time>
      </trkpt>
      <trkpt lat="45.8521" lon="3.4176">
        <ele>388.60000610352</ele>
        <time>2011-02-26T08:10:36.000Z</time>
      </trkpt>
      <trkpt lat="45.85172" lon="3.41753">
        <ele>389.60000610352</ele>
        <time>2011-02-26T08:10:44.000Z</time>
      </trkpt>
      <trkpt lat="45.85132" lon="3.41746">
        <ele>392.20001220703</ele>
        <time>2011-02-26T08:10:53.000Z</time>
      </trkpt>
      <trkpt lat="45.85093" lon="3.41739">
        <ele>393.60000610352</ele>
        <time>2011-02-26T08:11:02.000Z</time>
      </trkpt>
      <trkpt lat="45.85074" lon="3.41736">
        <ele>393.60000610352</ele>
        <time>2011-02-26T08:11:08.000Z</time>
      </trkpt>
      <trkpt lat="45.85068" lon="3.41735">
        <ele>393.79998779297</ele>
        <time>2011-02-26T08:11:13.000Z</time>
      </trkpt>
      <trkpt lat="45.85062" lon="3.41736">
        <ele>394.20001220703</ele>
        <time>2011-02-26T08:12:36.000Z</time>
      </trkpt>
      <trkpt lat="45.85053" lon="3.41735">
        <ele>394.79998779297</ele>
        <time>2011-02-26T08:12:40.000Z</time>
      </trkpt>
      <trkpt lat="45.85052" lon="3.4174">
        <ele>394.79998779297</ele>
        <time>2011-02-26T08:12:44.000Z</time>
      </trkpt>
      <trkpt lat="45.85052" lon="3.4174">
        <ele>394.39999389648</ele>
        <time>2011-02-26T08:12:46.000Z</time>
      </trkpt>
      <trkpt lat="45.85048" lon="3.41734">
        <ele>394</ele>
        <time>2011-02-26T08:12:50.000Z</time>
      </trkpt>
      <trkpt lat="45.85041" lon="3.41733">
        <ele>393.79998779297</ele>
        <time>2011-02-26T08:12:52.000Z</time>
      </trkpt>
      <trkpt lat="45.85028" lon="3.41731">
        <ele>394.20001220703</ele>
        <time>2011-02-26T08:12:55.000Z</time>
      </trkpt>
      <trkpt lat="45.84984" lon="3.41722">
        <ele>393.79998779297</ele>
        <time>2011-02-26T08:13:03.000Z</time>
      </trkpt>
      <trkpt lat="45.84927" lon="3.41706">
        <ele>392</ele>
        <time>2011-02-26T08:13:12.000Z</time>
      </trkpt>
      <trkpt lat="45.84864" lon="3.41687">
        <ele>390.60000610352</ele>
        <time>2011-02-26T08:13:21.000Z</time>
      </trkpt>
      <trkpt lat="45.84814" lon="3.41672">
        <ele>390.60000610352</ele>
        <time>2011-02-26T08:13:29.000Z</time>
      </trkpt>
      <trkpt lat="45.84773" lon="3.41667">
        <ele>390</ele>
        <time>2011-02-26T08:13:35.000Z</time>
      </trkpt>
      <trkpt lat="45.84718" lon="3.41667">
        <ele>387.79998779297</ele>
        <time>2011-02-26T08:13:42.000Z</time>
      </trkpt>
      <trkpt lat="45.84703" lon="3.41667">
        <ele>387.20001220703</ele>
        <time>2011-02-26T08:13:44.000Z</time>
      </trkpt>
      <trkpt lat="45.8467" lon="3.41651">
        <ele>386.39999389648</ele>
        <time>2011-02-26T08:13:49.000Z</time>
      </trkpt>
      <trkpt lat="45.84658" lon="3.41643">
        <ele>386.20001220703</ele>
        <time>2011-02-26T08:13:51.000Z</time>
      </trkpt>
      <trkpt lat="45.84633" lon="3.41637">
        <ele>386.60000610352</ele>
        <time>2011-02-26T08:13:55.000Z</time>
      </trkpt>
      <trkpt lat="45.84586" lon="3.41643">
        <ele>386.79998779297</ele>
        <time>2011-02-26T08:14:02.000Z</time>
      </trkpt>
      <trkpt lat="45.84546" lon="3.4165">
        <ele>387.60000610352</ele>
        <time>2011-02-26T08:14:08.000Z</time>
      </trkpt>
      <trkpt lat="45.84477" lon="3.41659">
        <ele>388.60000610352</ele>
        <time>2011-02-26T08:14:19.000Z</time>
      </trkpt>
      <trkpt lat="45.84413" lon="3.4166">
        <ele>388.39999389648</ele>
        <time>2011-02-26T08:14:29.000Z</time>
      </trkpt>
      <trkpt lat="45.84362" lon="3.41659">
        <ele>388.79998779297</ele>
        <time>2011-02-26T08:14:37.000Z</time>
      </trkpt>
      <trkpt lat="45.84355" lon="3.41661">
        <ele>388.79998779297</ele>
        <time>2011-02-26T08:14:38.000Z</time>
      </trkpt>
      <trkpt lat="45.84292" lon="3.4169">
        <ele>389</ele>
        <time>2011-02-26T08:14:48.000Z</time>
      </trkpt>
      <trkpt lat="45.84244" lon="3.4172">
        <ele>388.79998779297</ele>
        <time>2011-02-26T08:14:56.000Z</time>
      </trkpt>
      <trkpt lat="45.84201" lon="3.41762">
        <ele>388.79998779297</ele>
        <time>2011-02-26T08:15:04.000Z</time>
      </trkpt>
      <trkpt lat="45.84161" lon="3.41792">
        <ele>388.60000610352</ele>
        <time>2011-02-26T08:15:11.000Z</time>
      </trkpt>
      <trkpt lat="45.84137" lon="3.41833">
        <ele>388.79998779297</ele>
        <time>2011-02-26T08:15:17.000Z</time>
      </trkpt>
      <trkpt lat="45.84121" lon="3.41862">
        <ele>388.39999389648</ele>
        <time>2011-02-26T08:15:21.000Z</time>
      </trkpt>
      <trkpt lat="45.84091" lon="3.41887">
        <ele>388.39999389648</ele>
        <time>2011-02-26T08:15:26.000Z</time>
      </trkpt>
      <trkpt lat="45.84029" lon="3.41913">
        <ele>387.39999389648</ele>
        <time>2011-02-26T08:15:35.000Z</time>
      </trkpt>
      <trkpt lat="45.84023" lon="3.41917">
        <ele>387.79998779297</ele>
        <time>2011-02-26T08:15:36.000Z</time>
      </trkpt>
      <trkpt lat="45.83981" lon="3.41954">
        <ele>386.79998779297</ele>
        <time>2011-02-26T08:15:43.000Z</time>
      </trkpt>
      <trkpt lat="45.83951" lon="3.4198">
        <ele>386.60000610352</ele>
        <time>2011-02-26T08:15:48.000Z</time>
      </trkpt>
      <trkpt lat="45.83903" lon="3.42011">
        <ele>387</ele>
        <time>2011-02-26T08:15:56.000Z</time>
      </trkpt>
      <trkpt lat="45.83871" lon="3.42041">
        <ele>387.20001220703</ele>
        <time>2011-02-26T08:16:02.000Z</time>
      </trkpt>
      <trkpt lat="45.83824" lon="3.42107">
        <ele>386.60000610352</ele>
        <time>2011-02-26T08:16:12.000Z</time>
      </trkpt>
      <trkpt lat="45.83783" lon="3.42159">
        <ele>385.60000610352</ele>
        <time>2011-02-26T08:16:20.000Z</time>
      </trkpt>
      <trkpt lat="45.83758" lon="3.42173">
        <ele>386.20001220703</ele>
        <time>2011-02-26T08:16:24.000Z</time>
      </trkpt>
      <trkpt lat="45.83684" lon="3.42182">
        <ele>385.79998779297</ele>
        <time>2011-02-26T08:16:35.000Z</time>
      </trkpt>
      <trkpt lat="45.83606" lon="3.42187">
        <ele>386.60000610352</ele>
        <time>2011-02-26T08:16:47.000Z</time>
      </trkpt>
      <trkpt lat="45.83529" lon="3.42193">
        <ele>386.39999389648</ele>
        <time>2011-02-26T08:16:59.000Z</time>
      </trkpt>
      <trkpt lat="45.83454" lon="3.422">
        <ele>386.79998779297</ele>
        <time>2011-02-26T08:17:11.000Z</time>
      </trkpt>
      <trkpt lat="45.83423" lon="3.42201">
        <ele>386.60000610352</ele>
        <time>2011-02-26T08:17:16.000Z</time>
      </trkpt>
      <trkpt lat="45.83393" lon="3.42189">
        <ele>386.39999389648</ele>
        <time>2011-02-26T08:17:21.000Z</time>
      </trkpt>
      <trkpt lat="45.83345" lon="3.42147">
        <ele>386.79998779297</ele>
        <time>2011-02-26T08:17:30.000Z</time>
      </trkpt>
      <trkpt lat="45.83303" lon="3.42104">
        <ele>387.39999389648</ele>
        <time>2011-02-26T08:17:39.000Z</time>
      </trkpt>
      <trkpt lat="45.83282" lon="3.42099">
        <ele>387.39999389648</ele>
        <time>2011-02-26T08:17:43.000Z</time>
      </trkpt>
      <trkpt lat="45.83274" lon="3.4211">
        <ele>387.79998779297</ele>
        <time>2011-02-26T08:17:45.000Z</time>
      </trkpt>
      <trkpt lat="45.83235" lon="3.42174">
        <ele>387.60000610352</ele>
        <time>2011-02-26T08:17:54.000Z</time>
      </trkpt>
      <trkpt lat="45.83184" lon="3.42253">
        <ele>386.39999389648</ele>
        <time>2011-02-26T08:18:05.000Z</time>
      </trkpt>
      <trkpt lat="45.83169" lon="3.42285">
        <ele>386.79998779297</ele>
        <time>2011-02-26T08:18:09.000Z</time>
      </trkpt>
      <trkpt lat="45.83162" lon="3.42342">
        <ele>386.39999389648</ele>
        <time>2011-02-26T08:18:15.000Z</time>
      </trkpt>
      <trkpt lat="45.83166" lon="3.42405">
        <ele>386.20001220703</ele>
        <time>2011-02-26T08:18:22.000Z</time>
      </trkpt>
      <trkpt lat="45.83165" lon="3.42423">
        <ele>386.39999389648</ele>
        <time>2011-02-26T08:18:24.000Z</time>
      </trkpt>
      <trkpt lat="45.83163" lon="3.42442">
        <ele>386.60000610352</ele>
        <time>2011-02-26T08:18:26.000Z</time>
      </trkpt>
      <trkpt lat="45.83145" lon="3.42511">
        <ele>385.79998779297</ele>
        <time>2011-02-26T08:18:33.000Z</time>
      </trkpt>
      <trkpt lat="45.83115" lon="3.42599">
        <ele>384.79998779297</ele>
        <time>2011-02-26T08:18:42.000Z</time>
      </trkpt>
      <trkpt lat="45.83079" lon="3.42676">
        <ele>382.39999389648</ele>
        <time>2011-02-26T08:18:50.000Z</time>
      </trkpt>
      <trkpt lat="45.83059" lon="3.42711">
        <ele>380.79998779297</ele>
        <time>2011-02-26T08:18:54.000Z</time>
      </trkpt>
      <trkpt lat="45.83019" lon="3.42776">
        <ele>378.79998779297</ele>
        <time>2011-02-26T08:19:02.000Z</time>
      </trkpt>
      <trkpt lat="45.82975" lon="3.42845">
        <ele>378.79998779297</ele>
        <time>2011-02-26T08:19:11.000Z</time>
      </trkpt>
      <trkpt lat="45.82956" lon="3.42897">
        <ele>378.60000610352</ele>
        <time>2011-02-26T08:19:17.000Z</time>
      </trkpt>
      <trkpt lat="45.82943" lon="3.42955">
        <ele>379</ele>
        <time>2011-02-26T08:19:24.000Z</time>
      </trkpt>
      <trkpt lat="45.82935" lon="3.42996">
        <ele>380</ele>
        <time>2011-02-26T08:19:29.000Z</time>
      </trkpt>
      <trkpt lat="45.82919" lon="3.43034">
        <ele>380.39999389648</ele>
        <time>2011-02-26T08:19:34.000Z</time>
      </trkpt>
      <trkpt lat="45.82892" lon="3.43072">
        <ele>380.39999389648</ele>
        <time>2011-02-26T08:19:41.000Z</time>
      </trkpt>
      <trkpt lat="45.82882" lon="3.43081">
        <ele>380.39999389648</ele>
        <time>2011-02-26T08:19:45.000Z</time>
      </trkpt>
      <trkpt lat="45.82879" lon="3.4308">
        <ele>380.20001220703</ele>
        <time>2011-02-26T08:19:49.000Z</time>
      </trkpt>
      <trkpt lat="45.82873" lon="3.43084">
        <ele>380.20001220703</ele>
        <time>2011-02-26T08:19:52.000Z</time>
      </trkpt>
      <trkpt lat="45.82853" lon="3.43114">
        <ele>380.39999389648</ele>
        <time>2011-02-26T08:19:58.000Z</time>
      </trkpt>
      <trkpt lat="45.82812" lon="3.43176">
        <ele>381.39999389648</ele>
        <time>2011-02-26T08:20:08.000Z</time>
      </trkpt>
      <trkpt lat="45.82771" lon="3.43233">
        <ele>382.39999389648</ele>
        <time>2011-02-26T08:20:18.000Z</time>
      </trkpt>
      <trkpt lat="45.82748" lon="3.43268">
        <ele>382.60000610352</ele>
        <time>2011-02-26T08:20:24.000Z</time>
      </trkpt>
      <trkpt lat="45.82713" lon="3.43333">
        <ele>382.20001220703</ele>
        <time>2011-02-26T08:20:33.000Z</time>
      </trkpt>
      <trkpt lat="45.82688" lon="3.43363">
        <ele>382.20001220703</ele>
        <time>2011-02-26T08:20:38.000Z</time>
      </trkpt>
      <trkpt lat="45.82644" lon="3.43399">
        <ele>383.20001220703</ele>
        <time>2011-02-26T08:20:46.000Z</time>
      </trkpt>
      <trkpt lat="45.82587" lon="3.43444">
        <ele>383.39999389648</ele>
        <time>2011-02-26T08:20:56.000Z</time>
      </trkpt>
      <trkpt lat="45.82527" lon="3.43493">
        <ele>382.79998779297</ele>
        <time>2011-02-26T08:21:07.000Z</time>
      </trkpt>
      <trkpt lat="45.82464" lon="3.43544">
        <ele>383.79998779297</ele>
        <time>2011-02-26T08:21:18.000Z</time>
      </trkpt>
      <trkpt lat="45.82411" lon="3.43595">
        <ele>384.20001220703</ele>
        <time>2011-02-26T08:21:28.000Z</time>
      </trkpt>
      <trkpt lat="45.82351" lon="3.43657">
        <ele>385</ele>
        <time>2011-02-26T08:21:40.000Z</time>
      </trkpt>
      <trkpt lat="45.82288" lon="3.43732">
        <ele>385.60000610352</ele>
        <time>2011-02-26T08:21:53.000Z</time>
      </trkpt>
      <trkpt lat="45.82273" lon="3.4375">
        <ele>386</ele>
        <time>2011-02-26T08:21:56.000Z</time>
      </trkpt>
      <trkpt lat="45.82259" lon="3.4378">
        <ele>386.60000610352</ele>
        <time>2011-02-26T08:22:00.000Z</time>
      </trkpt>
      <trkpt lat="45.82231" lon="3.43861">
        <ele>387.20001220703</ele>
        <time>2011-02-26T08:22:10.000Z</time>
      </trkpt>
      <trkpt lat="45.822" lon="3.43921">
        <ele>387.79998779297</ele>
        <time>2011-02-26T08:22:18.000Z</time>
      </trkpt>
      <trkpt lat="45.82177" lon="3.43941">
        <ele>388.20001220703</ele>
        <time>2011-02-26T08:22:22.000Z</time>
      </trkpt>
      <trkpt lat="45.82112" lon="3.43958">
        <ele>388.20001220703</ele>
        <time>2011-02-26T08:22:32.000Z</time>
      </trkpt>
      <trkpt lat="45.82032" lon="3.43978">
        <ele>390.39999389648</ele>
        <time>2011-02-26T08:22:45.000Z</time>
      </trkpt>
      <trkpt lat="45.8202" lon="3.4398">
        <ele>390.20001220703</ele>
        <time>2011-02-26T08:22:47.000Z</time>
      </trkpt>
      <trkpt lat="45.82007" lon="3.43978">
        <ele>390.39999389648</ele>
        <time>2011-02-26T08:22:49.000Z</time>
      </trkpt>
      <trkpt lat="45.81948" lon="3.43954">
        <ele>391.20001220703</ele>
        <time>2011-02-26T08:22:59.000Z</time>
      </trkpt>
      <trkpt lat="45.81865" lon="3.43923">
        <ele>392</ele>
        <time>2011-02-26T08:23:13.000Z</time>
      </trkpt>
      <trkpt lat="45.81819" lon="3.43904">
        <ele>391.39999389648</ele>
        <time>2011-02-26T08:23:21.000Z</time>
      </trkpt>
      <trkpt lat="45.81757" lon="3.43876">
        <ele>392.20001220703</ele>
        <time>2011-02-26T08:23:32.000Z</time>
      </trkpt>
      <trkpt lat="45.81715" lon="3.43861">
        <ele>393.20001220703</ele>
        <time>2011-02-26T08:23:40.000Z</time>
      </trkpt>
      <trkpt lat="45.8171" lon="3.4386">
        <ele>393.20001220703</ele>
        <time>2011-02-26T08:23:41.000Z</time>
      </trkpt>
      <trkpt lat="45.81694" lon="3.43859">
        <ele>393.20001220703</ele>
        <time>2011-02-26T08:23:44.000Z</time>
      </trkpt>
      <trkpt lat="45.81668" lon="3.43857">
        <ele>394.20001220703</ele>
        <time>2011-02-26T08:23:50.000Z</time>
      </trkpt>
      <trkpt lat="45.81666" lon="3.43855">
        <ele>394.60000610352</ele>
        <time>2011-02-26T08:23:53.000Z</time>
      </trkpt>
      <trkpt lat="45.81659" lon="3.4386">
        <ele>395</ele>
        <time>2011-02-26T08:24:59.000Z</time>
      </trkpt>
      <trkpt lat="45.81644" lon="3.43857">
        <ele>395.39999389648</ele>
        <time>2011-02-26T08:25:06.000Z</time>
      </trkpt>
      <trkpt lat="45.81639" lon="3.43858">
        <ele>395.39999389648</ele>
        <time>2011-02-26T08:25:07.000Z</time>
      </trkpt>
      <trkpt lat="45.81613" lon="3.43862">
        <ele>395.60000610352</ele>
        <time>2011-02-26T08:25:13.000Z</time>
      </trkpt>
      <trkpt lat="45.81603" lon="3.43862">
        <ele>395.79998779297</ele>
        <time>2011-02-26T08:25:15.000Z</time>
      </trkpt>
      <trkpt lat="45.81578" lon="3.43864">
        <ele>396</ele>
        <time>2011-02-26T08:25:20.000Z</time>
      </trkpt>
      <trkpt lat="45.81561" lon="3.43862">
        <ele>396.20001220703</ele>
        <time>2011-02-26T08:25:23.000Z</time>
      </trkpt>
      <trkpt lat="45.81524" lon="3.43841">
        <ele>397.39999389648</ele>
        <time>2011-02-26T08:25:30.000Z</time>
      </trkpt>
      <trkpt lat="45.81497" lon="3.43841">
        <ele>397.79998779297</ele>
        <time>2011-02-26T08:25:35.000Z</time>
      </trkpt>
      <trkpt lat="45.81478" lon="3.43857">
        <ele>397.79998779297</ele>
        <time>2011-02-26T08:25:39.000Z</time>
      </trkpt>
      <trkpt lat="45.81474" lon="3.43862">
        <ele>398</ele>
        <time>2011-02-26T08:25:40.000Z</time>
      </trkpt>
      <trkpt lat="45.81443" lon="3.439">
        <ele>398.79998779297</ele>
        <time>2011-02-26T08:25:47.000Z</time>
      </trkpt>
      <trkpt lat="45.81414" lon="3.43926">
        <ele>398.39999389648</ele>
        <time>2011-02-26T08:25:52.000Z</time>
      </trkpt>
      <trkpt lat="45.81399" lon="3.43934">
        <ele>398.39999389648</ele>
        <time>2011-02-26T08:25:55.000Z</time>
      </trkpt>
      <trkpt lat="45.8137" lon="3.43932">
        <ele>399.39999389648</ele>
        <time>2011-02-26T08:26:00.000Z</time>
      </trkpt>
      <trkpt lat="45.8132" lon="3.43923">
        <ele>400.20001220703</ele>
        <time>2011-02-26T08:26:09.000Z</time>
      </trkpt>
      <trkpt lat="45.81277" lon="3.43909">
        <ele>401.60000610352</ele>
        <time>2011-02-26T08:26:17.000Z</time>
      </trkpt>
      <trkpt lat="45.81226" lon="3.43884">
        <ele>402.39999389648</ele>
        <time>2011-02-26T08:26:27.000Z</time>
      </trkpt>
      <trkpt lat="45.81181" lon="3.43858">
        <ele>403.60000610352</ele>
        <time>2011-02-26T08:26:36.000Z</time>
      </trkpt>
      <trkpt lat="45.81151" lon="3.43829">
        <ele>405.20001220703</ele>
        <time>2011-02-26T08:26:43.000Z</time>
      </trkpt>
      <trkpt lat="45.81132" lon="3.43787">
        <ele>406.79998779297</ele>
        <time>2011-02-26T08:26:50.000Z</time>
      </trkpt>
      <trkpt lat="45.81117" lon="3.4375">
        <ele>407.60000610352</ele>
        <time>2011-02-26T08:26:56.000Z</time>
      </trkpt>
      <trkpt lat="45.81095" lon="3.43729">
        <ele>407.79998779297</ele>
        <time>2011-02-26T08:27:01.000Z</time>
      </trkpt>
      <trkpt lat="45.81074" lon="3.43731">
        <ele>408.20001220703</ele>
        <time>2011-02-26T08:27:05.000Z</time>
      </trkpt>
      <trkpt lat="45.8107" lon="3.43733">
        <ele>408.39999389648</ele>
        <time>2011-02-26T08:27:06.000Z</time>
      </trkpt>
      <trkpt lat="45.81027" lon="3.43755">
        <ele>410</ele>
        <time>2011-02-26T08:27:15.000Z</time>
      </trkpt>
      <trkpt lat="45.80994" lon="3.4376">
        <ele>411</ele>
        <time>2011-02-26T08:27:21.000Z</time>
      </trkpt>
      <trkpt lat="45.80947" lon="3.43759">
        <ele>412</ele>
        <time>2011-02-26T08:27:30.000Z</time>
      </trkpt>
      <trkpt lat="45.80903" lon="3.43764">
        <ele>413.60000610352</ele>
        <time>2011-02-26T08:27:39.000Z</time>
      </trkpt>
      <trkpt lat="45.80874" lon="3.43781">
        <ele>415</ele>
        <time>2011-02-26T08:27:45.000Z</time>
      </trkpt>
      <trkpt lat="45.80861" lon="3.43792">
        <ele>415.39999389648</ele>
        <time>2011-02-26T08:27:48.000Z</time>
      </trkpt>
      <trkpt lat="45.80835" lon="3.43822">
        <ele>415.60000610352</ele>
        <time>2011-02-26T08:27:54.000Z</time>
      </trkpt>
      <trkpt lat="45.80814" lon="3.43835">
        <ele>416</ele>
        <time>2011-02-26T08:27:58.000Z</time>
      </trkpt>
      <trkpt lat="45.80763" lon="3.43841">
        <ele>416.60000610352</ele>
        <time>2011-02-26T08:28:07.000Z</time>
      </trkpt>
      <trkpt lat="45.80723" lon="3.43836">
        <ele>418</ele>
        <time>2011-02-26T08:28:15.000Z</time>
      </trkpt>
      <trkpt lat="45.80686" lon="3.4382">
        <ele>419.39999389648</ele>
        <time>2011-02-26T08:28:23.000Z</time>
      </trkpt>
      <trkpt lat="45.80658" lon="3.43808">
        <ele>420.79998779297</ele>
        <time>2011-02-26T08:28:30.000Z</time>
      </trkpt>
      <trkpt lat="45.80617" lon="3.43795">
        <ele>423.20001220703</ele>
        <time>2011-02-26T08:28:40.000Z</time>
      </trkpt>
      <trkpt lat="45.80583" lon="3.43791">
        <ele>425.60000610352</ele>
        <time>2011-02-26T08:28:48.000Z</time>
      </trkpt>
      <trkpt lat="45.80539" lon="3.4379">
        <ele>427</ele>
        <time>2011-02-26T08:28:58.000Z</time>
      </trkpt>
      <trkpt lat="45.80493" lon="3.43788">
        <ele>428.39999389648</ele>
        <time>2011-02-26T08:29:08.000Z</time>
      </trkpt>
      <trkpt lat="45.80478" lon="3.43786">
        <ele>428.39999389648</ele>
        <time>2011-02-26T08:29:11.000Z</time>
      </trkpt>
      <trkpt lat="45.8045" lon="3.43767">
        <ele>428.39999389648</ele>
        <time>2011-02-26T08:29:17.000Z</time>
      </trkpt>
      <trkpt lat="45.80423" lon="3.43737">
        <ele>428.20001220703</ele>
        <time>2011-02-26T08:29:23.000Z</time>
      </trkpt>
      <trkpt lat="45.8039" lon="3.43707">
        <ele>427.20001220703</ele>
        <time>2011-02-26T08:29:29.000Z</time>
      </trkpt>
      <trkpt lat="45.80361" lon="3.43694">
        <ele>425.39999389648</ele>
        <time>2011-02-26T08:29:33.000Z</time>
      </trkpt>
      <trkpt lat="45.80322" lon="3.43679">
        <ele>424</ele>
        <time>2011-02-26T08:29:38.000Z</time>
      </trkpt>
      <trkpt lat="45.8031" lon="3.43673">
        <ele>423.20001220703</ele>
        <time>2011-02-26T08:29:40.000Z</time>
      </trkpt>
      <trkpt lat="45.80293" lon="3.43684">
        <ele>422.20001220703</ele>
        <time>2011-02-26T08:29:44.000Z</time>
      </trkpt>
      <trkpt lat="45.80263" lon="3.43732">
        <ele>421.39999389648</ele>
        <time>2011-02-26T08:29:52.000Z</time>
      </trkpt>
      <trkpt lat="45.80232" lon="3.43759">
        <ele>422</ele>
        <time>2011-02-26T08:29:58.000Z</time>
      </trkpt>
      <trkpt lat="45.80197" lon="3.43784">
        <ele>423</ele>
        <time>2011-02-26T08:30:05.000Z</time>
      </trkpt>
      <trkpt lat="45.8016" lon="3.43799">
        <ele>424.20001220703</ele>
        <time>2011-02-26T08:30:12.000Z</time>
      </trkpt>
      <trkpt lat="45.80132" lon="3.43812">
        <ele>424.39999389648</ele>
        <time>2011-02-26T08:30:17.000Z</time>
      </trkpt>
      <trkpt lat="45.80103" lon="3.43841">
        <ele>424.60000610352</ele>
        <time>2011-02-26T08:30:23.000Z</time>
      </trkpt>
      <trkpt lat="45.80084" lon="3.43882">
        <ele>425</ele>
        <time>2011-02-26T08:30:29.000Z</time>
      </trkpt>
      <trkpt lat="45.80069" lon="3.43924">
        <ele>425.60000610352</ele>
        <time>2011-02-26T08:30:35.000Z</time>
      </trkpt>
      <trkpt lat="45.80067" lon="3.43932">
        <ele>425.79998779297</ele>
        <time>2011-02-26T08:30:36.000Z</time>
      </trkpt>
      <trkpt lat="45.80054" lon="3.4397">
        <ele>427</ele>
        <time>2011-02-26T08:30:42.000Z</time>
      </trkpt>
      <trkpt lat="45.80044" lon="3.44004">
        <ele>427.79998779297</ele>
        <time>2011-02-26T08:30:47.000Z</time>
      </trkpt>
      <trkpt lat="45.80032" lon="3.44038">
        <ele>428.60000610352</ele>
        <time>2011-02-26T08:30:52.000Z</time>
      </trkpt>
      <trkpt lat="45.80029" lon="3.44044">
        <ele>428.60000610352</ele>
        <time>2011-02-26T08:30:53.000Z</time>
      </trkpt>
      <trkpt lat="45.80003" lon="3.44079">
        <ele>429.20001220703</ele>
        <time>2011-02-26T08:30:59.000Z</time>
      </trkpt>
      <trkpt lat="45.79979" lon="3.44116">
        <ele>429.79998779297</ele>
        <time>2011-02-26T08:31:05.000Z</time>
      </trkpt>
      <trkpt lat="45.79958" lon="3.4415">
        <ele>430.20001220703</ele>
        <time>2011-02-26T08:31:11.000Z</time>
      </trkpt>
      <trkpt lat="45.79935" lon="3.44182">
        <ele>430.60000610352</ele>
        <time>2011-02-26T08:31:17.000Z</time>
      </trkpt>
      <trkpt lat="45.79909" lon="3.44217">
        <ele>431</ele>
        <time>2011-02-26T08:31:23.000Z</time>
      </trkpt>
      <trkpt lat="45.79876" lon="3.44269">
        <ele>431.39999389648</ele>
        <time>2011-02-26T08:31:31.000Z</time>
      </trkpt>
      <trkpt lat="45.79844" lon="3.44315">
        <ele>430.39999389648</ele>
        <time>2011-02-26T08:31:38.000Z</time>
      </trkpt>
      <trkpt lat="45.79805" lon="3.44357">
        <ele>428.20001220703</ele>
        <time>2011-02-26T08:31:45.000Z</time>
      </trkpt>
      <trkpt lat="45.79752" lon="3.44393">
        <ele>427.20001220703</ele>
        <time>2011-02-26T08:31:53.000Z</time>
      </trkpt>
      <trkpt lat="45.79706" lon="3.44415">
        <ele>425.20001220703</ele>
        <time>2011-02-26T08:31:59.000Z</time>
      </trkpt>
      <trkpt lat="45.79669" lon="3.44446">
        <ele>422.79998779297</ele>
        <time>2011-02-26T08:32:04.000Z</time>
      </trkpt>
      <trkpt lat="45.79641" lon="3.44468">
        <ele>421.39999389648</ele>
        <time>2011-02-26T08:32:08.000Z</time>
      </trkpt>
      <trkpt lat="45.79614" lon="3.4447">
        <ele>421</ele>
        <time>2011-02-26T08:32:12.000Z</time>
      </trkpt>
      <trkpt lat="45.79608" lon="3.44467">
        <ele>421</ele>
        <time>2011-02-26T08:32:13.000Z</time>
      </trkpt>
      <trkpt lat="45.79598" lon="3.44461">
        <ele>420.39999389648</ele>
        <time>2011-02-26T08:32:16.000Z</time>
      </trkpt>
      <trkpt lat="45.79586" lon="3.44471">
        <ele>419.39999389648</ele>
        <time>2011-02-26T08:32:21.000Z</time>
      </trkpt>
      <trkpt lat="45.79585" lon="3.44476">
        <ele>419.20001220703</ele>
        <time>2011-02-26T08:32:22.000Z</time>
      </trkpt>
      <trkpt lat="45.79575" lon="3.44516">
        <ele>419.60000610352</ele>
        <time>2011-02-26T08:32:28.000Z</time>
      </trkpt>
      <trkpt lat="45.79561" lon="3.44579">
        <ele>420.20001220703</ele>
        <time>2011-02-26T08:32:36.000Z</time>
      </trkpt>
      <trkpt lat="45.79546" lon="3.44644">
        <ele>420.60000610352</ele>
        <time>2011-02-26T08:32:44.000Z</time>
      </trkpt>
      <trkpt lat="45.79524" lon="3.44737">
        <ele>420.79998779297</ele>
        <time>2011-02-26T08:32:55.000Z</time>
      </trkpt>
      <trkpt lat="45.79516" lon="3.44768">
        <ele>421</ele>
        <time>2011-02-26T08:32:59.000Z</time>
      </trkpt>
      <trkpt lat="45.79496" lon="3.44795">
        <ele>421.60000610352</ele>
        <time>2011-02-26T08:33:04.000Z</time>
      </trkpt>
      <trkpt lat="45.79466" lon="3.44831">
        <ele>423</ele>
        <time>2011-02-26T08:33:11.000Z</time>
      </trkpt>
      <trkpt lat="45.79425" lon="3.4486">
        <ele>424.20001220703</ele>
        <time>2011-02-26T08:33:19.000Z</time>
      </trkpt>
      <trkpt lat="45.79409" lon="3.44868">
        <ele>424.20001220703</ele>
        <time>2011-02-26T08:33:22.000Z</time>
      </trkpt>
      <trkpt lat="45.79387" lon="3.4487">
        <ele>424.79998779297</ele>
        <time>2011-02-26T08:33:26.000Z</time>
      </trkpt>
      <trkpt lat="45.79364" lon="3.44865">
        <ele>425</ele>
        <time>2011-02-26T08:33:30.000Z</time>
      </trkpt>
      <trkpt lat="45.79341" lon="3.44871">
        <ele>424.60000610352</ele>
        <time>2011-02-26T08:33:34.000Z</time>
      </trkpt>
      <trkpt lat="45.79331" lon="3.44876">
        <ele>424.20001220703</ele>
        <time>2011-02-26T08:33:36.000Z</time>
      </trkpt>
      <trkpt lat="45.79305" lon="3.44876">
        <ele>424.39999389648</ele>
        <time>2011-02-26T08:33:41.000Z</time>
      </trkpt>
      <trkpt lat="45.79273" lon="3.44856">
        <ele>423.60000610352</ele>
        <time>2011-02-26T08:33:46.000Z</time>
      </trkpt>
      <trkpt lat="45.79231" lon="3.44823">
        <ele>420.79998779297</ele>
        <time>2011-02-26T08:33:51.000Z</time>
      </trkpt>
      <trkpt lat="45.79178" lon="3.44786">
        <ele>418</ele>
        <time>2011-02-26T08:33:57.000Z</time>
      </trkpt>
      <trkpt lat="45.79159" lon="3.44778">
        <ele>417.20001220703</ele>
        <time>2011-02-26T08:33:59.000Z</time>
      </trkpt>
      <trkpt lat="45.79127" lon="3.44743">
        <ele>414.60000610352</ele>
        <time>2011-02-26T08:34:03.000Z</time>
      </trkpt>
      <trkpt lat="45.79112" lon="3.44699">
        <ele>412.20001220703</ele>
        <time>2011-02-26T08:34:06.000Z</time>
      </trkpt>
      <trkpt lat="45.79099" lon="3.4465">
        <ele>408.60000610352</ele>
        <time>2011-02-26T08:34:09.000Z</time>
      </trkpt>
      <trkpt lat="45.79066" lon="3.44588">
        <ele>403.79998779297</ele>
        <time>2011-02-26T08:34:13.000Z</time>
      </trkpt>
      <trkpt lat="45.79015" lon="3.44508">
        <ele>397</ele>
        <time>2011-02-26T08:34:19.000Z</time>
      </trkpt>
      <trkpt lat="45.78992" lon="3.44469">
        <ele>395.20001220703</ele>
        <time>2011-02-26T08:34:22.000Z</time>
      </trkpt>
      <trkpt lat="45.78944" lon="3.44402">
        <ele>391.39999389648</ele>
        <time>2011-02-26T08:34:28.000Z</time>
      </trkpt>
      <trkpt lat="45.78916" lon="3.44357">
        <ele>389.79998779297</ele>
        <time>2011-02-26T08:34:32.000Z</time>
      </trkpt>
      <trkpt lat="45.78911" lon="3.44345">
        <ele>389.39999389648</ele>
        <time>2011-02-26T08:34:33.000Z</time>
      </trkpt>
      <trkpt lat="45.78888" lon="3.44298">
        <ele>387.79998779297</ele>
        <time>2011-02-26T08:34:37.000Z</time>
      </trkpt>
      <trkpt lat="45.78873" lon="3.4428">
        <ele>387</ele>
        <time>2011-02-26T08:34:39.000Z</time>
      </trkpt>
      <trkpt lat="45.78834" lon="3.44247">
        <ele>385</ele>
        <time>2011-02-26T08:34:44.000Z</time>
      </trkpt>
      <trkpt lat="45.78798" lon="3.44214">
        <ele>383.79998779297</ele>
        <time>2011-02-26T08:34:49.000Z</time>
      </trkpt>
      <trkpt lat="45.78753" lon="3.44148">
        <ele>381.39999389648</ele>
        <time>2011-02-26T08:34:57.000Z</time>
      </trkpt>
      <trkpt lat="45.7873" lon="3.44095">
        <ele>380</ele>
        <time>2011-02-26T08:35:02.000Z</time>
      </trkpt>
      <trkpt lat="45.78693" lon="3.43999">
        <ele>377.39999389648</ele>
        <time>2011-02-26T08:35:11.000Z</time>
      </trkpt>
      <trkpt lat="45.78679" lon="3.43934">
        <ele>375.79998779297</ele>
        <time>2011-02-26T08:35:17.000Z</time>
      </trkpt>
      <trkpt lat="45.78659" lon="3.43819">
        <ele>374</ele>
        <time>2011-02-26T08:35:27.000Z</time>
      </trkpt>
      <trkpt lat="45.78636" lon="3.43694">
        <ele>372.20001220703</ele>
        <time>2011-02-26T08:35:38.000Z</time>
      </trkpt>
      <trkpt lat="45.78616" lon="3.43585">
        <ele>371.20001220703</ele>
        <time>2011-02-26T08:35:48.000Z</time>
      </trkpt>
      <trkpt lat="45.78597" lon="3.43487">
        <ele>369</ele>
        <time>2011-02-26T08:35:57.000Z</time>
      </trkpt>
      <trkpt lat="45.78594" lon="3.43476">
        <ele>368.60000610352</ele>
        <time>2011-02-26T08:35:58.000Z</time>
      </trkpt>
      <trkpt lat="45.78567" lon="3.43407">
        <ele>367.60000610352</ele>
        <time>2011-02-26T08:36:05.000Z</time>
      </trkpt>
      <trkpt lat="45.78554" lon="3.43343">
        <ele>366.60000610352</ele>
        <time>2011-02-26T08:36:11.000Z</time>
      </trkpt>
      <trkpt lat="45.78536" lon="3.43304">
        <ele>365.20001220703</ele>
        <time>2011-02-26T08:36:15.000Z</time>
      </trkpt>
      <trkpt lat="45.78523" lon="3.43291">
        <ele>365.20001220703</ele>
        <time>2011-02-26T08:36:17.000Z</time>
      </trkpt>
      <trkpt lat="45.78502" lon="3.43275">
        <ele>365.20001220703</ele>
        <time>2011-02-26T08:36:20.000Z</time>
      </trkpt>
      <trkpt lat="45.78481" lon="3.43243">
        <ele>365</ele>
        <time>2011-02-26T08:36:24.000Z</time>
      </trkpt>
      <trkpt lat="45.78445" lon="3.43144">
        <ele>364</ele>
        <time>2011-02-26T08:36:34.000Z</time>
      </trkpt>
      <trkpt lat="45.78407" lon="3.43077">
        <ele>363.20001220703</ele>
        <time>2011-02-26T08:36:42.000Z</time>
      </trkpt>
      <trkpt lat="45.78377" lon="3.43044">
        <ele>362.60000610352</ele>
        <time>2011-02-26T08:36:47.000Z</time>
      </trkpt>
      <trkpt lat="45.78324" lon="3.43">
        <ele>363</ele>
        <time>2011-02-26T08:36:55.000Z</time>
      </trkpt>
      <trkpt lat="45.78304" lon="3.42983">
        <ele>362.79998779297</ele>
        <time>2011-02-26T08:36:58.000Z</time>
      </trkpt>
      <trkpt lat="45.78285" lon="3.42952">
        <ele>363</ele>
        <time>2011-02-26T08:37:02.000Z</time>
      </trkpt>
      <trkpt lat="45.78282" lon="3.42922">
        <ele>362.39999389648</ele>
        <time>2011-02-26T08:37:05.000Z</time>
      </trkpt>
      <trkpt lat="45.78282" lon="3.42903">
        <ele>362</ele>
        <time>2011-02-26T08:37:07.000Z</time>
      </trkpt>
      <trkpt lat="45.78283" lon="3.42885">
        <ele>361.39999389648</ele>
        <time>2011-02-26T08:37:09.000Z</time>
      </trkpt>
      <trkpt lat="45.78274" lon="3.42858">
        <ele>361.20001220703</ele>
        <time>2011-02-26T08:37:13.000Z</time>
      </trkpt>
      <trkpt lat="45.78263" lon="3.42853">
        <ele>361.20001220703</ele>
        <time>2011-02-26T08:37:15.000Z</time>
      </trkpt>
      <trkpt lat="45.78228" lon="3.42845">
        <ele>360.39999389648</ele>
        <time>2011-02-26T08:37:21.000Z</time>
      </trkpt>
      <trkpt lat="45.78204" lon="3.42854">
        <ele>359.60000610352</ele>
        <time>2011-02-26T08:37:25.000Z</time>
      </trkpt>
      <trkpt lat="45.78201" lon="3.42862">
        <ele>359.39999389648</ele>
        <time>2011-02-26T08:37:26.000Z</time>
      </trkpt>
      <trkpt lat="45.78178" lon="3.42934">
        <ele>360.20001220703</ele>
        <time>2011-02-26T08:37:35.000Z</time>
      </trkpt>
      <trkpt lat="45.78147" lon="3.43034">
        <ele>361.39999389648</ele>
        <time>2011-02-26T08:37:47.000Z</time>
      </trkpt>
      <trkpt lat="45.78109" lon="3.4315">
        <ele>362.79998779297</ele>
        <time>2011-02-26T08:38:01.000Z</time>
      </trkpt>
      <trkpt lat="45.78076" lon="3.43253">
        <ele>363.79998779297</ele>
        <time>2011-02-26T08:38:13.000Z</time>
      </trkpt>
      <trkpt lat="45.78044" lon="3.43352">
        <ele>364.60000610352</ele>
        <time>2011-02-26T08:38:25.000Z</time>
      </trkpt>
      <trkpt lat="45.78018" lon="3.43432">
        <ele>365.79998779297</ele>
        <time>2011-02-26T08:38:35.000Z</time>
      </trkpt>
      <trkpt lat="45.78007" lon="3.43483">
        <ele>366.60000610352</ele>
        <time>2011-02-26T08:38:41.000Z</time>
      </trkpt>
      <trkpt lat="45.78001" lon="3.43531">
        <ele>367</ele>
        <time>2011-02-26T08:38:47.000Z</time>
      </trkpt>
      <trkpt lat="45.7799" lon="3.4356">
        <ele>367.39999389648</ele>
        <time>2011-02-26T08:38:52.000Z</time>
      </trkpt>
      <trkpt lat="45.77987" lon="3.43564">
        <ele>367.60000610352</ele>
        <time>2011-02-26T08:38:53.000Z</time>
      </trkpt>
      <trkpt lat="45.77966" lon="3.43592">
        <ele>367.79998779297</ele>
        <time>2011-02-26T08:39:01.000Z</time>
      </trkpt>
      <trkpt lat="45.77952" lon="3.43635">
        <ele>367.60000610352</ele>
        <time>2011-02-26T08:39:08.000Z</time>
      </trkpt>
      <trkpt lat="45.77927" lon="3.43704">
        <ele>367.79998779297</ele>
        <time>2011-02-26T08:39:17.000Z</time>
      </trkpt>
      <trkpt lat="45.77888" lon="3.43756">
        <ele>368.39999389648</ele>
        <time>2011-02-26T08:39:25.000Z</time>
      </trkpt>
      <trkpt lat="45.7782" lon="3.43838">
        <ele>369</ele>
        <time>2011-02-26T08:39:38.000Z</time>
      </trkpt>
      <trkpt lat="45.7775" lon="3.43924">
        <ele>369.60000610352</ele>
        <time>2011-02-26T08:39:52.000Z</time>
      </trkpt>
      <trkpt lat="45.7767" lon="3.4402">
        <ele>370.60000610352</ele>
        <time>2011-02-26T08:40:08.000Z</time>
      </trkpt>
      <trkpt lat="45.77614" lon="3.44089">
        <ele>370.39999389648</ele>
        <time>2011-02-26T08:40:19.000Z</time>
      </trkpt>
      <trkpt lat="45.77583" lon="3.44126">
        <ele>371.60000610352</ele>
        <time>2011-02-26T08:40:26.000Z</time>
      </trkpt>
      <trkpt lat="45.77543" lon="3.44173">
        <ele>372.79998779297</ele>
        <time>2011-02-26T08:40:35.000Z</time>
      </trkpt>
      <trkpt lat="45.77486" lon="3.44244">
        <ele>374.79998779297</ele>
        <time>2011-02-26T08:40:48.000Z</time>
      </trkpt>
      <trkpt lat="45.77428" lon="3.44314">
        <ele>376.20001220703</ele>
        <time>2011-02-26T08:41:01.000Z</time>
      </trkpt>
      <trkpt lat="45.77378" lon="3.44373">
        <ele>377.20001220703</ele>
        <time>2011-02-26T08:41:12.000Z</time>
      </trkpt>
      <trkpt lat="45.77324" lon="3.44439">
        <ele>377.20001220703</ele>
        <time>2011-02-26T08:41:23.000Z</time>
      </trkpt>
      <trkpt lat="45.77272" lon="3.44503">
        <ele>378.60000610352</ele>
        <time>2011-02-26T08:41:34.000Z</time>
      </trkpt>
      <trkpt lat="45.77222" lon="3.44564">
        <ele>380</ele>
        <time>2011-02-26T08:41:46.000Z</time>
      </trkpt>
      <trkpt lat="45.77178" lon="3.44617">
        <ele>382</ele>
        <time>2011-02-26T08:41:57.000Z</time>
      </trkpt>
      <trkpt lat="45.77143" lon="3.4466">
        <ele>383</ele>
        <time>2011-02-26T08:42:06.000Z</time>
      </trkpt>
      <trkpt lat="45.77098" lon="3.44715">
        <ele>384.20001220703</ele>
        <time>2011-02-26T08:42:17.000Z</time>
      </trkpt>
      <trkpt lat="45.77054" lon="3.44769">
        <ele>385.79998779297</ele>
        <time>2011-02-26T08:42:28.000Z</time>
      </trkpt>
      <trkpt lat="45.77007" lon="3.44825">
        <ele>387.60000610352</ele>
        <time>2011-02-26T08:42:40.000Z</time>
      </trkpt>
      <trkpt lat="45.76967" lon="3.44874">
        <ele>389</ele>
        <time>2011-02-26T08:42:50.000Z</time>
      </trkpt>
      <trkpt lat="45.76927" lon="3.44923">
        <ele>390.60000610352</ele>
        <time>2011-02-26T08:43:00.000Z</time>
      </trkpt>
      <trkpt lat="45.76882" lon="3.44976">
        <ele>391.60000610352</ele>
        <time>2011-02-26T08:43:11.000Z</time>
      </trkpt>
      <trkpt lat="45.76842" lon="3.45024">
        <ele>393</ele>
        <time>2011-02-26T08:43:21.000Z</time>
      </trkpt>
      <trkpt lat="45.76806" lon="3.45067">
        <ele>395.39999389648</ele>
        <time>2011-02-26T08:43:31.000Z</time>
      </trkpt>
      <trkpt lat="45.76786" lon="3.45092">
        <ele>396.39999389648</ele>
        <time>2011-02-26T08:43:38.000Z</time>
      </trkpt>
      <trkpt lat="45.76771" lon="3.45112">
        <ele>397.60000610352</ele>
        <time>2011-02-26T08:43:44.000Z</time>
      </trkpt>
      <trkpt lat="45.76752" lon="3.45134">
        <ele>398.60000610352</ele>
        <time>2011-02-26T08:43:50.000Z</time>
      </trkpt>
      <trkpt lat="45.76723" lon="3.45168">
        <ele>400.79998779297</ele>
        <time>2011-02-26T08:44:00.000Z</time>
      </trkpt>
      <trkpt lat="45.76696" lon="3.45201">
        <ele>402.60000610352</ele>
        <time>2011-02-26T08:44:10.000Z</time>
      </trkpt>
      <trkpt lat="45.7667" lon="3.45232">
        <ele>404.79998779297</ele>
        <time>2011-02-26T08:44:20.000Z</time>
      </trkpt>
      <trkpt lat="45.76644" lon="3.45257">
        <ele>407.20001220703</ele>
        <time>2011-02-26T08:44:29.000Z</time>
      </trkpt>
      <trkpt lat="45.76624" lon="3.45262">
        <ele>408.60000610352</ele>
        <time>2011-02-26T08:44:35.000Z</time>
      </trkpt>
      <trkpt lat="45.76599" lon="3.45256">
        <ele>410</ele>
        <time>2011-02-26T08:44:42.000Z</time>
      </trkpt>
      <trkpt lat="45.76571" lon="3.45248">
        <ele>411.20001220703</ele>
        <time>2011-02-26T08:44:49.000Z</time>
      </trkpt>
      <trkpt lat="45.76567" lon="3.45246">
        <ele>411.60000610352</ele>
        <time>2011-02-26T08:44:50.000Z</time>
      </trkpt>
      <trkpt lat="45.7653" lon="3.45236">
        <ele>411.79998779297</ele>
        <time>2011-02-26T08:44:59.000Z</time>
      </trkpt>
      <trkpt lat="45.76496" lon="3.45226">
        <ele>414</ele>
        <time>2011-02-26T08:45:08.000Z</time>
      </trkpt>
      <trkpt lat="45.76459" lon="3.45215">
        <ele>415.60000610352</ele>
        <time>2011-02-26T08:45:18.000Z</time>
      </trkpt>
      <trkpt lat="45.76428" lon="3.45208">
        <ele>417.39999389648</ele>
        <time>2011-02-26T08:45:27.000Z</time>
      </trkpt>
      <trkpt lat="45.76407" lon="3.45202">
        <ele>419.39999389648</ele>
        <time>2011-02-26T08:45:34.000Z</time>
      </trkpt>
      <trkpt lat="45.76383" lon="3.45189">
        <ele>421.60000610352</ele>
        <time>2011-02-26T08:45:42.000Z</time>
      </trkpt>
      <trkpt lat="45.76353" lon="3.45171">
        <ele>423</ele>
        <time>2011-02-26T08:45:51.000Z</time>
      </trkpt>
      <trkpt lat="45.76326" lon="3.45156">
        <ele>424.60000610352</ele>
        <time>2011-02-26T08:45:58.000Z</time>
      </trkpt>
      <trkpt lat="45.76298" lon="3.4515">
        <ele>425.60000610352</ele>
        <time>2011-02-26T08:46:05.000Z</time>
      </trkpt>
      <trkpt lat="45.76254" lon="3.45144">
        <ele>426.39999389648</ele>
        <time>2011-02-26T08:46:15.000Z</time>
      </trkpt>
      <trkpt lat="45.76211" lon="3.45137">
        <ele>427.79998779297</ele>
        <time>2011-02-26T08:46:25.000Z</time>
      </trkpt>
      <trkpt lat="45.76164" lon="3.4513">
        <ele>430</ele>
        <time>2011-02-26T08:46:36.000Z</time>
      </trkpt>
      <trkpt lat="45.76128" lon="3.45126">
        <ele>430.39999389648</ele>
        <time>2011-02-26T08:46:44.000Z</time>
      </trkpt>
      <trkpt lat="45.76092" lon="3.45124">
        <ele>431.20001220703</ele>
        <time>2011-02-26T08:46:52.000Z</time>
      </trkpt>
      <trkpt lat="45.76088" lon="3.45125">
        <ele>431.39999389648</ele>
        <time>2011-02-26T08:46:53.000Z</time>
      </trkpt>
      <trkpt lat="45.76049" lon="3.45142">
        <ele>432.20001220703</ele>
        <time>2011-02-26T08:47:02.000Z</time>
      </trkpt>
      <trkpt lat="45.76011" lon="3.45154">
        <ele>432.79998779297</ele>
        <time>2011-02-26T08:47:10.000Z</time>
      </trkpt>
      <trkpt lat="45.76" lon="3.45157">
        <ele>433</ele>
        <time>2011-02-26T08:47:12.000Z</time>
      </trkpt>
      <trkpt lat="45.7598" lon="3.45169">
        <ele>433.20001220703</ele>
        <time>2011-02-26T08:47:16.000Z</time>
      </trkpt>
      <trkpt lat="45.75939" lon="3.45201">
        <ele>434</ele>
        <time>2011-02-26T08:47:25.000Z</time>
      </trkpt>
      <trkpt lat="45.75907" lon="3.45219">
        <ele>435.39999389648</ele>
        <time>2011-02-26T08:47:33.000Z</time>
      </trkpt>
      <trkpt lat="45.75869" lon="3.45234">
        <ele>436.79998779297</ele>
        <time>2011-02-26T08:47:42.000Z</time>
      </trkpt>
      <trkpt lat="45.75831" lon="3.45244">
        <ele>438</ele>
        <time>2011-02-26T08:47:51.000Z</time>
      </trkpt>
      <trkpt lat="45.75799" lon="3.45249">
        <ele>439.60000610352</ele>
        <time>2011-02-26T08:47:59.000Z</time>
      </trkpt>
      <trkpt lat="45.7577" lon="3.4525">
        <ele>441.20001220703</ele>
        <time>2011-02-26T08:48:07.000Z</time>
      </trkpt>
      <trkpt lat="45.75755" lon="3.45244">
        <ele>442.60000610352</ele>
        <time>2011-02-26T08:48:12.000Z</time>
      </trkpt>
      <trkpt lat="45.75734" lon="3.45227">
        <ele>443.60000610352</ele>
        <time>2011-02-26T08:48:19.000Z</time>
      </trkpt>
      <trkpt lat="45.75708" lon="3.45216">
        <ele>445.60000610352</ele>
        <time>2011-02-26T08:48:27.000Z</time>
      </trkpt>
      <trkpt lat="45.75692" lon="3.45206">
        <ele>446.79998779297</ele>
        <time>2011-02-26T08:48:33.000Z</time>
      </trkpt>
      <trkpt lat="45.75676" lon="3.45196">
        <ele>448.60000610352</ele>
        <time>2011-02-26T08:48:39.000Z</time>
      </trkpt>
      <trkpt lat="45.75662" lon="3.45184">
        <ele>449.79998779297</ele>
        <time>2011-02-26T08:48:44.000Z</time>
      </trkpt>
      <trkpt lat="45.75644" lon="3.45174">
        <ele>451.39999389648</ele>
        <time>2011-02-26T08:48:50.000Z</time>
      </trkpt>
      <trkpt lat="45.75624" lon="3.45165">
        <ele>452.79998779297</ele>
        <time>2011-02-26T08:48:57.000Z</time>
      </trkpt>
      <trkpt lat="45.75604" lon="3.45156">
        <ele>454.39999389648</ele>
        <time>2011-02-26T08:49:03.000Z</time>
      </trkpt>
      <trkpt lat="45.75587" lon="3.45151">
        <ele>456.20001220703</ele>
        <time>2011-02-26T08:49:09.000Z</time>
      </trkpt>
      <trkpt lat="45.75567" lon="3.45145">
        <ele>458.20001220703</ele>
        <time>2011-02-26T08:49:16.000Z</time>
      </trkpt>
      <trkpt lat="45.75549" lon="3.45141">
        <ele>459.60000610352</ele>
        <time>2011-02-26T08:49:22.000Z</time>
      </trkpt>
      <trkpt lat="45.7553" lon="3.4514">
        <ele>460.79998779297</ele>
        <time>2011-02-26T08:49:28.000Z</time>
      </trkpt>
      <trkpt lat="45.75507" lon="3.45144">
        <ele>462.60000610352</ele>
        <time>2011-02-26T08:49:35.000Z</time>
      </trkpt>
      <trkpt lat="45.75482" lon="3.45153">
        <ele>464.39999389648</ele>
        <time>2011-02-26T08:49:43.000Z</time>
      </trkpt>
      <trkpt lat="45.75464" lon="3.45165">
        <ele>466.20001220703</ele>
        <time>2011-02-26T08:49:49.000Z</time>
      </trkpt>
      <trkpt lat="45.75447" lon="3.45187">
        <ele>468</ele>
        <time>2011-02-26T08:49:56.000Z</time>
      </trkpt>
      <trkpt lat="45.75436" lon="3.45221">
        <ele>470</ele>
        <time>2011-02-26T08:50:04.000Z</time>
      </trkpt>
      <trkpt lat="45.75427" lon="3.45261">
        <ele>471.79998779297</ele>
        <time>2011-02-26T08:50:13.000Z</time>
      </trkpt>
      <trkpt lat="45.75422" lon="3.45294">
        <ele>473.60000610352</ele>
        <time>2011-02-26T08:50:20.000Z</time>
      </trkpt>
      <trkpt lat="45.75421" lon="3.45311">
        <ele>474</ele>
        <time>2011-02-26T08:50:23.000Z</time>
      </trkpt>
      <trkpt lat="45.75427" lon="3.45347">
        <ele>474.39999389648</ele>
        <time>2011-02-26T08:50:29.000Z</time>
      </trkpt>
      <trkpt lat="45.75428" lon="3.45361">
        <ele>474.39999389648</ele>
        <time>2011-02-26T08:50:31.000Z</time>
      </trkpt>
      <trkpt lat="45.75415" lon="3.45393">
        <ele>473.79998779297</ele>
        <time>2011-02-26T08:50:36.000Z</time>
      </trkpt>
      <trkpt lat="45.75403" lon="3.45429">
        <ele>473</ele>
        <time>2011-02-26T08:50:41.000Z</time>
      </trkpt>
      <trkpt lat="45.75387" lon="3.45504">
        <ele>472.20001220703</ele>
        <time>2011-02-26T08:50:50.000Z</time>
      </trkpt>
      <trkpt lat="45.75363" lon="3.45552">
        <ele>472.20001220703</ele>
        <time>2011-02-26T08:50:57.000Z</time>
      </trkpt>
      <trkpt lat="45.7534" lon="3.45567">
        <ele>471.79998779297</ele>
        <time>2011-02-26T08:51:01.000Z</time>
      </trkpt>
      <trkpt lat="45.75281" lon="3.4557">
        <ele>471.79998779297</ele>
        <time>2011-02-26T08:51:10.000Z</time>
      </trkpt>
      <trkpt lat="45.75257" lon="3.45574">
        <ele>472.39999389648</ele>
        <time>2011-02-26T08:51:15.000Z</time>
      </trkpt>
      <trkpt lat="45.75233" lon="3.45576">
        <ele>473.79998779297</ele>
        <time>2011-02-26T08:51:21.000Z</time>
      </trkpt>
      <trkpt lat="45.752" lon="3.4558">
        <ele>476</ele>
        <time>2011-02-26T08:51:29.000Z</time>
      </trkpt>
      <trkpt lat="45.75164" lon="3.45584">
        <ele>477.79998779297</ele>
        <time>2011-02-26T08:51:37.000Z</time>
      </trkpt>
      <trkpt lat="45.75124" lon="3.45587">
        <ele>478.39999389648</ele>
        <time>2011-02-26T08:51:45.000Z</time>
      </trkpt>
      <trkpt lat="45.75081" lon="3.45591">
        <ele>478.39999389648</ele>
        <time>2011-02-26T08:51:53.000Z</time>
      </trkpt>
      <trkpt lat="45.7503" lon="3.45597">
        <ele>478.39999389648</ele>
        <time>2011-02-26T08:52:02.000Z</time>
      </trkpt>
      <trkpt lat="45.74986" lon="3.456">
        <ele>477.20001220703</ele>
        <time>2011-02-26T08:52:09.000Z</time>
      </trkpt>
      <trkpt lat="45.74919" lon="3.45605">
        <ele>475.39999389648</ele>
        <time>2011-02-26T08:52:19.000Z</time>
      </trkpt>
      <trkpt lat="45.74868" lon="3.4561">
        <ele>474.60000610352</ele>
        <time>2011-02-26T08:52:27.000Z</time>
      </trkpt>
      <trkpt lat="45.74807" lon="3.45616">
        <ele>474</ele>
        <time>2011-02-26T08:52:37.000Z</time>
      </trkpt>
      <trkpt lat="45.74762" lon="3.45622">
        <ele>474</ele>
        <time>2011-02-26T08:52:45.000Z</time>
      </trkpt>
      <trkpt lat="45.74754" lon="3.45624">
        <ele>474</ele>
        <time>2011-02-26T08:52:47.000Z</time>
      </trkpt>
      <trkpt lat="45.7475" lon="3.45621">
        <ele>473.79998779297</ele>
        <time>2011-02-26T08:52:51.000Z</time>
      </trkpt>
      <trkpt lat="45.7475" lon="3.45619">
        <ele>473.60000610352</ele>
        <time>2011-02-26T08:52:56.000Z</time>
      </trkpt>
      <trkpt lat="45.74755" lon="3.4562">
        <ele>472.79998779297</ele>
        <time>2011-02-26T08:54:13.000Z</time>
      </trkpt>
      <trkpt lat="45.74753" lon="3.4562">
        <ele>472.79998779297</ele>
        <time>2011-02-26T08:54:15.000Z</time>
      </trkpt>
      <trkpt lat="45.74741" lon="3.45621">
        <ele>473.20001220703</ele>
        <time>2011-02-26T08:54:21.000Z</time>
      </trkpt>
      <trkpt lat="45.74735" lon="3.45622">
        <ele>473.20001220703</ele>
        <time>2011-02-26T08:54:23.000Z</time>
      </trkpt>
      <trkpt lat="45.747" lon="3.45625">
        <ele>474.39999389648</ele>
        <time>2011-02-26T08:54:31.000Z</time>
      </trkpt>
      <trkpt lat="45.7467" lon="3.45629">
        <ele>475.39999389648</ele>
        <time>2011-02-26T08:54:37.000Z</time>
      </trkpt>
      <trkpt lat="45.74618" lon="3.45635">
        <ele>476.39999389648</ele>
        <time>2011-02-26T08:54:47.000Z</time>
      </trkpt>
      <trkpt lat="45.74577" lon="3.4564">
        <ele>476</ele>
        <time>2011-02-26T08:54:54.000Z</time>
      </trkpt>
      <trkpt lat="45.74554" lon="3.45631">
        <ele>476</ele>
        <time>2011-02-26T08:54:58.000Z</time>
      </trkpt>
      <trkpt lat="45.74546" lon="3.45606">
        <ele>475.79998779297</ele>
        <time>2011-02-26T08:55:01.000Z</time>
      </trkpt>
      <trkpt lat="45.74539" lon="3.45522">
        <ele>475</ele>
        <time>2011-02-26T08:55:10.000Z</time>
      </trkpt>
      <trkpt lat="45.74542" lon="3.45463">
        <ele>474.39999389648</ele>
        <time>2011-02-26T08:55:16.000Z</time>
      </trkpt>
      <trkpt lat="45.74554" lon="3.45385">
        <ele>474.60000610352</ele>
        <time>2011-02-26T08:55:25.000Z</time>
      </trkpt>
      <trkpt lat="45.7457" lon="3.45342">
        <ele>474.39999389648</ele>
        <time>2011-02-26T08:55:30.000Z</time>
      </trkpt>
      <trkpt lat="45.74611" lon="3.45251">
        <ele>472</ele>
        <time>2011-02-26T08:55:40.000Z</time>
      </trkpt>
      <trkpt lat="45.74641" lon="3.45219">
        <ele>470.79998779297</ele>
        <time>2011-02-26T08:55:45.000Z</time>
      </trkpt>
      <trkpt lat="45.74708" lon="3.45185">
        <ele>468.20001220703</ele>
        <time>2011-02-26T08:55:54.000Z</time>
      </trkpt>
      <trkpt lat="45.74723" lon="3.45175">
        <ele>467.60000610352</ele>
        <time>2011-02-26T08:55:56.000Z</time>
      </trkpt>
      <trkpt lat="45.74754" lon="3.45134">
        <ele>465.79998779297</ele>
        <time>2011-02-26T08:56:01.000Z</time>
      </trkpt>
      <trkpt lat="45.74759" lon="3.45096">
        <ele>464.60000610352</ele>
        <time>2011-02-26T08:56:04.000Z</time>
      </trkpt>
      <trkpt lat="45.74749" lon="3.45057">
        <ele>462.79998779297</ele>
        <time>2011-02-26T08:56:07.000Z</time>
      </trkpt>
      <trkpt lat="45.74706" lon="3.44936">
        <ele>457</ele>
        <time>2011-02-26T08:56:16.000Z</time>
      </trkpt>
      <trkpt lat="45.74678" lon="3.44902">
        <ele>454.79998779297</ele>
        <time>2011-02-26T08:56:19.000Z</time>
      </trkpt>
      <trkpt lat="45.74667" lon="3.44896">
        <ele>454</ele>
        <time>2011-02-26T08:56:20.000Z</time>
      </trkpt>
      <trkpt lat="45.74645" lon="3.44885">
        <ele>452.60000610352</ele>
        <time>2011-02-26T08:56:22.000Z</time>
      </trkpt>
      <trkpt lat="45.74619" lon="3.44837">
        <ele>448.79998779297</ele>
        <time>2011-02-26T08:56:26.000Z</time>
      </trkpt>
      <trkpt lat="45.74623" lon="3.44804">
        <ele>447.20001220703</ele>
        <time>2011-02-26T08:56:28.000Z</time>
      </trkpt>
      <trkpt lat="45.7464" lon="3.44787">
        <ele>445.79998779297</ele>
        <time>2011-02-26T08:56:30.000Z</time>
      </trkpt>
      <trkpt lat="45.74656" lon="3.44775">
        <ele>445.39999389648</ele>
        <time>2011-02-26T08:56:32.000Z</time>
      </trkpt>
      <trkpt lat="45.74673" lon="3.4476">
        <ele>446</ele>
        <time>2011-02-26T08:56:35.000Z</time>
      </trkpt>
      <trkpt lat="45.74702" lon="3.44746">
        <ele>447.79998779297</ele>
        <time>2011-02-26T08:56:41.000Z</time>
      </trkpt>
      <trkpt lat="45.74727" lon="3.44741">
        <ele>449</ele>
        <time>2011-02-26T08:56:47.000Z</time>
      </trkpt>
      <trkpt lat="45.7475" lon="3.44743">
        <ele>451</ele>
        <time>2011-02-26T08:56:53.000Z</time>
      </trkpt>
      <trkpt lat="45.74768" lon="3.44743">
        <ele>452.39999389648</ele>
        <time>2011-02-26T08:56:57.000Z</time>
      </trkpt>
      <trkpt lat="45.74799" lon="3.44741">
        <ele>453.39999389648</ele>
        <time>2011-02-26T08:57:03.000Z</time>
      </trkpt>
      <trkpt lat="45.74836" lon="3.44735">
        <ele>454.39999389648</ele>
        <time>2011-02-26T08:57:10.000Z</time>
      </trkpt>
      <trkpt lat="45.74866" lon="3.44727">
        <ele>455.60000610352</ele>
        <time>2011-02-26T08:57:16.000Z</time>
      </trkpt>
      <trkpt lat="45.74891" lon="3.44703">
        <ele>456.79998779297</ele>
        <time>2011-02-26T08:57:22.000Z</time>
      </trkpt>
      <trkpt lat="45.74908" lon="3.44669">
        <ele>457.60000610352</ele>
        <time>2011-02-26T08:57:28.000Z</time>
      </trkpt>
      <trkpt lat="45.74919" lon="3.44622">
        <ele>457.20001220703</ele>
        <time>2011-02-26T08:57:34.000Z</time>
      </trkpt>
      <trkpt lat="45.74932" lon="3.44554">
        <ele>455.20001220703</ele>
        <time>2011-02-26T08:57:41.000Z</time>
      </trkpt>
      <trkpt lat="45.74947" lon="3.44473">
        <ele>452.79998779297</ele>
        <time>2011-02-26T08:57:48.000Z</time>
      </trkpt>
      <trkpt lat="45.74968" lon="3.44415">
        <ele>450.39999389648</ele>
        <time>2011-02-26T08:57:53.000Z</time>
      </trkpt>
      <trkpt lat="45.74997" lon="3.44342">
        <ele>448.20001220703</ele>
        <time>2011-02-26T08:57:59.000Z</time>
      </trkpt>
      <trkpt lat="45.75002" lon="3.44301">
        <ele>446.60000610352</ele>
        <time>2011-02-26T08:58:02.000Z</time>
      </trkpt>
      <trkpt lat="45.74989" lon="3.44276">
        <ele>445.20001220703</ele>
        <time>2011-02-26T08:58:04.000Z</time>
      </trkpt>
      <trkpt lat="45.7497" lon="3.44263">
        <ele>443.60000610352</ele>
        <time>2011-02-26T08:58:06.000Z</time>
      </trkpt>
      <trkpt lat="45.7495" lon="3.44252">
        <ele>442.20001220703</ele>
        <time>2011-02-26T08:58:08.000Z</time>
      </trkpt>
      <trkpt lat="45.74926" lon="3.44219">
        <ele>440.39999389648</ele>
        <time>2011-02-26T08:58:11.000Z</time>
      </trkpt>
      <trkpt lat="45.7493" lon="3.44192">
        <ele>439.39999389648</ele>
        <time>2011-02-26T08:58:13.000Z</time>
      </trkpt>
      <trkpt lat="45.74936" lon="3.44181">
        <ele>439</ele>
        <time>2011-02-26T08:58:14.000Z</time>
      </trkpt>
      <trkpt lat="45.74942" lon="3.44172">
        <ele>438.79998779297</ele>
        <time>2011-02-26T08:58:15.000Z</time>
      </trkpt>
      <trkpt lat="45.74959" lon="3.44152">
        <ele>439</ele>
        <time>2011-02-26T08:58:18.000Z</time>
      </trkpt>
      <trkpt lat="45.74974" lon="3.4414">
        <ele>439.79998779297</ele>
        <time>2011-02-26T08:58:21.000Z</time>
      </trkpt>
      <trkpt lat="45.74996" lon="3.44126">
        <ele>441</ele>
        <time>2011-02-26T08:58:27.000Z</time>
      </trkpt>
      <trkpt lat="45.75005" lon="3.44118">
        <ele>441.60000610352</ele>
        <time>2011-02-26T08:58:31.000Z</time>
      </trkpt>
      <trkpt lat="45.75006" lon="3.44121">
        <ele>442</ele>
        <time>2011-02-26T08:58:35.000Z</time>
      </trkpt>
      <trkpt lat="45.75006" lon="3.44117">
        <ele>442</ele>
        <time>2011-02-26T08:59:34.000Z</time>
      </trkpt>
      <trkpt lat="45.75016" lon="3.44099">
        <ele>442.60000610352</ele>
        <time>2011-02-26T08:59:40.000Z</time>
      </trkpt>
      <trkpt lat="45.75016" lon="3.44076">
        <ele>443.79998779297</ele>
        <time>2011-02-26T08:59:45.000Z</time>
      </trkpt>
      <trkpt lat="45.75007" lon="3.44051">
        <ele>444.60000610352</ele>
        <time>2011-02-26T08:59:50.000Z</time>
      </trkpt>
      <trkpt lat="45.74998" lon="3.44037">
        <ele>445</ele>
        <time>2011-02-26T08:59:53.000Z</time>
      </trkpt>
      <trkpt lat="45.74965" lon="3.43985">
        <ele>445.79998779297</ele>
        <time>2011-02-26T09:00:04.000Z</time>
      </trkpt>
      <trkpt lat="45.7495" lon="3.43966">
        <ele>446.20001220703</ele>
        <time>2011-02-26T09:00:10.000Z</time>
      </trkpt>
      <trkpt lat="45.7495" lon="3.43965">
        <ele>446.20001220703</ele>
        <time>2011-02-26T09:00:12.000Z</time>
      </trkpt>
      <trkpt lat="45.74939" lon="3.43957">
        <ele>446</ele>
        <time>2011-02-26T09:01:10.000Z</time>
      </trkpt>
      <trkpt lat="45.74914" lon="3.43928">
        <ele>446</ele>
        <time>2011-02-26T09:01:17.000Z</time>
      </trkpt>
      <trkpt lat="45.74884" lon="3.43892">
        <ele>445</ele>
        <time>2011-02-26T09:01:23.000Z</time>
      </trkpt>
      <trkpt lat="45.74847" lon="3.43848">
        <ele>442.20001220703</ele>
        <time>2011-02-26T09:01:29.000Z</time>
      </trkpt>
      <trkpt lat="45.74785" lon="3.43773">
        <ele>437.79998779297</ele>
        <time>2011-02-26T09:01:38.000Z</time>
      </trkpt>
      <trkpt lat="45.74778" lon="3.43764">
        <ele>437.60000610352</ele>
        <time>2011-02-26T09:01:39.000Z</time>
      </trkpt>
      <trkpt lat="45.74759" lon="3.43738">
        <ele>436.60000610352</ele>
        <time>2011-02-26T09:01:42.000Z</time>
      </trkpt>
      <trkpt lat="45.74726" lon="3.4372">
        <ele>435.79998779297</ele>
        <time>2011-02-26T09:01:46.000Z</time>
      </trkpt>
      <trkpt lat="45.74649" lon="3.43717">
        <ele>432</ele>
        <time>2011-02-26T09:01:54.000Z</time>
      </trkpt>
      <trkpt lat="45.74618" lon="3.43708">
        <ele>430</ele>
        <time>2011-02-26T09:01:57.000Z</time>
      </trkpt>
      <trkpt lat="45.74587" lon="3.43679">
        <ele>427.79998779297</ele>
        <time>2011-02-26T09:02:01.000Z</time>
      </trkpt>
      <trkpt lat="45.74569" lon="3.43645">
        <ele>426.79998779297</ele>
        <time>2011-02-26T09:02:05.000Z</time>
      </trkpt>
      <trkpt lat="45.74552" lon="3.43629">
        <ele>427.60000610352</ele>
        <time>2011-02-26T09:02:09.000Z</time>
      </trkpt>
      <trkpt lat="45.74531" lon="3.43616">
        <ele>428.79998779297</ele>
        <time>2011-02-26T09:02:15.000Z</time>
      </trkpt>
      <trkpt lat="45.7452" lon="3.4361">
        <ele>429.60000610352</ele>
        <time>2011-02-26T09:02:19.000Z</time>
      </trkpt>
      <trkpt lat="45.74524" lon="3.43616">
        <ele>429.60000610352</ele>
        <time>2011-02-26T09:02:23.000Z</time>
      </trkpt>
      <trkpt lat="45.74537" lon="3.43623">
        <ele>429.79998779297</ele>
        <time>2011-02-26T09:02:27.000Z</time>
      </trkpt>
      <trkpt lat="45.74539" lon="3.43632">
        <ele>429.39999389648</ele>
        <time>2011-02-26T09:02:31.000Z</time>
      </trkpt>
      <trkpt lat="45.74539" lon="3.43633">
        <ele>429</ele>
        <time>2011-02-26T09:02:33.000Z</time>
      </trkpt>
      <trkpt lat="45.74536" lon="3.43623">
        <ele>428.79998779297</ele>
        <time>2011-02-26T09:03:27.000Z</time>
      </trkpt>
      <trkpt lat="45.74522" lon="3.43609">
        <ele>429.20001220703</ele>
        <time>2011-02-26T09:03:32.000Z</time>
      </trkpt>
      <trkpt lat="45.74521" lon="3.43588">
        <ele>429.39999389648</ele>
        <time>2011-02-26T09:03:36.000Z</time>
      </trkpt>
      <trkpt lat="45.74535" lon="3.43545">
        <ele>428</ele>
        <time>2011-02-26T09:03:41.000Z</time>
      </trkpt>
      <trkpt lat="45.74559" lon="3.43479">
        <ele>424.79998779297</ele>
        <time>2011-02-26T09:03:47.000Z</time>
      </trkpt>
      <trkpt lat="45.74563" lon="3.43466">
        <ele>424.20001220703</ele>
        <time>2011-02-26T09:03:48.000Z</time>
      </trkpt>
      <trkpt lat="45.74565" lon="3.43414">
        <ele>422.60000610352</ele>
        <time>2011-02-26T09:03:52.000Z</time>
      </trkpt>
      <trkpt lat="45.74551" lon="3.43394">
        <ele>421.39999389648</ele>
        <time>2011-02-26T09:03:54.000Z</time>
      </trkpt>
      <trkpt lat="45.74524" lon="3.43384">
        <ele>419.20001220703</ele>
        <time>2011-02-26T09:03:57.000Z</time>
      </trkpt>
      <trkpt lat="45.74445" lon="3.43384">
        <ele>416.20001220703</ele>
        <time>2011-02-26T09:04:06.000Z</time>
      </trkpt>
      <trkpt lat="45.74406" lon="3.43372">
        <ele>413.60000610352</ele>
        <time>2011-02-26T09:04:10.000Z</time>
      </trkpt>
      <trkpt lat="45.7434" lon="3.4337">
        <ele>409</ele>
        <time>2011-02-26T09:04:16.000Z</time>
      </trkpt>
      <trkpt lat="45.74318" lon="3.43371">
        <ele>408.39999389648</ele>
        <time>2011-02-26T09:04:18.000Z</time>
      </trkpt>
      <trkpt lat="45.74297" lon="3.43371">
        <ele>406.39999389648</ele>
        <time>2011-02-26T09:04:20.000Z</time>
      </trkpt>
      <trkpt lat="45.74271" lon="3.43353">
        <ele>403.79998779297</ele>
        <time>2011-02-26T09:04:23.000Z</time>
      </trkpt>
      <trkpt lat="45.74269" lon="3.43324">
        <ele>402.39999389648</ele>
        <time>2011-02-26T09:04:25.000Z</time>
      </trkpt>
      <trkpt lat="45.74281" lon="3.43302">
        <ele>400.79998779297</ele>
        <time>2011-02-26T09:04:27.000Z</time>
      </trkpt>
      <trkpt lat="45.74289" lon="3.43292">
        <ele>400.20001220703</ele>
        <time>2011-02-26T09:04:28.000Z</time>
      </trkpt>
      <trkpt lat="45.74315" lon="3.43254">
        <ele>397.60000610352</ele>
        <time>2011-02-26T09:04:32.000Z</time>
      </trkpt>
      <trkpt lat="45.74317" lon="3.43225">
        <ele>396.39999389648</ele>
        <time>2011-02-26T09:04:34.000Z</time>
      </trkpt>
      <trkpt lat="45.74315" lon="3.4313">
        <ele>391.60000610352</ele>
        <time>2011-02-26T09:04:40.000Z</time>
      </trkpt>
      <trkpt lat="45.74326" lon="3.43088">
        <ele>389.60000610352</ele>
        <time>2011-02-26T09:04:43.000Z</time>
      </trkpt>
      <trkpt lat="45.74344" lon="3.43076">
        <ele>388</ele>
        <time>2011-02-26T09:04:45.000Z</time>
      </trkpt>
      <trkpt lat="45.74353" lon="3.43074">
        <ele>387.60000610352</ele>
        <time>2011-02-26T09:04:46.000Z</time>
      </trkpt>
      <trkpt lat="45.74408" lon="3.43066">
        <ele>386.20001220703</ele>
        <time>2011-02-26T09:04:53.000Z</time>
      </trkpt>
      <trkpt lat="45.74428" lon="3.43063">
        <ele>386.20001220703</ele>
        <time>2011-02-26T09:04:56.000Z</time>
      </trkpt>
      <trkpt lat="45.74456" lon="3.43046">
        <ele>387</ele>
        <time>2011-02-26T09:05:01.000Z</time>
      </trkpt>
      <trkpt lat="45.74471" lon="3.4302">
        <ele>389</ele>
        <time>2011-02-26T09:05:06.000Z</time>
      </trkpt>
      <trkpt lat="45.74488" lon="3.42978">
        <ele>391.60000610352</ele>
        <time>2011-02-26T09:05:14.000Z</time>
      </trkpt>
      <trkpt lat="45.74494" lon="3.42953">
        <ele>392.60000610352</ele>
        <time>2011-02-26T09:05:19.000Z</time>
      </trkpt>
      <trkpt lat="45.74496" lon="3.42942">
        <ele>392.79998779297</ele>
        <time>2011-02-26T09:05:21.000Z</time>
      </trkpt>
      <trkpt lat="45.74509" lon="3.42911">
        <ele>392.79998779297</ele>
        <time>2011-02-26T09:05:26.000Z</time>
      </trkpt>
      <trkpt lat="45.74532" lon="3.42865">
        <ele>392</ele>
        <time>2011-02-26T09:05:32.000Z</time>
      </trkpt>
      <trkpt lat="45.74551" lon="3.42794">
        <ele>390</ele>
        <time>2011-02-26T09:05:39.000Z</time>
      </trkpt>
      <trkpt lat="45.74572" lon="3.4276">
        <ele>388.20001220703</ele>
        <time>2011-02-26T09:05:43.000Z</time>
      </trkpt>
      <trkpt lat="45.74634" lon="3.42718">
        <ele>385</ele>
        <time>2011-02-26T09:05:51.000Z</time>
      </trkpt>
      <trkpt lat="45.74683" lon="3.42685">
        <ele>381.79998779297</ele>
        <time>2011-02-26T09:05:57.000Z</time>
      </trkpt>
      <trkpt lat="45.7476" lon="3.42633">
        <ele>378.39999389648</ele>
        <time>2011-02-26T09:06:06.000Z</time>
      </trkpt>
      <trkpt lat="45.74818" lon="3.42593">
        <ele>375.20001220703</ele>
        <time>2011-02-26T09:06:13.000Z</time>
      </trkpt>
      <trkpt lat="45.7485" lon="3.42544">
        <ele>373.20001220703</ele>
        <time>2011-02-26T09:06:18.000Z</time>
      </trkpt>
      <trkpt lat="45.74877" lon="3.42484">
        <ele>369.60000610352</ele>
        <time>2011-02-26T09:06:23.000Z</time>
      </trkpt>
      <trkpt lat="45.74884" lon="3.42458">
        <ele>368.79998779297</ele>
        <time>2011-02-26T09:06:25.000Z</time>
      </trkpt>
      <trkpt lat="45.74889" lon="3.42419">
        <ele>367.39999389648</ele>
        <time>2011-02-26T09:06:28.000Z</time>
      </trkpt>
      <trkpt lat="45.74889" lon="3.42395">
        <ele>367</ele>
        <time>2011-02-26T09:06:30.000Z</time>
      </trkpt>
      <trkpt lat="45.74895" lon="3.42353">
        <ele>366.60000610352</ele>
        <time>2011-02-26T09:06:34.000Z</time>
      </trkpt>
      <trkpt lat="45.74894" lon="3.42298">
        <ele>366.79998779297</ele>
        <time>2011-02-26T09:06:40.000Z</time>
      </trkpt>
      <trkpt lat="45.74892" lon="3.42252">
        <ele>368.39999389648</ele>
        <time>2011-02-26T09:06:46.000Z</time>
      </trkpt>
      <trkpt lat="45.74893" lon="3.42217">
        <ele>369.79998779297</ele>
        <time>2011-02-26T09:06:52.000Z</time>
      </trkpt>
      <trkpt lat="45.74897" lon="3.42159">
        <ele>372.60000610352</ele>
        <time>2011-02-26T09:07:02.000Z</time>
      </trkpt>
      <trkpt lat="45.74907" lon="3.42103">
        <ele>374.79998779297</ele>
        <time>2011-02-26T09:07:11.000Z</time>
      </trkpt>
      <trkpt lat="45.74918" lon="3.42044">
        <ele>374.79998779297</ele>
        <time>2011-02-26T09:07:19.000Z</time>
      </trkpt>
      <trkpt lat="45.74933" lon="3.41995">
        <ele>374.39999389648</ele>
        <time>2011-02-26T09:07:25.000Z</time>
      </trkpt>
      <trkpt lat="45.74961" lon="3.41921">
        <ele>374.20001220703</ele>
        <time>2011-02-26T09:07:34.000Z</time>
      </trkpt>
      <trkpt lat="45.7499" lon="3.41847">
        <ele>374.60000610352</ele>
        <time>2011-02-26T09:07:44.000Z</time>
      </trkpt>
      <trkpt lat="45.75022" lon="3.41764">
        <ele>375.39999389648</ele>
        <time>2011-02-26T09:07:55.000Z</time>
      </trkpt>
      <trkpt lat="45.75052" lon="3.41688">
        <ele>374.60000610352</ele>
        <time>2011-02-26T09:08:04.000Z</time>
      </trkpt>
      <trkpt lat="45.75068" lon="3.41639">
        <ele>374</ele>
        <time>2011-02-26T09:08:09.000Z</time>
      </trkpt>
      <trkpt lat="45.75073" lon="3.41573">
        <ele>372.39999389648</ele>
        <time>2011-02-26T09:08:15.000Z</time>
      </trkpt>
      <trkpt lat="45.75074" lon="3.41562">
        <ele>372.20001220703</ele>
        <time>2011-02-26T09:08:16.000Z</time>
      </trkpt>
      <trkpt lat="45.75089" lon="3.41516">
        <ele>371.20001220703</ele>
        <time>2011-02-26T09:08:21.000Z</time>
      </trkpt>
      <trkpt lat="45.75139" lon="3.41424">
        <ele>372.20001220703</ele>
        <time>2011-02-26T09:08:33.000Z</time>
      </trkpt>
      <trkpt lat="45.75184" lon="3.4134">
        <ele>373.60000610352</ele>
        <time>2011-02-26T09:08:45.000Z</time>
      </trkpt>
      <trkpt lat="45.75217" lon="3.41277">
        <ele>374</ele>
        <time>2011-02-26T09:08:54.000Z</time>
      </trkpt>
      <trkpt lat="45.75254" lon="3.41208">
        <ele>373</ele>
        <time>2011-02-26T09:09:03.000Z</time>
      </trkpt>
      <trkpt lat="45.75291" lon="3.41129">
        <ele>372.79998779297</ele>
        <time>2011-02-26T09:09:13.000Z</time>
      </trkpt>
      <trkpt lat="45.75305" lon="3.41102">
        <ele>373.20001220703</ele>
        <time>2011-02-26T09:09:17.000Z</time>
      </trkpt>
      <trkpt lat="45.75326" lon="3.41057">
        <ele>373.39999389648</ele>
        <time>2011-02-26T09:09:23.000Z</time>
      </trkpt>
      <trkpt lat="45.75348" lon="3.41003">
        <ele>372.79998779297</ele>
        <time>2011-02-26T09:09:29.000Z</time>
      </trkpt>
      <trkpt lat="45.75367" lon="3.40924">
        <ele>371.20001220703</ele>
        <time>2011-02-26T09:09:37.000Z</time>
      </trkpt>
      <trkpt lat="45.75391" lon="3.40813">
        <ele>370</ele>
        <time>2011-02-26T09:09:48.000Z</time>
      </trkpt>
      <trkpt lat="45.75402" lon="3.40775">
        <ele>369.60000610352</ele>
        <time>2011-02-26T09:09:52.000Z</time>
      </trkpt>
      <trkpt lat="45.75421" lon="3.40744">
        <ele>369.39999389648</ele>
        <time>2011-02-26T09:09:56.000Z</time>
      </trkpt>
      <trkpt lat="45.75467" lon="3.40684">
        <ele>368.79998779297</ele>
        <time>2011-02-26T09:10:05.000Z</time>
      </trkpt>
      <trkpt lat="45.75487" lon="3.40644">
        <ele>368.60000610352</ele>
        <time>2011-02-26T09:10:10.000Z</time>
      </trkpt>
      <trkpt lat="45.75519" lon="3.40577">
        <ele>369.39999389648</ele>
        <time>2011-02-26T09:10:19.000Z</time>
      </trkpt>
      <trkpt lat="45.75552" lon="3.4051">
        <ele>371.60000610352</ele>
        <time>2011-02-26T09:10:29.000Z</time>
      </trkpt>
      <trkpt lat="45.75581" lon="3.4045">
        <ele>370.79998779297</ele>
        <time>2011-02-26T09:10:37.000Z</time>
      </trkpt>
      <trkpt lat="45.75596" lon="3.40406">
        <ele>370.20001220703</ele>
        <time>2011-02-26T09:10:42.000Z</time>
      </trkpt>
      <trkpt lat="45.75608" lon="3.40341">
        <ele>370.20001220703</ele>
        <time>2011-02-26T09:10:49.000Z</time>
      </trkpt>
      <trkpt lat="45.75622" lon="3.40265">
        <ele>370.39999389648</ele>
        <time>2011-02-26T09:10:58.000Z</time>
      </trkpt>
      <trkpt lat="45.7564" lon="3.40171">
        <ele>371.60000610352</ele>
        <time>2011-02-26T09:11:09.000Z</time>
      </trkpt>
      <trkpt lat="45.75657" lon="3.40078">
        <ele>370.60000610352</ele>
        <time>2011-02-26T09:11:19.000Z</time>
      </trkpt>
      <trkpt lat="45.75676" lon="3.39976">
        <ele>369.60000610352</ele>
        <time>2011-02-26T09:11:29.000Z</time>
      </trkpt>
      <trkpt lat="45.75697" lon="3.3986">
        <ele>367.79998779297</ele>
        <time>2011-02-26T09:11:40.000Z</time>
      </trkpt>
      <trkpt lat="45.75718" lon="3.3975">
        <ele>366.79998779297</ele>
        <time>2011-02-26T09:11:51.000Z</time>
      </trkpt>
      <trkpt lat="45.75726" lon="3.39704">
        <ele>367.79998779297</ele>
        <time>2011-02-26T09:11:57.000Z</time>
      </trkpt>
      <trkpt lat="45.75733" lon="3.39661">
        <ele>369.60000610352</ele>
        <time>2011-02-26T09:12:04.000Z</time>
      </trkpt>
      <trkpt lat="45.75735" lon="3.39612">
        <ele>372</ele>
        <time>2011-02-26T09:12:12.000Z</time>
      </trkpt>
      <trkpt lat="45.75728" lon="3.39564">
        <ele>372.79998779297</ele>
        <time>2011-02-26T09:12:19.000Z</time>
      </trkpt>
      <trkpt lat="45.75721" lon="3.39505">
        <ele>372.79998779297</ele>
        <time>2011-02-26T09:12:26.000Z</time>
      </trkpt>
      <trkpt lat="45.75713" lon="3.39433">
        <ele>370.20001220703</ele>
        <time>2011-02-26T09:12:33.000Z</time>
      </trkpt>
      <trkpt lat="45.75709" lon="3.39398">
        <ele>369</ele>
        <time>2011-02-26T09:12:36.000Z</time>
      </trkpt>
      <trkpt lat="45.75704" lon="3.39361">
        <ele>367.60000610352</ele>
        <time>2011-02-26T09:12:39.000Z</time>
      </trkpt>
      <trkpt lat="45.75695" lon="3.39297">
        <ele>366.39999389648</ele>
        <time>2011-02-26T09:12:45.000Z</time>
      </trkpt>
      <trkpt lat="45.7568" lon="3.39226">
        <ele>366.79998779297</ele>
        <time>2011-02-26T09:12:53.000Z</time>
      </trkpt>
      <trkpt lat="45.75667" lon="3.39177">
        <ele>367.79998779297</ele>
        <time>2011-02-26T09:13:00.000Z</time>
      </trkpt>
      <trkpt lat="45.75656" lon="3.39133">
        <ele>369.79998779297</ele>
        <time>2011-02-26T09:13:08.000Z</time>
      </trkpt>
      <trkpt lat="45.75646" lon="3.39079">
        <ele>372.60000610352</ele>
        <time>2011-02-26T09:13:18.000Z</time>
      </trkpt>
      <trkpt lat="45.75642" lon="3.39037">
        <ele>375</ele>
        <time>2011-02-26T09:13:26.000Z</time>
      </trkpt>
      <trkpt lat="45.75637" lon="3.38996">
        <ele>377</ele>
        <time>2011-02-26T09:13:33.000Z</time>
      </trkpt>
      <trkpt lat="45.75627" lon="3.38947">
        <ele>379</ele>
        <time>2011-02-26T09:13:42.000Z</time>
      </trkpt>
      <trkpt lat="45.75612" lon="3.38921">
        <ele>381</ele>
        <time>2011-02-26T09:13:48.000Z</time>
      </trkpt>
      <trkpt lat="45.75589" lon="3.38892">
        <ele>383.60000610352</ele>
        <time>2011-02-26T09:13:56.000Z</time>
      </trkpt>
      <trkpt lat="45.75567" lon="3.38866">
        <ele>386.20001220703</ele>
        <time>2011-02-26T09:14:04.000Z</time>
      </trkpt>
      <trkpt lat="45.75543" lon="3.38835">
        <ele>388.79998779297</ele>
        <time>2011-02-26T09:14:13.000Z</time>
      </trkpt>
      <trkpt lat="45.75529" lon="3.388">
        <ele>390.20001220703</ele>
        <time>2011-02-26T09:14:20.000Z</time>
      </trkpt>
      <trkpt lat="45.75525" lon="3.38771">
        <ele>390.79998779297</ele>
        <time>2011-02-26T09:14:25.000Z</time>
      </trkpt>
      <trkpt lat="45.75525" lon="3.38724">
        <ele>390.79998779297</ele>
        <time>2011-02-26T09:14:32.000Z</time>
      </trkpt>
      <trkpt lat="45.75525" lon="3.38668">
        <ele>390.20001220703</ele>
        <time>2011-02-26T09:14:39.000Z</time>
      </trkpt>
      <trkpt lat="45.75519" lon="3.38603">
        <ele>389.39999389648</ele>
        <time>2011-02-26T09:14:47.000Z</time>
      </trkpt>
      <trkpt lat="45.75516" lon="3.38542">
        <ele>388.79998779297</ele>
        <time>2011-02-26T09:14:54.000Z</time>
      </trkpt>
      <trkpt lat="45.75519" lon="3.38462">
        <ele>389.39999389648</ele>
        <time>2011-02-26T09:15:03.000Z</time>
      </trkpt>
      <trkpt lat="45.75516" lon="3.38394">
        <ele>389.60000610352</ele>
        <time>2011-02-26T09:15:11.000Z</time>
      </trkpt>
      <trkpt lat="45.75521" lon="3.38346">
        <ele>390.39999389648</ele>
        <time>2011-02-26T09:15:17.000Z</time>
      </trkpt>
      <trkpt lat="45.75531" lon="3.38302">
        <ele>391.60000610352</ele>
        <time>2011-02-26T09:15:24.000Z</time>
      </trkpt>
      <trkpt lat="45.75548" lon="3.38254">
        <ele>393.60000610352</ele>
        <time>2011-02-26T09:15:33.000Z</time>
      </trkpt>
      <trkpt lat="45.75558" lon="3.38217">
        <ele>395.60000610352</ele>
        <time>2011-02-26T09:15:40.000Z</time>
      </trkpt>
      <trkpt lat="45.75568" lon="3.38174">
        <ele>397.60000610352</ele>
        <time>2011-02-26T09:15:48.000Z</time>
      </trkpt>
      <trkpt lat="45.75584" lon="3.38139">
        <ele>398.20001220703</ele>
        <time>2011-02-26T09:15:54.000Z</time>
      </trkpt>
      <trkpt lat="45.75599" lon="3.38098">
        <ele>396.79998779297</ele>
        <time>2011-02-26T09:15:59.000Z</time>
      </trkpt>
      <trkpt lat="45.75614" lon="3.38044">
        <ele>394.60000610352</ele>
        <time>2011-02-26T09:16:04.000Z</time>
      </trkpt>
      <trkpt lat="45.75649" lon="3.3798">
        <ele>392</ele>
        <time>2011-02-26T09:16:10.000Z</time>
      </trkpt>
      <trkpt lat="45.75678" lon="3.3792">
        <ele>388.60000610352</ele>
        <time>2011-02-26T09:16:15.000Z</time>
      </trkpt>
      <trkpt lat="45.75709" lon="3.37829">
        <ele>384.60000610352</ele>
        <time>2011-02-26T09:16:22.000Z</time>
      </trkpt>
      <trkpt lat="45.75728" lon="3.37755">
        <ele>381.39999389648</ele>
        <time>2011-02-26T09:16:28.000Z</time>
      </trkpt>
      <trkpt lat="45.75731" lon="3.37744">
        <ele>381</ele>
        <time>2011-02-26T09:16:29.000Z</time>
      </trkpt>
      <trkpt lat="45.75734" lon="3.37733">
        <ele>381</ele>
        <time>2011-02-26T09:16:30.000Z</time>
      </trkpt>
      <trkpt lat="45.75748" lon="3.37704">
        <ele>380</ele>
        <time>2011-02-26T09:16:34.000Z</time>
      </trkpt>
      <trkpt lat="45.75754" lon="3.37699">
        <ele>379.20001220703</ele>
        <time>2011-02-26T09:16:38.000Z</time>
      </trkpt>
      <trkpt lat="45.75757" lon="3.37696">
        <ele>378.79998779297</ele>
        <time>2011-02-26T09:16:43.000Z</time>
      </trkpt>
      <trkpt lat="45.75757" lon="3.37673">
        <ele>379.20001220703</ele>
        <time>2011-02-26T09:16:48.000Z</time>
      </trkpt>
      <trkpt lat="45.75749" lon="3.37625">
        <ele>379.39999389648</ele>
        <time>2011-02-26T09:16:55.000Z</time>
      </trkpt>
      <trkpt lat="45.75734" lon="3.37538">
        <ele>380.20001220703</ele>
        <time>2011-02-26T09:17:06.000Z</time>
      </trkpt>
      <trkpt lat="45.75717" lon="3.37429">
        <ele>381.20001220703</ele>
        <time>2011-02-26T09:17:19.000Z</time>
      </trkpt>
      <trkpt lat="45.75703" lon="3.37341">
        <ele>383.39999389648</ele>
        <time>2011-02-26T09:17:30.000Z</time>
      </trkpt>
      <trkpt lat="45.75689" lon="3.37263">
        <ele>384.60000610352</ele>
        <time>2011-02-26T09:17:40.000Z</time>
      </trkpt>
      <trkpt lat="45.7567" lon="3.37207">
        <ele>385.79998779297</ele>
        <time>2011-02-26T09:17:48.000Z</time>
      </trkpt>
      <trkpt lat="45.75631" lon="3.37123">
        <ele>388.39999389648</ele>
        <time>2011-02-26T09:18:01.000Z</time>
      </trkpt>
      <trkpt lat="45.75602" lon="3.37064">
        <ele>388.79998779297</ele>
        <time>2011-02-26T09:18:10.000Z</time>
      </trkpt>
      <trkpt lat="45.75566" lon="3.36988">
        <ele>388.60000610352</ele>
        <time>2011-02-26T09:18:20.000Z</time>
      </trkpt>
      <trkpt lat="45.75515" lon="3.36881">
        <ele>387.20001220703</ele>
        <time>2011-02-26T09:18:33.000Z</time>
      </trkpt>
      <trkpt lat="45.75467" lon="3.36781">
        <ele>385.79998779297</ele>
        <time>2011-02-26T09:18:45.000Z</time>
      </trkpt>
      <trkpt lat="45.75417" lon="3.36683">
        <ele>385</ele>
        <time>2011-02-26T09:18:57.000Z</time>
      </trkpt>
      <trkpt lat="45.75376" lon="3.36627">
        <ele>384.20001220703</ele>
        <time>2011-02-26T09:19:05.000Z</time>
      </trkpt>
      <trkpt lat="45.7532" lon="3.36554">
        <ele>383</ele>
        <time>2011-02-26T09:19:16.000Z</time>
      </trkpt>
      <trkpt lat="45.75267" lon="3.36478">
        <ele>383.39999389648</ele>
        <time>2011-02-26T09:19:27.000Z</time>
      </trkpt>
      <trkpt lat="45.75238" lon="3.36418">
        <ele>382.79998779297</ele>
        <time>2011-02-26T09:19:34.000Z</time>
      </trkpt>
      <trkpt lat="45.75216" lon="3.36347">
        <ele>381.79998779297</ele>
        <time>2011-02-26T09:19:41.000Z</time>
      </trkpt>
      <trkpt lat="45.75203" lon="3.36278">
        <ele>379.79998779297</ele>
        <time>2011-02-26T09:19:47.000Z</time>
      </trkpt>
      <trkpt lat="45.75198" lon="3.36204">
        <ele>378.20001220703</ele>
        <time>2011-02-26T09:19:53.000Z</time>
      </trkpt>
      <trkpt lat="45.75203" lon="3.36114">
        <ele>375</ele>
        <time>2011-02-26T09:20:00.000Z</time>
      </trkpt>
      <trkpt lat="45.75219" lon="3.36027">
        <ele>372.20001220703</ele>
        <time>2011-02-26T09:20:07.000Z</time>
      </trkpt>
      <trkpt lat="45.75243" lon="3.35896">
        <ele>369.20001220703</ele>
        <time>2011-02-26T09:20:18.000Z</time>
      </trkpt>
      <trkpt lat="45.75259" lon="3.35811">
        <ele>369.20001220703</ele>
        <time>2011-02-26T09:20:26.000Z</time>
      </trkpt>
      <trkpt lat="45.75283" lon="3.35683">
        <ele>368.39999389648</ele>
        <time>2011-02-26T09:20:39.000Z</time>
      </trkpt>
      <trkpt lat="45.75307" lon="3.35552">
        <ele>367.60000610352</ele>
        <time>2011-02-26T09:20:52.000Z</time>
      </trkpt>
      <trkpt lat="45.75317" lon="3.35514">
        <ele>367.39999389648</ele>
        <time>2011-02-26T09:20:56.000Z</time>
      </trkpt>
      <trkpt lat="45.75315" lon="3.35485">
        <ele>367.39999389648</ele>
        <time>2011-02-26T09:20:59.000Z</time>
      </trkpt>
      <trkpt lat="45.75305" lon="3.35472">
        <ele>367.20001220703</ele>
        <time>2011-02-26T09:21:01.000Z</time>
      </trkpt>
      <trkpt lat="45.75243" lon="3.3543">
        <ele>367</ele>
        <time>2011-02-26T09:21:11.000Z</time>
      </trkpt>
      <trkpt lat="45.75165" lon="3.35387">
        <ele>367</ele>
        <time>2011-02-26T09:21:24.000Z</time>
      </trkpt>
      <trkpt lat="45.7515" lon="3.35361">
        <ele>367.20001220703</ele>
        <time>2011-02-26T09:21:28.000Z</time>
      </trkpt>
      <trkpt lat="45.75146" lon="3.35334">
        <ele>367</ele>
        <time>2011-02-26T09:21:31.000Z</time>
      </trkpt>
      <trkpt lat="45.75144" lon="3.35233">
        <ele>363.20001220703</ele>
        <time>2011-02-26T09:21:40.000Z</time>
      </trkpt>
      <trkpt lat="45.75143" lon="3.35104">
        <ele>360.20001220703</ele>
        <time>2011-02-26T09:21:51.000Z</time>
      </trkpt>
      <trkpt lat="45.7514" lon="3.35016">
        <ele>356.20001220703</ele>
        <time>2011-02-26T09:21:58.000Z</time>
      </trkpt>
      <trkpt lat="45.75133" lon="3.34918">
        <ele>353.39999389648</ele>
        <time>2011-02-26T09:22:05.000Z</time>
      </trkpt>
      <trkpt lat="45.75126" lon="3.34803">
        <ele>349.39999389648</ele>
        <time>2011-02-26T09:22:13.000Z</time>
      </trkpt>
      <trkpt lat="45.75133" lon="3.34712">
        <ele>345.79998779297</ele>
        <time>2011-02-26T09:22:20.000Z</time>
      </trkpt>
      <trkpt lat="45.75141" lon="3.34606">
        <ele>344</ele>
        <time>2011-02-26T09:22:29.000Z</time>
      </trkpt>
      <trkpt lat="45.75146" lon="3.3451">
        <ele>343.39999389648</ele>
        <time>2011-02-26T09:22:38.000Z</time>
      </trkpt>
      <trkpt lat="45.75142" lon="3.34453">
        <ele>343.79998779297</ele>
        <time>2011-02-26T09:22:44.000Z</time>
      </trkpt>
      <trkpt lat="45.75138" lon="3.34397">
        <ele>345.39999389648</ele>
        <time>2011-02-26T09:22:51.000Z</time>
      </trkpt>
      <trkpt lat="45.75136" lon="3.34346">
        <ele>347.20001220703</ele>
        <time>2011-02-26T09:22:59.000Z</time>
      </trkpt>
      <trkpt lat="45.75139" lon="3.34275">
        <ele>349</ele>
        <time>2011-02-26T09:23:10.000Z</time>
      </trkpt>
      <trkpt lat="45.7514" lon="3.34227">
        <ele>350.79998779297</ele>
        <time>2011-02-26T09:23:17.000Z</time>
      </trkpt>
      <trkpt lat="45.75137" lon="3.34152">
        <ele>352</ele>
        <time>2011-02-26T09:23:27.000Z</time>
      </trkpt>
      <trkpt lat="45.75134" lon="3.34083">
        <ele>352</ele>
        <time>2011-02-26T09:23:35.000Z</time>
      </trkpt>
      <trkpt lat="45.7513" lon="3.34005">
        <ele>350.79998779297</ele>
        <time>2011-02-26T09:23:43.000Z</time>
      </trkpt>
      <trkpt lat="45.75117" lon="3.33926">
        <ele>348.79998779297</ele>
        <time>2011-02-26T09:23:50.000Z</time>
      </trkpt>
      <trkpt lat="45.75105" lon="3.33835">
        <ele>345.20001220703</ele>
        <time>2011-02-26T09:23:58.000Z</time>
      </trkpt>
      <trkpt lat="45.75095" lon="3.3376">
        <ele>344.20001220703</ele>
        <time>2011-02-26T09:24:05.000Z</time>
      </trkpt>
      <trkpt lat="45.75093" lon="3.33695">
        <ele>343</ele>
        <time>2011-02-26T09:24:11.000Z</time>
      </trkpt>
      <trkpt lat="45.75099" lon="3.33611">
        <ele>341.39999389648</ele>
        <time>2011-02-26T09:24:19.000Z</time>
      </trkpt>
      <trkpt lat="45.75094" lon="3.33573">
        <ele>340.39999389648</ele>
        <time>2011-02-26T09:24:23.000Z</time>
      </trkpt>
      <trkpt lat="45.75091" lon="3.33565">
        <ele>340.39999389648</ele>
        <time>2011-02-26T09:24:24.000Z</time>
      </trkpt>
      <trkpt lat="45.75085" lon="3.3355">
        <ele>340.39999389648</ele>
        <time>2011-02-26T09:24:26.000Z</time>
      </trkpt>
      <trkpt lat="45.75084" lon="3.33522">
        <ele>340.60000610352</ele>
        <time>2011-02-26T09:24:30.000Z</time>
      </trkpt>
      <trkpt lat="45.75094" lon="3.33515">
        <ele>340.60000610352</ele>
        <time>2011-02-26T09:24:32.000Z</time>
      </trkpt>
      <trkpt lat="45.75116" lon="3.33499">
        <ele>340.20001220703</ele>
        <time>2011-02-26T09:24:36.000Z</time>
      </trkpt>
      <trkpt lat="45.75132" lon="3.3347">
        <ele>339.39999389648</ele>
        <time>2011-02-26T09:24:40.000Z</time>
      </trkpt>
      <trkpt lat="45.75133" lon="3.3343">
        <ele>339</ele>
        <time>2011-02-26T09:24:44.000Z</time>
      </trkpt>
      <trkpt lat="45.7512" lon="3.33377">
        <ele>339.39999389648</ele>
        <time>2011-02-26T09:24:50.000Z</time>
      </trkpt>
      <trkpt lat="45.75095" lon="3.33336">
        <ele>339.60000610352</ele>
        <time>2011-02-26T09:24:56.000Z</time>
      </trkpt>
      <trkpt lat="45.75062" lon="3.3328">
        <ele>340.39999389648</ele>
        <time>2011-02-26T09:25:04.000Z</time>
      </trkpt>
      <trkpt lat="45.75042" lon="3.33229">
        <ele>341.20001220703</ele>
        <time>2011-02-26T09:25:11.000Z</time>
      </trkpt>
      <trkpt lat="45.75034" lon="3.33188">
        <ele>342.20001220703</ele>
        <time>2011-02-26T09:25:17.000Z</time>
      </trkpt>
      <trkpt lat="45.75024" lon="3.33132">
        <ele>344.20001220703</ele>
        <time>2011-02-26T09:25:26.000Z</time>
      </trkpt>
      <trkpt lat="45.75015" lon="3.33083">
        <ele>345</ele>
        <time>2011-02-26T09:25:33.000Z</time>
      </trkpt>
      <trkpt lat="45.74998" lon="3.33023">
        <ele>345.79998779297</ele>
        <time>2011-02-26T09:25:41.000Z</time>
      </trkpt>
      <trkpt lat="45.74975" lon="3.32983">
        <ele>345.39999389648</ele>
        <time>2011-02-26T09:25:47.000Z</time>
      </trkpt>
      <trkpt lat="45.74945" lon="3.32928">
        <ele>345.20001220703</ele>
        <time>2011-02-26T09:25:55.000Z</time>
      </trkpt>
      <trkpt lat="45.7493" lon="3.32876">
        <ele>345.79998779297</ele>
        <time>2011-02-26T09:26:02.000Z</time>
      </trkpt>
      <trkpt lat="45.74913" lon="3.32803">
        <ele>347</ele>
        <time>2011-02-26T09:26:12.000Z</time>
      </trkpt>
      <trkpt lat="45.74893" lon="3.32716">
        <ele>348.39999389648</ele>
        <time>2011-02-26T09:26:24.000Z</time>
      </trkpt>
      <trkpt lat="45.74869" lon="3.32621">
        <ele>349.60000610352</ele>
        <time>2011-02-26T09:26:36.000Z</time>
      </trkpt>
      <trkpt lat="45.74839" lon="3.32521">
        <ele>350.60000610352</ele>
        <time>2011-02-26T09:26:49.000Z</time>
      </trkpt>
      <trkpt lat="45.74818" lon="3.3245">
        <ele>351.20001220703</ele>
        <time>2011-02-26T09:26:59.000Z</time>
      </trkpt>
      <trkpt lat="45.74815" lon="3.32437">
        <ele>351.39999389648</ele>
        <time>2011-02-26T09:27:01.000Z</time>
      </trkpt>
      <trkpt lat="45.74812" lon="3.32424">
        <ele>351.60000610352</ele>
        <time>2011-02-26T09:27:03.000Z</time>
      </trkpt>
      <trkpt lat="45.7481" lon="3.32413">
        <ele>352</ele>
        <time>2011-02-26T09:27:05.000Z</time>
      </trkpt>
      <trkpt lat="45.74801" lon="3.3239">
        <ele>352.39999389648</ele>
        <time>2011-02-26T09:27:09.000Z</time>
      </trkpt>
      <trkpt lat="45.74781" lon="3.32355">
        <ele>353.39999389648</ele>
        <time>2011-02-26T09:27:16.000Z</time>
      </trkpt>
      <trkpt lat="45.74777" lon="3.32343">
        <ele>353.79998779297</ele>
        <time>2011-02-26T09:27:20.000Z</time>
      </trkpt>
      <trkpt lat="45.74777" lon="3.32342">
        <ele>353.79998779297</ele>
        <time>2011-02-26T09:27:22.000Z</time>
      </trkpt>
      <trkpt lat="45.74774" lon="3.32344">
        <ele>353.60000610352</ele>
        <time>2011-02-26T09:28:23.000Z</time>
      </trkpt>
      <trkpt lat="45.74766" lon="3.32332">
        <ele>353.60000610352</ele>
        <time>2011-02-26T09:28:29.000Z</time>
      </trkpt>
      <trkpt lat="45.74746" lon="3.32308">
        <ele>354.39999389648</ele>
        <time>2011-02-26T09:28:36.000Z</time>
      </trkpt>
      <trkpt lat="45.74713" lon="3.32268">
        <ele>356.20001220703</ele>
        <time>2011-02-26T09:28:46.000Z</time>
      </trkpt>
      <trkpt lat="45.7469" lon="3.3221">
        <ele>357</ele>
        <time>2011-02-26T09:28:57.000Z</time>
      </trkpt>
      <trkpt lat="45.74666" lon="3.32156">
        <ele>358.20001220703</ele>
        <time>2011-02-26T09:29:07.000Z</time>
      </trkpt>
      <trkpt lat="45.74654" lon="3.32113">
        <ele>359.79998779297</ele>
        <time>2011-02-26T09:29:14.000Z</time>
      </trkpt>
      <trkpt lat="45.74653" lon="3.32066">
        <ele>361.20001220703</ele>
        <time>2011-02-26T09:29:21.000Z</time>
      </trkpt>
      <trkpt lat="45.74654" lon="3.31992">
        <ele>363.20001220703</ele>
        <time>2011-02-26T09:29:32.000Z</time>
      </trkpt>
      <trkpt lat="45.74657" lon="3.31905">
        <ele>365.39999389648</ele>
        <time>2011-02-26T09:29:45.000Z</time>
      </trkpt>
      <trkpt lat="45.74664" lon="3.3182">
        <ele>367.20001220703</ele>
        <time>2011-02-26T09:29:57.000Z</time>
      </trkpt>
      <trkpt lat="45.74666" lon="3.31755">
        <ele>367.39999389648</ele>
        <time>2011-02-26T09:30:05.000Z</time>
      </trkpt>
      <trkpt lat="45.74661" lon="3.31712">
        <ele>367</ele>
        <time>2011-02-26T09:30:10.000Z</time>
      </trkpt>
      <trkpt lat="45.74639" lon="3.31617">
        <ele>366.79998779297</ele>
        <time>2011-02-26T09:30:21.000Z</time>
      </trkpt>
      <trkpt lat="45.74623" lon="3.31529">
        <ele>368</ele>
        <time>2011-02-26T09:30:32.000Z</time>
      </trkpt>
      <trkpt lat="45.74606" lon="3.31464">
        <ele>368.39999389648</ele>
        <time>2011-02-26T09:30:40.000Z</time>
      </trkpt>
      <trkpt lat="45.74585" lon="3.314">
        <ele>368</ele>
        <time>2011-02-26T09:30:47.000Z</time>
      </trkpt>
      <trkpt lat="45.74576" lon="3.31337">
        <ele>367</ele>
        <time>2011-02-26T09:30:53.000Z</time>
      </trkpt>
      <trkpt lat="45.74572" lon="3.31277">
        <ele>366.60000610352</ele>
        <time>2011-02-26T09:30:59.000Z</time>
      </trkpt>
      <trkpt lat="45.74584" lon="3.31223">
        <ele>366.20001220703</ele>
        <time>2011-02-26T09:31:05.000Z</time>
      </trkpt>
      <trkpt lat="45.74616" lon="3.31134">
        <ele>366</ele>
        <time>2011-02-26T09:31:16.000Z</time>
      </trkpt>
      <trkpt lat="45.74633" lon="3.31074">
        <ele>365</ele>
        <time>2011-02-26T09:31:23.000Z</time>
      </trkpt>
      <trkpt lat="45.7465" lon="3.31005">
        <ele>364.39999389648</ele>
        <time>2011-02-26T09:31:31.000Z</time>
      </trkpt>
      <trkpt lat="45.74663" lon="3.30937">
        <ele>362.79998779297</ele>
        <time>2011-02-26T09:31:38.000Z</time>
      </trkpt>
      <trkpt lat="45.7468" lon="3.30821">
        <ele>360.79998779297</ele>
        <time>2011-02-26T09:31:49.000Z</time>
      </trkpt>
      <trkpt lat="45.74689" lon="3.30739">
        <ele>359.39999389648</ele>
        <time>2011-02-26T09:31:57.000Z</time>
      </trkpt>
      <trkpt lat="45.74687" lon="3.30688">
        <ele>358.79998779297</ele>
        <time>2011-02-26T09:32:02.000Z</time>
      </trkpt>
      <trkpt lat="45.74681" lon="3.30628">
        <ele>358.20001220703</ele>
        <time>2011-02-26T09:32:08.000Z</time>
      </trkpt>
      <trkpt lat="45.74688" lon="3.3058">
        <ele>358.39999389648</ele>
        <time>2011-02-26T09:32:13.000Z</time>
      </trkpt>
      <trkpt lat="45.74713" lon="3.3051">
        <ele>358.39999389648</ele>
        <time>2011-02-26T09:32:22.000Z</time>
      </trkpt>
      <trkpt lat="45.74732" lon="3.30457">
        <ele>360.20001220703</ele>
        <time>2011-02-26T09:32:30.000Z</time>
      </trkpt>
      <trkpt lat="45.74743" lon="3.30421">
        <ele>362</ele>
        <time>2011-02-26T09:32:37.000Z</time>
      </trkpt>
      <trkpt lat="45.7475" lon="3.30383">
        <ele>363.79998779297</ele>
        <time>2011-02-26T09:32:45.000Z</time>
      </trkpt>
      <trkpt lat="45.74758" lon="3.30338">
        <ele>366.39999389648</ele>
        <time>2011-02-26T09:32:54.000Z</time>
      </trkpt>
      <trkpt lat="45.74772" lon="3.30312">
        <ele>366.79998779297</ele>
        <time>2011-02-26T09:33:00.000Z</time>
      </trkpt>
      <trkpt lat="45.74789" lon="3.30288">
        <ele>368.20001220703</ele>
        <time>2011-02-26T09:33:07.000Z</time>
      </trkpt>
      <trkpt lat="45.74812" lon="3.30262">
        <ele>370.39999389648</ele>
        <time>2011-02-26T09:33:16.000Z</time>
      </trkpt>
      <trkpt lat="45.74829" lon="3.30256">
        <ele>371.39999389648</ele>
        <time>2011-02-26T09:33:21.000Z</time>
      </trkpt>
      <trkpt lat="45.74845" lon="3.30253">
        <ele>371.60000610352</ele>
        <time>2011-02-26T09:33:25.000Z</time>
      </trkpt>
      <trkpt lat="45.7487" lon="3.30237">
        <ele>372</ele>
        <time>2011-02-26T09:33:31.000Z</time>
      </trkpt>
      <trkpt lat="45.74878" lon="3.30213">
        <ele>372.20001220703</ele>
        <time>2011-02-26T09:33:35.000Z</time>
      </trkpt>
      <trkpt lat="45.74879" lon="3.302">
        <ele>372.20001220703</ele>
        <time>2011-02-26T09:33:37.000Z</time>
      </trkpt>
      <trkpt lat="45.74874" lon="3.30157">
        <ele>373.79998779297</ele>
        <time>2011-02-26T09:33:45.000Z</time>
      </trkpt>
      <trkpt lat="45.74875" lon="3.30127">
        <ele>374.79998779297</ele>
        <time>2011-02-26T09:33:51.000Z</time>
      </trkpt>
      <trkpt lat="45.7489" lon="3.30121">
        <ele>376.39999389648</ele>
        <time>2011-02-26T09:33:56.000Z</time>
      </trkpt>
      <trkpt lat="45.74899" lon="3.3012">
        <ele>377</ele>
        <time>2011-02-26T09:33:58.000Z</time>
      </trkpt>
      <trkpt lat="45.74914" lon="3.30111">
        <ele>378</ele>
        <time>2011-02-26T09:34:02.000Z</time>
      </trkpt>
      <trkpt lat="45.74914" lon="3.30092">
        <ele>378.39999389648</ele>
        <time>2011-02-26T09:34:05.000Z</time>
      </trkpt>
      <trkpt lat="45.74913" lon="3.30086">
        <ele>378.60000610352</ele>
        <time>2011-02-26T09:34:06.000Z</time>
      </trkpt>
      <trkpt lat="45.74897" lon="3.30044">
        <ele>379.60000610352</ele>
        <time>2011-02-26T09:34:15.000Z</time>
      </trkpt>
      <trkpt lat="45.74892" lon="3.30017">
        <ele>381.39999389648</ele>
        <time>2011-02-26T09:34:21.000Z</time>
      </trkpt>
      <trkpt lat="45.74884" lon="3.29971">
        <ele>383.79998779297</ele>
        <time>2011-02-26T09:34:31.000Z</time>
      </trkpt>
      <trkpt lat="45.74881" lon="3.29933">
        <ele>386.20001220703</ele>
        <time>2011-02-26T09:34:39.000Z</time>
      </trkpt>
      <trkpt lat="45.74883" lon="3.29897">
        <ele>388</ele>
        <time>2011-02-26T09:34:47.000Z</time>
      </trkpt>
      <trkpt lat="45.74886" lon="3.29855">
        <ele>391</ele>
        <time>2011-02-26T09:34:57.000Z</time>
      </trkpt>
      <trkpt lat="45.74888" lon="3.29818">
        <ele>393.39999389648</ele>
        <time>2011-02-26T09:35:06.000Z</time>
      </trkpt>
      <trkpt lat="45.74891" lon="3.29784">
        <ele>395.20001220703</ele>
        <time>2011-02-26T09:35:14.000Z</time>
      </trkpt>
      <trkpt lat="45.74894" lon="3.29752">
        <ele>398</ele>
        <time>2011-02-26T09:35:22.000Z</time>
      </trkpt>
      <trkpt lat="45.74896" lon="3.2972">
        <ele>400.60000610352</ele>
        <time>2011-02-26T09:35:30.000Z</time>
      </trkpt>
      <trkpt lat="45.74898" lon="3.29685">
        <ele>403</ele>
        <time>2011-02-26T09:35:39.000Z</time>
      </trkpt>
      <trkpt lat="45.749" lon="3.29641">
        <ele>405.39999389648</ele>
        <time>2011-02-26T09:35:50.000Z</time>
      </trkpt>
      <trkpt lat="45.74903" lon="3.29605">
        <ele>408</ele>
        <time>2011-02-26T09:35:59.000Z</time>
      </trkpt>
      <trkpt lat="45.74905" lon="3.29561">
        <ele>411.60000610352</ele>
        <time>2011-02-26T09:36:10.000Z</time>
      </trkpt>
      <trkpt lat="45.74903" lon="3.29515">
        <ele>414.20001220703</ele>
        <time>2011-02-26T09:36:21.000Z</time>
      </trkpt>
      <trkpt lat="45.749" lon="3.29472">
        <ele>417</ele>
        <time>2011-02-26T09:36:31.000Z</time>
      </trkpt>
      <trkpt lat="45.74897" lon="3.29428">
        <ele>419.60000610352</ele>
        <time>2011-02-26T09:36:41.000Z</time>
      </trkpt>
      <trkpt lat="45.74895" lon="3.29371">
        <ele>422.39999389648</ele>
        <time>2011-02-26T09:36:54.000Z</time>
      </trkpt>
      <trkpt lat="45.74892" lon="3.29318">
        <ele>425.79998779297</ele>
        <time>2011-02-26T09:37:06.000Z</time>
      </trkpt>
      <trkpt lat="45.74887" lon="3.29263">
        <ele>428.20001220703</ele>
        <time>2011-02-26T09:37:18.000Z</time>
      </trkpt>
      <trkpt lat="45.74881" lon="3.29206">
        <ele>430.79998779297</ele>
        <time>2011-02-26T09:37:29.000Z</time>
      </trkpt>
      <trkpt lat="45.74877" lon="3.29153">
        <ele>432.20001220703</ele>
        <time>2011-02-26T09:37:39.000Z</time>
      </trkpt>
      <trkpt lat="45.74875" lon="3.29093">
        <ele>434.20001220703</ele>
        <time>2011-02-26T09:37:50.000Z</time>
      </trkpt>
      <trkpt lat="45.74874" lon="3.29041">
        <ele>436</ele>
        <time>2011-02-26T09:37:59.000Z</time>
      </trkpt>
      <trkpt lat="45.74871" lon="3.28991">
        <ele>436.20001220703</ele>
        <time>2011-02-26T09:38:07.000Z</time>
      </trkpt>
      <trkpt lat="45.74861" lon="3.28942">
        <ele>435.60000610352</ele>
        <time>2011-02-26T09:38:13.000Z</time>
      </trkpt>
      <trkpt lat="45.74844" lon="3.28874">
        <ele>434.39999389648</ele>
        <time>2011-02-26T09:38:20.000Z</time>
      </trkpt>
      <trkpt lat="45.74843" lon="3.28817">
        <ele>432.79998779297</ele>
        <time>2011-02-26T09:38:25.000Z</time>
      </trkpt>
      <trkpt lat="45.74854" lon="3.28741">
        <ele>431</ele>
        <time>2011-02-26T09:38:32.000Z</time>
      </trkpt>
      <trkpt lat="45.74875" lon="3.28625">
        <ele>427</ele>
        <time>2011-02-26T09:38:42.000Z</time>
      </trkpt>
      <trkpt lat="45.74898" lon="3.28523">
        <ele>424</ele>
        <time>2011-02-26T09:38:51.000Z</time>
      </trkpt>
      <trkpt lat="45.74921" lon="3.28431">
        <ele>421.79998779297</ele>
        <time>2011-02-26T09:38:59.000Z</time>
      </trkpt>
      <trkpt lat="45.74945" lon="3.28349">
        <ele>418</ele>
        <time>2011-02-26T09:39:06.000Z</time>
      </trkpt>
      <trkpt lat="45.74972" lon="3.28285">
        <ele>414.20001220703</ele>
        <time>2011-02-26T09:39:12.000Z</time>
      </trkpt>
      <trkpt lat="45.74995" lon="3.28239">
        <ele>411.39999389648</ele>
        <time>2011-02-26T09:39:17.000Z</time>
      </trkpt>
      <trkpt lat="45.75001" lon="3.28231">
        <ele>411</ele>
        <time>2011-02-26T09:39:18.000Z</time>
      </trkpt>
      <trkpt lat="45.75039" lon="3.28185">
        <ele>409</ele>
        <time>2011-02-26T09:39:24.000Z</time>
      </trkpt>
      <trkpt lat="45.75062" lon="3.28145">
        <ele>407</ele>
        <time>2011-02-26T09:39:28.000Z</time>
      </trkpt>
      <trkpt lat="45.75062" lon="3.28131">
        <ele>406.39999389648</ele>
        <time>2011-02-26T09:39:29.000Z</time>
      </trkpt>
      <trkpt lat="45.75072" lon="3.28067">
        <ele>402.20001220703</ele>
        <time>2011-02-26T09:39:36.000Z</time>
      </trkpt>
      <trkpt lat="45.75073" lon="3.28058">
        <ele>401</ele>
        <time>2011-02-26T09:39:38.000Z</time>
      </trkpt>
      <trkpt lat="45.75059" lon="3.28043">
        <ele>399.79998779297</ele>
        <time>2011-02-26T09:39:42.000Z</time>
      </trkpt>
      <trkpt lat="45.75055" lon="3.2804">
        <ele>399.60000610352</ele>
        <time>2011-02-26T09:39:43.000Z</time>
      </trkpt>
      <trkpt lat="45.75039" lon="3.28015">
        <ele>399.20001220703</ele>
        <time>2011-02-26T09:39:47.000Z</time>
      </trkpt>
      <trkpt lat="45.75023" lon="3.2797">
        <ele>398</ele>
        <time>2011-02-26T09:39:52.000Z</time>
      </trkpt>
      <trkpt lat="45.75021" lon="3.27916">
        <ele>396</ele>
        <time>2011-02-26T09:39:57.000Z</time>
      </trkpt>
      <trkpt lat="45.7503" lon="3.27875">
        <ele>394.60000610352</ele>
        <time>2011-02-26T09:40:01.000Z</time>
      </trkpt>
      <trkpt lat="45.75053" lon="3.27825">
        <ele>393.39999389648</ele>
        <time>2011-02-26T09:40:06.000Z</time>
      </trkpt>
      <trkpt lat="45.75061" lon="3.27801">
        <ele>392.39999389648</ele>
        <time>2011-02-26T09:40:09.000Z</time>
      </trkpt>
      <trkpt lat="45.75054" lon="3.27787">
        <ele>390.60000610352</ele>
        <time>2011-02-26T09:40:13.000Z</time>
      </trkpt>
      <trkpt lat="45.75049" lon="3.27785">
        <ele>390.39999389648</ele>
        <time>2011-02-26T09:40:14.000Z</time>
      </trkpt>
      <trkpt lat="45.75043" lon="3.27784">
        <ele>390</ele>
        <time>2011-02-26T09:40:15.000Z</time>
      </trkpt>
      <trkpt lat="45.75032" lon="3.27779">
        <ele>389.79998779297</ele>
        <time>2011-02-26T09:40:17.000Z</time>
      </trkpt>
      <trkpt lat="45.75008" lon="3.27753">
        <ele>389.60000610352</ele>
        <time>2011-02-26T09:40:22.000Z</time>
      </trkpt>
      <trkpt lat="45.74988" lon="3.27703">
        <ele>388.60000610352</ele>
        <time>2011-02-26T09:40:28.000Z</time>
      </trkpt>
      <trkpt lat="45.74964" lon="3.27647">
        <ele>387.39999389648</ele>
        <time>2011-02-26T09:40:34.000Z</time>
      </trkpt>
      <trkpt lat="45.74938" lon="3.27606">
        <ele>386.20001220703</ele>
        <time>2011-02-26T09:40:39.000Z</time>
      </trkpt>
      <trkpt lat="45.74895" lon="3.27561">
        <ele>385.39999389648</ele>
        <time>2011-02-26T09:40:46.000Z</time>
      </trkpt>
      <trkpt lat="45.7484" lon="3.27514">
        <ele>384.60000610352</ele>
        <time>2011-02-26T09:40:55.000Z</time>
      </trkpt>
      <trkpt lat="45.74789" lon="3.27484">
        <ele>385</ele>
        <time>2011-02-26T09:41:03.000Z</time>
      </trkpt>
      <trkpt lat="45.74729" lon="3.27463">
        <ele>384.20001220703</ele>
        <time>2011-02-26T09:41:12.000Z</time>
      </trkpt>
      <trkpt lat="45.74661" lon="3.27452">
        <ele>384</ele>
        <time>2011-02-26T09:41:22.000Z</time>
      </trkpt>
      <trkpt lat="45.74597" lon="3.27439">
        <ele>382.60000610352</ele>
        <time>2011-02-26T09:41:31.000Z</time>
      </trkpt>
      <trkpt lat="45.74556" lon="3.27414">
        <ele>381.39999389648</ele>
        <time>2011-02-26T09:41:37.000Z</time>
      </trkpt>
      <trkpt lat="45.74523" lon="3.27379">
        <ele>380.39999389648</ele>
        <time>2011-02-26T09:41:43.000Z</time>
      </trkpt>
      <trkpt lat="45.74452" lon="3.27308">
        <ele>379.79998779297</ele>
        <time>2011-02-26T09:41:55.000Z</time>
      </trkpt>
      <trkpt lat="45.74379" lon="3.27236">
        <ele>377.39999389648</ele>
        <time>2011-02-26T09:42:07.000Z</time>
      </trkpt>
      <trkpt lat="45.74299" lon="3.27156">
        <ele>376</ele>
        <time>2011-02-26T09:42:20.000Z</time>
      </trkpt>
      <trkpt lat="45.74244" lon="3.27094">
        <ele>374</ele>
        <time>2011-02-26T09:42:29.000Z</time>
      </trkpt>
      <trkpt lat="45.74187" lon="3.27016">
        <ele>372</ele>
        <time>2011-02-26T09:42:39.000Z</time>
      </trkpt>
      <trkpt lat="45.74119" lon="3.26923">
        <ele>369.39999389648</ele>
        <time>2011-02-26T09:42:51.000Z</time>
      </trkpt>
      <trkpt lat="45.74066" lon="3.26863">
        <ele>369</ele>
        <time>2011-02-26T09:43:00.000Z</time>
      </trkpt>
      <trkpt lat="45.74008" lon="3.26817">
        <ele>368.79998779297</ele>
        <time>2011-02-26T09:43:09.000Z</time>
      </trkpt>
      <trkpt lat="45.7395" lon="3.26785">
        <ele>368</ele>
        <time>2011-02-26T09:43:18.000Z</time>
      </trkpt>
      <trkpt lat="45.73876" lon="3.26754">
        <ele>367.60000610352</ele>
        <time>2011-02-26T09:43:29.000Z</time>
      </trkpt>
      <trkpt lat="45.73852" lon="3.26733">
        <ele>367.39999389648</ele>
        <time>2011-02-26T09:43:33.000Z</time>
      </trkpt>
      <trkpt lat="45.73837" lon="3.26693">
        <ele>366.60000610352</ele>
        <time>2011-02-26T09:43:37.000Z</time>
      </trkpt>
      <trkpt lat="45.73829" lon="3.26644">
        <ele>364.79998779297</ele>
        <time>2011-02-26T09:43:41.000Z</time>
      </trkpt>
      <trkpt lat="45.73836" lon="3.26596">
        <ele>363.20001220703</ele>
        <time>2011-02-26T09:43:45.000Z</time>
      </trkpt>
      <trkpt lat="45.7387" lon="3.26473">
        <ele>360.39999389648</ele>
        <time>2011-02-26T09:43:56.000Z</time>
      </trkpt>
      <trkpt lat="45.73894" lon="3.26389">
        <ele>358.79998779297</ele>
        <time>2011-02-26T09:44:04.000Z</time>
      </trkpt>
      <trkpt lat="45.73916" lon="3.26313">
        <ele>359.79998779297</ele>
        <time>2011-02-26T09:44:12.000Z</time>
      </trkpt>
      <trkpt lat="45.73938" lon="3.26256">
        <ele>361</ele>
        <time>2011-02-26T09:44:19.000Z</time>
      </trkpt>
      <trkpt lat="45.73965" lon="3.26213">
        <ele>361.20001220703</ele>
        <time>2011-02-26T09:44:25.000Z</time>
      </trkpt>
      <trkpt lat="45.74013" lon="3.26163">
        <ele>360.39999389648</ele>
        <time>2011-02-26T09:44:33.000Z</time>
      </trkpt>
      <trkpt lat="45.74075" lon="3.26102">
        <ele>359.20001220703</ele>
        <time>2011-02-26T09:44:43.000Z</time>
      </trkpt>
      <trkpt lat="45.74122" lon="3.26045">
        <ele>358.79998779297</ele>
        <time>2011-02-26T09:44:51.000Z</time>
      </trkpt>
      <trkpt lat="45.74141" lon="3.25999">
        <ele>358.20001220703</ele>
        <time>2011-02-26T09:44:56.000Z</time>
      </trkpt>
      <trkpt lat="45.7415" lon="3.25947">
        <ele>357.39999389648</ele>
        <time>2011-02-26T09:45:01.000Z</time>
      </trkpt>
      <trkpt lat="45.74151" lon="3.25874">
        <ele>357.79998779297</ele>
        <time>2011-02-26T09:45:08.000Z</time>
      </trkpt>
      <trkpt lat="45.74151" lon="3.25767">
        <ele>357</ele>
        <time>2011-02-26T09:45:18.000Z</time>
      </trkpt>
      <trkpt lat="45.7415" lon="3.25674">
        <ele>356.60000610352</ele>
        <time>2011-02-26T09:45:27.000Z</time>
      </trkpt>
      <trkpt lat="45.7415" lon="3.25586">
        <ele>356.39999389648</ele>
        <time>2011-02-26T09:45:36.000Z</time>
      </trkpt>
      <trkpt lat="45.74146" lon="3.25557">
        <ele>356.60000610352</ele>
        <time>2011-02-26T09:45:39.000Z</time>
      </trkpt>
      <trkpt lat="45.74141" lon="3.2555">
        <ele>356.60000610352</ele>
        <time>2011-02-26T09:45:40.000Z</time>
      </trkpt>
      <trkpt lat="45.74093" lon="3.25474">
        <ele>355.79998779297</ele>
        <time>2011-02-26T09:45:49.000Z</time>
      </trkpt>
      <trkpt lat="45.74047" lon="3.25397">
        <ele>354.39999389648</ele>
        <time>2011-02-26T09:45:58.000Z</time>
      </trkpt>
      <trkpt lat="45.74037" lon="3.25381">
        <ele>354</ele>
        <time>2011-02-26T09:46:00.000Z</time>
      </trkpt>
      <trkpt lat="45.7401" lon="3.25329">
        <ele>353.39999389648</ele>
        <time>2011-02-26T09:46:06.000Z</time>
      </trkpt>
      <trkpt lat="45.73977" lon="3.2526">
        <ele>352.60000610352</ele>
        <time>2011-02-26T09:46:14.000Z</time>
      </trkpt>
      <trkpt lat="45.73933" lon="3.25168">
        <ele>352.79998779297</ele>
        <time>2011-02-26T09:46:25.000Z</time>
      </trkpt>
      <trkpt lat="45.73907" lon="3.251">
        <ele>353</ele>
        <time>2011-02-26T09:46:33.000Z</time>
      </trkpt>
      <trkpt lat="45.73903" lon="3.25073">
        <ele>353.60000610352</ele>
        <time>2011-02-26T09:46:36.000Z</time>
      </trkpt>
      <trkpt lat="45.73903" lon="3.25046">
        <ele>353.60000610352</ele>
        <time>2011-02-26T09:46:39.000Z</time>
      </trkpt>
      <trkpt lat="45.73914" lon="3.24991">
        <ele>353</ele>
        <time>2011-02-26T09:46:45.000Z</time>
      </trkpt>
      <trkpt lat="45.73941" lon="3.24929">
        <ele>352.39999389648</ele>
        <time>2011-02-26T09:46:52.000Z</time>
      </trkpt>
      <trkpt lat="45.73996" lon="3.24818">
        <ele>351.20001220703</ele>
        <time>2011-02-26T09:47:05.000Z</time>
      </trkpt>
      <trkpt lat="45.74032" lon="3.24765">
        <ele>350.79998779297</ele>
        <time>2011-02-26T09:47:12.000Z</time>
      </trkpt>
      <trkpt lat="45.74077" lon="3.24714">
        <ele>349.79998779297</ele>
        <time>2011-02-26T09:47:20.000Z</time>
      </trkpt>
      <trkpt lat="45.7413" lon="3.24665">
        <ele>350.39999389648</ele>
        <time>2011-02-26T09:47:29.000Z</time>
      </trkpt>
      <trkpt lat="45.74197" lon="3.24612">
        <ele>349</ele>
        <time>2011-02-26T09:47:39.000Z</time>
      </trkpt>
      <trkpt lat="45.74273" lon="3.2456">
        <ele>348.20001220703</ele>
        <time>2011-02-26T09:47:50.000Z</time>
      </trkpt>
      <trkpt lat="45.74329" lon="3.24519">
        <ele>347.39999389648</ele>
        <time>2011-02-26T09:47:59.000Z</time>
      </trkpt>
      <trkpt lat="45.74386" lon="3.2448">
        <ele>347.60000610352</ele>
        <time>2011-02-26T09:48:08.000Z</time>
      </trkpt>
      <trkpt lat="45.74456" lon="3.24438">
        <ele>346.20001220703</ele>
        <time>2011-02-26T09:48:18.000Z</time>
      </trkpt>
      <trkpt lat="45.74544" lon="3.24398">
        <ele>344.60000610352</ele>
        <time>2011-02-26T09:48:30.000Z</time>
      </trkpt>
      <trkpt lat="45.74563" lon="3.24383">
        <ele>344.60000610352</ele>
        <time>2011-02-26T09:48:33.000Z</time>
      </trkpt>
      <trkpt lat="45.746" lon="3.24332">
        <ele>344.39999389648</ele>
        <time>2011-02-26T09:48:40.000Z</time>
      </trkpt>
      <trkpt lat="45.74648" lon="3.24268">
        <ele>343</ele>
        <time>2011-02-26T09:48:49.000Z</time>
      </trkpt>
      <trkpt lat="45.74691" lon="3.24228">
        <ele>342.79998779297</ele>
        <time>2011-02-26T09:48:56.000Z</time>
      </trkpt>
      <trkpt lat="45.74739" lon="3.242">
        <ele>342.60000610352</ele>
        <time>2011-02-26T09:49:03.000Z</time>
      </trkpt>
      <trkpt lat="45.74752" lon="3.24189">
        <ele>342.60000610352</ele>
        <time>2011-02-26T09:49:05.000Z</time>
      </trkpt>
      <trkpt lat="45.74794" lon="3.24136">
        <ele>341.60000610352</ele>
        <time>2011-02-26T09:49:12.000Z</time>
      </trkpt>
      <trkpt lat="45.74832" lon="3.24096">
        <ele>340.60000610352</ele>
        <time>2011-02-26T09:49:18.000Z</time>
      </trkpt>
      <trkpt lat="45.74869" lon="3.24069">
        <ele>340.39999389648</ele>
        <time>2011-02-26T09:49:24.000Z</time>
      </trkpt>
      <trkpt lat="45.74911" lon="3.24053">
        <ele>340.60000610352</ele>
        <time>2011-02-26T09:49:31.000Z</time>
      </trkpt>
      <trkpt lat="45.74922" lon="3.24049">
        <ele>340.79998779297</ele>
        <time>2011-02-26T09:49:33.000Z</time>
      </trkpt>
      <trkpt lat="45.74931" lon="3.24043">
        <ele>341</ele>
        <time>2011-02-26T09:49:35.000Z</time>
      </trkpt>
      <trkpt lat="45.74952" lon="3.24052">
        <ele>342</ele>
        <time>2011-02-26T09:49:39.000Z</time>
      </trkpt>
      <trkpt lat="45.74998" lon="3.24099">
        <ele>343</ele>
        <time>2011-02-26T09:49:50.000Z</time>
      </trkpt>
      <trkpt lat="45.75048" lon="3.2414">
        <ele>344.79998779297</ele>
        <time>2011-02-26T09:50:01.000Z</time>
      </trkpt>
      <trkpt lat="45.75093" lon="3.24178">
        <ele>346.39999389648</ele>
        <time>2011-02-26T09:50:11.000Z</time>
      </trkpt>
      <trkpt lat="45.75136" lon="3.24211">
        <ele>348.20001220703</ele>
        <time>2011-02-26T09:50:21.000Z</time>
      </trkpt>
      <trkpt lat="45.7517" lon="3.24232">
        <ele>349.39999389648</ele>
        <time>2011-02-26T09:50:29.000Z</time>
      </trkpt>
      <trkpt lat="45.75203" lon="3.24249">
        <ele>351.60000610352</ele>
        <time>2011-02-26T09:50:37.000Z</time>
      </trkpt>
      <trkpt lat="45.75225" lon="3.24247">
        <ele>352.60000610352</ele>
        <time>2011-02-26T09:50:42.000Z</time>
      </trkpt>
      <trkpt lat="45.75233" lon="3.24241">
        <ele>352.60000610352</ele>
        <time>2011-02-26T09:50:44.000Z</time>
      </trkpt>
      <trkpt lat="45.75262" lon="3.24211">
        <ele>353.39999389648</ele>
        <time>2011-02-26T09:50:52.000Z</time>
      </trkpt>
      <trkpt lat="45.7529" lon="3.24179">
        <ele>355.20001220703</ele>
        <time>2011-02-26T09:51:00.000Z</time>
      </trkpt>
      <trkpt lat="45.75317" lon="3.2415">
        <ele>357</ele>
        <time>2011-02-26T09:51:08.000Z</time>
      </trkpt>
      <trkpt lat="45.75351" lon="3.2413">
        <ele>358.39999389648</ele>
        <time>2011-02-26T09:51:17.000Z</time>
      </trkpt>
      <trkpt lat="45.75395" lon="3.24106">
        <ele>360.79998779297</ele>
        <time>2011-02-26T09:51:28.000Z</time>
      </trkpt>
      <trkpt lat="45.75422" lon="3.24093">
        <ele>362.60000610352</ele>
        <time>2011-02-26T09:51:35.000Z</time>
      </trkpt>
      <trkpt lat="45.75451" lon="3.24074">
        <ele>365</ele>
        <time>2011-02-26T09:51:43.000Z</time>
      </trkpt>
      <trkpt lat="45.75476" lon="3.24055">
        <ele>366.79998779297</ele>
        <time>2011-02-26T09:51:50.000Z</time>
      </trkpt>
      <trkpt lat="45.7552" lon="3.24021">
        <ele>369.60000610352</ele>
        <time>2011-02-26T09:52:02.000Z</time>
      </trkpt>
      <trkpt lat="45.75561" lon="3.23995">
        <ele>372</ele>
        <time>2011-02-26T09:52:13.000Z</time>
      </trkpt>
      <trkpt lat="45.75578" lon="3.23984">
        <ele>372.60000610352</ele>
        <time>2011-02-26T09:52:18.000Z</time>
      </trkpt>
      <trkpt lat="45.75605" lon="3.23966">
        <ele>371.60000610352</ele>
        <time>2011-02-26T09:52:23.000Z</time>
      </trkpt>
      <trkpt lat="45.75641" lon="3.23941">
        <ele>370.39999389648</ele>
        <time>2011-02-26T09:52:28.000Z</time>
      </trkpt>
      <trkpt lat="45.75648" lon="3.23935">
        <ele>370</ele>
        <time>2011-02-26T09:52:29.000Z</time>
      </trkpt>
      <trkpt lat="45.75688" lon="3.2388">
        <ele>366.60000610352</ele>
        <time>2011-02-26T09:52:35.000Z</time>
      </trkpt>
      <trkpt lat="45.75722" lon="3.23852">
        <ele>364.39999389648</ele>
        <time>2011-02-26T09:52:39.000Z</time>
      </trkpt>
      <trkpt lat="45.75809" lon="3.23825">
        <ele>359.79998779297</ele>
        <time>2011-02-26T09:52:48.000Z</time>
      </trkpt>
      <trkpt lat="45.75896" lon="3.23805">
        <ele>356.20001220703</ele>
        <time>2011-02-26T09:52:57.000Z</time>
      </trkpt>
      <trkpt lat="45.7593" lon="3.23813">
        <ele>354.79998779297</ele>
        <time>2011-02-26T09:53:01.000Z</time>
      </trkpt>
      <trkpt lat="45.75944" lon="3.23819">
        <ele>354.20001220703</ele>
        <time>2011-02-26T09:53:03.000Z</time>
      </trkpt>
      <trkpt lat="45.75975" lon="3.23844">
        <ele>354.39999389648</ele>
        <time>2011-02-26T09:53:08.000Z</time>
      </trkpt>
      <trkpt lat="45.76014" lon="3.23872">
        <ele>354.60000610352</ele>
        <time>2011-02-26T09:53:15.000Z</time>
      </trkpt>
      <trkpt lat="45.76032" lon="3.23879">
        <ele>355.39999389648</ele>
        <time>2011-02-26T09:53:18.000Z</time>
      </trkpt>
      <trkpt lat="45.76062" lon="3.23876">
        <ele>356.60000610352</ele>
        <time>2011-02-26T09:53:23.000Z</time>
      </trkpt>
      <trkpt lat="45.76069" lon="3.23873">
        <ele>356.60000610352</ele>
        <time>2011-02-26T09:53:24.000Z</time>
      </trkpt>
      <trkpt lat="45.76118" lon="3.2384">
        <ele>354.79998779297</ele>
        <time>2011-02-26T09:53:31.000Z</time>
      </trkpt>
      <trkpt lat="45.7617" lon="3.23811">
        <ele>352</ele>
        <time>2011-02-26T09:53:37.000Z</time>
      </trkpt>
      <trkpt lat="45.76219" lon="3.23797">
        <ele>349.39999389648</ele>
        <time>2011-02-26T09:53:42.000Z</time>
      </trkpt>
      <trkpt lat="45.7623" lon="3.23797">
        <ele>349</ele>
        <time>2011-02-26T09:53:43.000Z</time>
      </trkpt>
      <trkpt lat="45.76279" lon="3.23815">
        <ele>347</ele>
        <time>2011-02-26T09:53:48.000Z</time>
      </trkpt>
      <trkpt lat="45.76326" lon="3.23842">
        <ele>345.79998779297</ele>
        <time>2011-02-26T09:53:54.000Z</time>
      </trkpt>
      <trkpt lat="45.76367" lon="3.23859">
        <ele>346.20001220703</ele>
        <time>2011-02-26T09:54:00.000Z</time>
      </trkpt>
      <trkpt lat="45.76421" lon="3.23868">
        <ele>346.39999389648</ele>
        <time>2011-02-26T09:54:08.000Z</time>
      </trkpt>
      <trkpt lat="45.76467" lon="3.2386">
        <ele>345.20001220703</ele>
        <time>2011-02-26T09:54:14.000Z</time>
      </trkpt>
      <trkpt lat="45.76536" lon="3.23843">
        <ele>342.39999389648</ele>
        <time>2011-02-26T09:54:22.000Z</time>
      </trkpt>
      <trkpt lat="45.76552" lon="3.23835">
        <ele>341.39999389648</ele>
        <time>2011-02-26T09:54:24.000Z</time>
      </trkpt>
      <trkpt lat="45.76574" lon="3.23838">
        <ele>339.79998779297</ele>
        <time>2011-02-26T09:54:27.000Z</time>
      </trkpt>
      <trkpt lat="45.76579" lon="3.23845">
        <ele>339.79998779297</ele>
        <time>2011-02-26T09:54:28.000Z</time>
      </trkpt>
      <trkpt lat="45.76614" lon="3.23881">
        <ele>340</ele>
        <time>2011-02-26T09:54:35.000Z</time>
      </trkpt>
      <trkpt lat="45.76648" lon="3.23903">
        <ele>342.39999389648</ele>
        <time>2011-02-26T09:54:43.000Z</time>
      </trkpt>
      <trkpt lat="45.76681" lon="3.23924">
        <ele>345.20001220703</ele>
        <time>2011-02-26T09:54:52.000Z</time>
      </trkpt>
      <trkpt lat="45.7671" lon="3.23943">
        <ele>346.79998779297</ele>
        <time>2011-02-26T09:55:00.000Z</time>
      </trkpt>
      <trkpt lat="45.76744" lon="3.23965">
        <ele>349.79998779297</ele>
        <time>2011-02-26T09:55:09.000Z</time>
      </trkpt>
      <trkpt lat="45.76793" lon="3.23995">
        <ele>352.39999389648</ele>
        <time>2011-02-26T09:55:21.000Z</time>
      </trkpt>
      <trkpt lat="45.76844" lon="3.24027">
        <ele>354.20001220703</ele>
        <time>2011-02-26T09:55:33.000Z</time>
      </trkpt>
      <trkpt lat="45.76898" lon="3.24061">
        <ele>354.39999389648</ele>
        <time>2011-02-26T09:55:44.000Z</time>
      </trkpt>
      <trkpt lat="45.76958" lon="3.241">
        <ele>354.39999389648</ele>
        <time>2011-02-26T09:55:55.000Z</time>
      </trkpt>
      <trkpt lat="45.77008" lon="3.24124">
        <ele>354.60000610352</ele>
        <time>2011-02-26T09:56:03.000Z</time>
      </trkpt>
      <trkpt lat="45.77036" lon="3.24123">
        <ele>353.39999389648</ele>
        <time>2011-02-26T09:56:07.000Z</time>
      </trkpt>
      <trkpt lat="45.77071" lon="3.24102">
        <ele>352.20001220703</ele>
        <time>2011-02-26T09:56:12.000Z</time>
      </trkpt>
      <trkpt lat="45.77077" lon="3.24095">
        <ele>352</ele>
        <time>2011-02-26T09:56:13.000Z</time>
      </trkpt>
      <trkpt lat="45.77126" lon="3.24035">
        <ele>349.39999389648</ele>
        <time>2011-02-26T09:56:20.000Z</time>
      </trkpt>
      <trkpt lat="45.77152" lon="3.24011">
        <ele>347.60000610352</ele>
        <time>2011-02-26T09:56:23.000Z</time>
      </trkpt>
      <trkpt lat="45.77194" lon="3.23993">
        <ele>344.79998779297</ele>
        <time>2011-02-26T09:56:27.000Z</time>
      </trkpt>
      <trkpt lat="45.77205" lon="3.23991">
        <ele>344.39999389648</ele>
        <time>2011-02-26T09:56:28.000Z</time>
      </trkpt>
      <trkpt lat="45.77288" lon="3.23991">
        <ele>339.60000610352</ele>
        <time>2011-02-26T09:56:35.000Z</time>
      </trkpt>
      <trkpt lat="45.77313" lon="3.23993">
        <ele>337.79998779297</ele>
        <time>2011-02-26T09:56:37.000Z</time>
      </trkpt>
      <trkpt lat="45.77338" lon="3.23999">
        <ele>336.20001220703</ele>
        <time>2011-02-26T09:56:39.000Z</time>
      </trkpt>
      <trkpt lat="45.77381" lon="3.24026">
        <ele>333.39999389648</ele>
        <time>2011-02-26T09:56:43.000Z</time>
      </trkpt>
      <trkpt lat="45.77399" lon="3.24042">
        <ele>331.79998779297</ele>
        <time>2011-02-26T09:56:45.000Z</time>
      </trkpt>
      <trkpt lat="45.77421" lon="3.24073">
        <ele>329.60000610352</ele>
        <time>2011-02-26T09:56:48.000Z</time>
      </trkpt>
      <trkpt lat="45.7744" lon="3.24124">
        <ele>327.20001220703</ele>
        <time>2011-02-26T09:56:52.000Z</time>
      </trkpt>
      <trkpt lat="45.77468" lon="3.2421">
        <ele>326.39999389648</ele>
        <time>2011-02-26T09:56:59.000Z</time>
      </trkpt>
      <trkpt lat="45.77492" lon="3.24283">
        <ele>325</ele>
        <time>2011-02-26T09:57:06.000Z</time>
      </trkpt>
      <trkpt lat="45.77508" lon="3.24336">
        <ele>324.79998779297</ele>
        <time>2011-02-26T09:57:12.000Z</time>
      </trkpt>
      <trkpt lat="45.77529" lon="3.24395">
        <ele>325.60000610352</ele>
        <time>2011-02-26T09:57:20.000Z</time>
      </trkpt>
      <trkpt lat="45.77546" lon="3.24439">
        <ele>327.39999389648</ele>
        <time>2011-02-26T09:57:27.000Z</time>
      </trkpt>
      <trkpt lat="45.77576" lon="3.2451">
        <ele>329.39999389648</ele>
        <time>2011-02-26T09:57:38.000Z</time>
      </trkpt>
      <trkpt lat="45.77597" lon="3.24559">
        <ele>330.39999389648</ele>
        <time>2011-02-26T09:57:46.000Z</time>
      </trkpt>
      <trkpt lat="45.77618" lon="3.24615">
        <ele>332.20001220703</ele>
        <time>2011-02-26T09:57:55.000Z</time>
      </trkpt>
      <trkpt lat="45.77642" lon="3.24665">
        <ele>334.39999389648</ele>
        <time>2011-02-26T09:58:04.000Z</time>
      </trkpt>
      <trkpt lat="45.77671" lon="3.24701">
        <ele>336</ele>
        <time>2011-02-26T09:58:12.000Z</time>
      </trkpt>
      <trkpt lat="45.77688" lon="3.24714">
        <ele>337</ele>
        <time>2011-02-26T09:58:16.000Z</time>
      </trkpt>
      <trkpt lat="45.77719" lon="3.2473">
        <ele>338</ele>
        <time>2011-02-26T09:58:23.000Z</time>
      </trkpt>
      <trkpt lat="45.77748" lon="3.24742">
        <ele>339.20001220703</ele>
        <time>2011-02-26T09:58:29.000Z</time>
      </trkpt>
      <trkpt lat="45.77802" lon="3.2477">
        <ele>341.20001220703</ele>
        <time>2011-02-26T09:58:40.000Z</time>
      </trkpt>
      <trkpt lat="45.77836" lon="3.24795">
        <ele>341.20001220703</ele>
        <time>2011-02-26T09:58:46.000Z</time>
      </trkpt>
      <trkpt lat="45.77885" lon="3.24846">
        <ele>341.79998779297</ele>
        <time>2011-02-26T09:58:55.000Z</time>
      </trkpt>
      <trkpt lat="45.77919" lon="3.24871">
        <ele>341.20001220703</ele>
        <time>2011-02-26T09:59:00.000Z</time>
      </trkpt>
      <trkpt lat="45.77968" lon="3.24886">
        <ele>340.39999389648</ele>
        <time>2011-02-26T09:59:06.000Z</time>
      </trkpt>
      <trkpt lat="45.78011" lon="3.24885">
        <ele>339.20001220703</ele>
        <time>2011-02-26T09:59:11.000Z</time>
      </trkpt>
      <trkpt lat="45.78053" lon="3.24869">
        <ele>338</ele>
        <time>2011-02-26T09:59:16.000Z</time>
      </trkpt>
      <trkpt lat="45.78147" lon="3.24821">
        <ele>337</ele>
        <time>2011-02-26T09:59:28.000Z</time>
      </trkpt>
      <trkpt lat="45.78195" lon="3.24814">
        <ele>336.60000610352</ele>
        <time>2011-02-26T09:59:34.000Z</time>
      </trkpt>
      <trkpt lat="45.78234" lon="3.24823">
        <ele>336.39999389648</ele>
        <time>2011-02-26T09:59:39.000Z</time>
      </trkpt>
      <trkpt lat="45.78275" lon="3.24848">
        <ele>336.39999389648</ele>
        <time>2011-02-26T09:59:45.000Z</time>
      </trkpt>
      <trkpt lat="45.78329" lon="3.249">
        <ele>336</ele>
        <time>2011-02-26T09:59:54.000Z</time>
      </trkpt>
      <trkpt lat="45.78396" lon="3.2497">
        <ele>336.60000610352</ele>
        <time>2011-02-26T10:00:06.000Z</time>
      </trkpt>
      <trkpt lat="45.78439" lon="3.25033">
        <ele>337.20001220703</ele>
        <time>2011-02-26T10:00:15.000Z</time>
      </trkpt>
      <trkpt lat="45.78476" lon="3.25103">
        <ele>338.20001220703</ele>
        <time>2011-02-26T10:00:24.000Z</time>
      </trkpt>
      <trkpt lat="45.78508" lon="3.25165">
        <ele>338.20001220703</ele>
        <time>2011-02-26T10:00:32.000Z</time>
      </trkpt>
      <trkpt lat="45.78537" lon="3.25242">
        <ele>339.60000610352</ele>
        <time>2011-02-26T10:00:41.000Z</time>
      </trkpt>
      <trkpt lat="45.78546" lon="3.25276">
        <ele>339.39999389648</ele>
        <time>2011-02-26T10:00:45.000Z</time>
      </trkpt>
      <trkpt lat="45.78562" lon="3.25295">
        <ele>339</ele>
        <time>2011-02-26T10:00:49.000Z</time>
      </trkpt>
      <trkpt lat="45.78568" lon="3.25297">
        <ele>338.79998779297</ele>
        <time>2011-02-26T10:00:50.000Z</time>
      </trkpt>
      <trkpt lat="45.78608" lon="3.25307">
        <ele>337.60000610352</ele>
        <time>2011-02-26T10:00:56.000Z</time>
      </trkpt>
      <trkpt lat="45.78652" lon="3.25333">
        <ele>336.39999389648</ele>
        <time>2011-02-26T10:01:02.000Z</time>
      </trkpt>
      <trkpt lat="45.7871" lon="3.2537">
        <ele>334.20001220703</ele>
        <time>2011-02-26T10:01:09.000Z</time>
      </trkpt>
      <trkpt lat="45.78781" lon="3.25417">
        <ele>330.39999389648</ele>
        <time>2011-02-26T10:01:18.000Z</time>
      </trkpt>
      <trkpt lat="45.78833" lon="3.25449">
        <ele>329.60000610352</ele>
        <time>2011-02-26T10:01:25.000Z</time>
      </trkpt>
      <trkpt lat="45.78874" lon="3.25478">
        <ele>328</ele>
        <time>2011-02-26T10:01:31.000Z</time>
      </trkpt>
      <trkpt lat="45.78931" lon="3.25509">
        <ele>328</ele>
        <time>2011-02-26T10:01:39.000Z</time>
      </trkpt>
      <trkpt lat="45.79004" lon="3.25541">
        <ele>327.20001220703</ele>
        <time>2011-02-26T10:01:49.000Z</time>
      </trkpt>
      <trkpt lat="45.79056" lon="3.25555">
        <ele>326.60000610352</ele>
        <time>2011-02-26T10:01:56.000Z</time>
      </trkpt>
      <trkpt lat="45.79107" lon="3.25562">
        <ele>326.20001220703</ele>
        <time>2011-02-26T10:02:03.000Z</time>
      </trkpt>
      <trkpt lat="45.79165" lon="3.25573">
        <ele>325.79998779297</ele>
        <time>2011-02-26T10:02:11.000Z</time>
      </trkpt>
      <trkpt lat="45.79222" lon="3.25598">
        <ele>326</ele>
        <time>2011-02-26T10:02:19.000Z</time>
      </trkpt>
      <trkpt lat="45.79282" lon="3.25627">
        <ele>322.79998779297</ele>
        <time>2011-02-26T10:02:27.000Z</time>
      </trkpt>
      <trkpt lat="45.79337" lon="3.25654">
        <ele>321.39999389648</ele>
        <time>2011-02-26T10:02:34.000Z</time>
      </trkpt>
      <trkpt lat="45.7939" lon="3.25681">
        <ele>319.79998779297</ele>
        <time>2011-02-26T10:02:41.000Z</time>
      </trkpt>
      <trkpt lat="45.79405" lon="3.2569">
        <ele>319</ele>
        <time>2011-02-26T10:02:43.000Z</time>
      </trkpt>
      <trkpt lat="45.79429" lon="3.25719">
        <ele>318.20001220703</ele>
        <time>2011-02-26T10:02:47.000Z</time>
      </trkpt>
      <trkpt lat="45.79433" lon="3.25728">
        <ele>318</ele>
        <time>2011-02-26T10:02:48.000Z</time>
      </trkpt>
      <trkpt lat="45.79454" lon="3.25791">
        <ele>317.60000610352</ele>
        <time>2011-02-26T10:02:55.000Z</time>
      </trkpt>
      <trkpt lat="45.79459" lon="3.25809">
        <ele>318</ele>
        <time>2011-02-26T10:02:59.000Z</time>
      </trkpt>
      <trkpt lat="45.79461" lon="3.25817">
        <ele>317.60000610352</ele>
        <time>2011-02-26T10:03:03.000Z</time>
      </trkpt>
      <trkpt lat="45.79465" lon="3.25829">
        <ele>317.39999389648</ele>
        <time>2011-02-26T10:03:06.000Z</time>
      </trkpt>
      <trkpt lat="45.79485" lon="3.25845">
        <ele>318</ele>
        <time>2011-02-26T10:03:11.000Z</time>
      </trkpt>
      <trkpt lat="45.79491" lon="3.25845">
        <ele>318.20001220703</ele>
        <time>2011-02-26T10:03:12.000Z</time>
      </trkpt>
      <trkpt lat="45.79553" lon="3.25844">
        <ele>318</ele>
        <time>2011-02-26T10:03:21.000Z</time>
      </trkpt>
      <trkpt lat="45.7963" lon="3.25847">
        <ele>319.39999389648</ele>
        <time>2011-02-26T10:03:32.000Z</time>
      </trkpt>
      <trkpt lat="45.79697" lon="3.2585">
        <ele>319.60000610352</ele>
        <time>2011-02-26T10:03:41.000Z</time>
      </trkpt>
      <trkpt lat="45.79758" lon="3.25856">
        <ele>319.20001220703</ele>
        <time>2011-02-26T10:03:49.000Z</time>
      </trkpt>
      <trkpt lat="45.79802" lon="3.25859">
        <ele>320.39999389648</ele>
        <time>2011-02-26T10:03:56.000Z</time>
      </trkpt>
      <trkpt lat="45.79828" lon="3.25861">
        <ele>321.20001220703</ele>
        <time>2011-02-26T10:04:01.000Z</time>
      </trkpt>
      <trkpt lat="45.79851" lon="3.25874">
        <ele>322.39999389648</ele>
        <time>2011-02-26T10:04:06.000Z</time>
      </trkpt>
      <trkpt lat="45.79868" lon="3.25869">
        <ele>323.20001220703</ele>
        <time>2011-02-26T10:04:09.000Z</time>
      </trkpt>
      <trkpt lat="45.79898" lon="3.2586">
        <ele>322.39999389648</ele>
        <time>2011-02-26T10:04:14.000Z</time>
      </trkpt>
      <trkpt lat="45.79923" lon="3.25873">
        <ele>321.79998779297</ele>
        <time>2011-02-26T10:04:18.000Z</time>
      </trkpt>
      <trkpt lat="45.7993" lon="3.25884">
        <ele>322</ele>
        <time>2011-02-26T10:04:20.000Z</time>
      </trkpt>
      <trkpt lat="45.79935" lon="3.25893">
        <ele>321.20001220703</ele>
        <time>2011-02-26T10:04:25.000Z</time>
      </trkpt>
      <trkpt lat="45.79937" lon="3.25897">
        <ele>320.60000610352</ele>
        <time>2011-02-26T10:04:29.000Z</time>
      </trkpt>
      <trkpt lat="45.79947" lon="3.25913">
        <ele>321</ele>
        <time>2011-02-26T10:04:33.000Z</time>
      </trkpt>
      <trkpt lat="45.79973" lon="3.25951">
        <ele>321.39999389648</ele>
        <time>2011-02-26T10:04:39.000Z</time>
      </trkpt>
      <trkpt lat="45.80011" lon="3.26012">
        <ele>320.79998779297</ele>
        <time>2011-02-26T10:04:47.000Z</time>
      </trkpt>
      <trkpt lat="45.8007" lon="3.26099">
        <ele>320</ele>
        <time>2011-02-26T10:04:58.000Z</time>
      </trkpt>
      <trkpt lat="45.80117" lon="3.2616">
        <ele>319.79998779297</ele>
        <time>2011-02-26T10:05:06.000Z</time>
      </trkpt>
      <trkpt lat="45.80152" lon="3.26188">
        <ele>319.60000610352</ele>
        <time>2011-02-26T10:05:11.000Z</time>
      </trkpt>
      <trkpt lat="45.80221" lon="3.26224">
        <ele>318.39999389648</ele>
        <time>2011-02-26T10:05:20.000Z</time>
      </trkpt>
      <trkpt lat="45.80301" lon="3.26264">
        <ele>318.20001220703</ele>
        <time>2011-02-26T10:05:31.000Z</time>
      </trkpt>
      <trkpt lat="45.80386" lon="3.26306">
        <ele>318.39999389648</ele>
        <time>2011-02-26T10:05:43.000Z</time>
      </trkpt>
      <trkpt lat="45.80456" lon="3.26334">
        <ele>318.60000610352</ele>
        <time>2011-02-26T10:05:53.000Z</time>
      </trkpt>
      <trkpt lat="45.80513" lon="3.26352">
        <ele>318.20001220703</ele>
        <time>2011-02-26T10:06:01.000Z</time>
      </trkpt>
      <trkpt lat="45.80608" lon="3.26381">
        <ele>318</ele>
        <time>2011-02-26T10:06:14.000Z</time>
      </trkpt>
      <trkpt lat="45.80667" lon="3.2639">
        <ele>317.79998779297</ele>
        <time>2011-02-26T10:06:22.000Z</time>
      </trkpt>
      <trkpt lat="45.80734" lon="3.26388">
        <ele>318.20001220703</ele>
        <time>2011-02-26T10:06:31.000Z</time>
      </trkpt>
      <trkpt lat="45.80835" lon="3.26385">
        <ele>318</ele>
        <time>2011-02-26T10:06:44.000Z</time>
      </trkpt>
      <trkpt lat="45.80906" lon="3.26378">
        <ele>316.79998779297</ele>
        <time>2011-02-26T10:06:53.000Z</time>
      </trkpt>
      <trkpt lat="45.80966" lon="3.26355">
        <ele>316</ele>
        <time>2011-02-26T10:07:01.000Z</time>
      </trkpt>
      <trkpt lat="45.81056" lon="3.26321">
        <ele>315.39999389648</ele>
        <time>2011-02-26T10:07:13.000Z</time>
      </trkpt>
      <trkpt lat="45.81101" lon="3.2632">
        <ele>315.20001220703</ele>
        <time>2011-02-26T10:07:19.000Z</time>
      </trkpt>
      <trkpt lat="45.81145" lon="3.26335">
        <ele>315.79998779297</ele>
        <time>2011-02-26T10:07:25.000Z</time>
      </trkpt>
      <trkpt lat="45.81226" lon="3.2638">
        <ele>316</ele>
        <time>2011-02-26T10:07:37.000Z</time>
      </trkpt>
      <trkpt lat="45.81287" lon="3.26407">
        <ele>317</ele>
        <time>2011-02-26T10:07:46.000Z</time>
      </trkpt>
      <trkpt lat="45.81364" lon="3.26438">
        <ele>318.39999389648</ele>
        <time>2011-02-26T10:07:58.000Z</time>
      </trkpt>
      <trkpt lat="45.81435" lon="3.26458">
        <ele>319.39999389648</ele>
        <time>2011-02-26T10:08:09.000Z</time>
      </trkpt>
      <trkpt lat="45.81496" lon="3.26455">
        <ele>320</ele>
        <time>2011-02-26T10:08:18.000Z</time>
      </trkpt>
      <trkpt lat="45.81576" lon="3.26447">
        <ele>320.39999389648</ele>
        <time>2011-02-26T10:08:30.000Z</time>
      </trkpt>
      <trkpt lat="45.81617" lon="3.26431">
        <ele>321.39999389648</ele>
        <time>2011-02-26T10:08:37.000Z</time>
      </trkpt>
      <trkpt lat="45.81622" lon="3.26427">
        <ele>321.60000610352</ele>
        <time>2011-02-26T10:08:38.000Z</time>
      </trkpt>
      <trkpt lat="45.81643" lon="3.26392">
        <ele>321.79998779297</ele>
        <time>2011-02-26T10:08:43.000Z</time>
      </trkpt>
      <trkpt lat="45.81646" lon="3.26352">
        <ele>321.79998779297</ele>
        <time>2011-02-26T10:08:47.000Z</time>
      </trkpt>
      <trkpt lat="45.81645" lon="3.26342">
        <ele>321.79998779297</ele>
        <time>2011-02-26T10:08:48.000Z</time>
      </trkpt>
      <trkpt lat="45.81641" lon="3.26282">
        <ele>321.39999389648</ele>
        <time>2011-02-26T10:08:54.000Z</time>
      </trkpt>
      <trkpt lat="45.81651" lon="3.26214">
        <ele>321</ele>
        <time>2011-02-26T10:09:01.000Z</time>
      </trkpt>
      <trkpt lat="45.8167" lon="3.2612">
        <ele>321.39999389648</ele>
        <time>2011-02-26T10:09:11.000Z</time>
      </trkpt>
      <trkpt lat="45.81689" lon="3.2602">
        <ele>322</ele>
        <time>2011-02-26T10:09:22.000Z</time>
      </trkpt>
      <trkpt lat="45.81706" lon="3.25919">
        <ele>322.39999389648</ele>
        <time>2011-02-26T10:09:33.000Z</time>
      </trkpt>
      <trkpt lat="45.81716" lon="3.25798">
        <ele>322.39999389648</ele>
        <time>2011-02-26T10:09:46.000Z</time>
      </trkpt>
      <trkpt lat="45.81726" lon="3.25717">
        <ele>321.60000610352</ele>
        <time>2011-02-26T10:09:55.000Z</time>
      </trkpt>
      <trkpt lat="45.81741" lon="3.25693">
        <ele>321.79998779297</ele>
        <time>2011-02-26T10:09:59.000Z</time>
      </trkpt>
      <trkpt lat="45.8175" lon="3.25681">
        <ele>322</ele>
        <time>2011-02-26T10:10:01.000Z</time>
      </trkpt>
      <trkpt lat="45.81774" lon="3.25667">
        <ele>322</ele>
        <time>2011-02-26T10:10:05.000Z</time>
      </trkpt>
      <trkpt lat="45.81788" lon="3.25669">
        <ele>322</ele>
        <time>2011-02-26T10:10:07.000Z</time>
      </trkpt>
      <trkpt lat="45.81848" lon="3.25693">
        <ele>322</ele>
        <time>2011-02-26T10:10:16.000Z</time>
      </trkpt>
      <trkpt lat="45.81905" lon="3.25727">
        <ele>322</ele>
        <time>2011-02-26T10:10:25.000Z</time>
      </trkpt>
      <trkpt lat="45.81988" lon="3.25785">
        <ele>322.60000610352</ele>
        <time>2011-02-26T10:10:38.000Z</time>
      </trkpt>
      <trkpt lat="45.82073" lon="3.25844">
        <ele>322.39999389648</ele>
        <time>2011-02-26T10:10:51.000Z</time>
      </trkpt>
      <trkpt lat="45.8217" lon="3.25911">
        <ele>322</ele>
        <time>2011-02-26T10:11:05.000Z</time>
      </trkpt>
      <trkpt lat="45.82256" lon="3.2597">
        <ele>321.39999389648</ele>
        <time>2011-02-26T10:11:17.000Z</time>
      </trkpt>
      <trkpt lat="45.82327" lon="3.26023">
        <ele>321</ele>
        <time>2011-02-26T10:11:27.000Z</time>
      </trkpt>
      <trkpt lat="45.8237" lon="3.26073">
        <ele>320.39999389648</ele>
        <time>2011-02-26T10:11:34.000Z</time>
      </trkpt>
      <trkpt lat="45.82404" lon="3.26134">
        <ele>320.39999389648</ele>
        <time>2011-02-26T10:11:41.000Z</time>
      </trkpt>
      <trkpt lat="45.82429" lon="3.26204">
        <ele>320</ele>
        <time>2011-02-26T10:11:48.000Z</time>
      </trkpt>
      <trkpt lat="45.82482" lon="3.26351">
        <ele>319.20001220703</ele>
        <time>2011-02-26T10:12:03.000Z</time>
      </trkpt>
      <trkpt lat="45.82511" lon="3.26401">
        <ele>319.20001220703</ele>
        <time>2011-02-26T10:12:09.000Z</time>
      </trkpt>
      <trkpt lat="45.82548" lon="3.26442">
        <ele>318.79998779297</ele>
        <time>2011-02-26T10:12:15.000Z</time>
      </trkpt>
      <trkpt lat="45.82589" lon="3.26471">
        <ele>318.79998779297</ele>
        <time>2011-02-26T10:12:21.000Z</time>
      </trkpt>
      <trkpt lat="45.82654" lon="3.26499">
        <ele>317.79998779297</ele>
        <time>2011-02-26T10:12:30.000Z</time>
      </trkpt>
      <trkpt lat="45.82748" lon="3.26541">
        <ele>318</ele>
        <time>2011-02-26T10:12:43.000Z</time>
      </trkpt>
      <trkpt lat="45.82825" lon="3.2658">
        <ele>316.60000610352</ele>
        <time>2011-02-26T10:12:54.000Z</time>
      </trkpt>
      <trkpt lat="45.82896" lon="3.26627">
        <ele>317</ele>
        <time>2011-02-26T10:13:05.000Z</time>
      </trkpt>
      <trkpt lat="45.82973" lon="3.26687">
        <ele>316.60000610352</ele>
        <time>2011-02-26T10:13:17.000Z</time>
      </trkpt>
      <trkpt lat="45.83057" lon="3.26753">
        <ele>316</ele>
        <time>2011-02-26T10:13:30.000Z</time>
      </trkpt>
      <trkpt lat="45.83117" lon="3.26793">
        <ele>315.39999389648</ele>
        <time>2011-02-26T10:13:39.000Z</time>
      </trkpt>
      <trkpt lat="45.83209" lon="3.26841">
        <ele>315</ele>
        <time>2011-02-26T10:13:52.000Z</time>
      </trkpt>
      <trkpt lat="45.83272" lon="3.26871">
        <ele>315</ele>
        <time>2011-02-26T10:14:01.000Z</time>
      </trkpt>
      <trkpt lat="45.83339" lon="3.26904">
        <ele>315.20001220703</ele>
        <time>2011-02-26T10:14:11.000Z</time>
      </trkpt>
      <trkpt lat="45.83418" lon="3.26943">
        <ele>315.60000610352</ele>
        <time>2011-02-26T10:14:23.000Z</time>
      </trkpt>
      <trkpt lat="45.83505" lon="3.26987">
        <ele>316.20001220703</ele>
        <time>2011-02-26T10:14:36.000Z</time>
      </trkpt>
      <trkpt lat="45.83561" lon="3.27008">
        <ele>315.39999389648</ele>
        <time>2011-02-26T10:14:44.000Z</time>
      </trkpt>
      <trkpt lat="45.83623" lon="3.27018">
        <ele>315</ele>
        <time>2011-02-26T10:14:52.000Z</time>
      </trkpt>
      <trkpt lat="45.83681" lon="3.27014">
        <ele>313.60000610352</ele>
        <time>2011-02-26T10:14:59.000Z</time>
      </trkpt>
      <trkpt lat="45.83752" lon="3.27008">
        <ele>313</ele>
        <time>2011-02-26T10:15:08.000Z</time>
      </trkpt>
      <trkpt lat="45.8382" lon="3.27012">
        <ele>313</ele>
        <time>2011-02-26T10:15:17.000Z</time>
      </trkpt>
      <trkpt lat="45.83892" lon="3.27027">
        <ele>312.60000610352</ele>
        <time>2011-02-26T10:15:26.000Z</time>
      </trkpt>
      <trkpt lat="45.839" lon="3.27031">
        <ele>312.60000610352</ele>
        <time>2011-02-26T10:15:27.000Z</time>
      </trkpt>
      <trkpt lat="45.83928" lon="3.27055">
        <ele>312.39999389648</ele>
        <time>2011-02-26T10:15:31.000Z</time>
      </trkpt>
      <trkpt lat="45.83974" lon="3.27121">
        <ele>313.60000610352</ele>
        <time>2011-02-26T10:15:40.000Z</time>
      </trkpt>
      <trkpt lat="45.84012" lon="3.27165">
        <ele>314.60000610352</ele>
        <time>2011-02-26T10:15:47.000Z</time>
      </trkpt>
      <trkpt lat="45.84073" lon="3.27217">
        <ele>315</ele>
        <time>2011-02-26T10:15:57.000Z</time>
      </trkpt>
      <trkpt lat="45.84136" lon="3.27272">
        <ele>315</ele>
        <time>2011-02-26T10:16:08.000Z</time>
      </trkpt>
      <trkpt lat="45.84204" lon="3.2733">
        <ele>316</ele>
        <time>2011-02-26T10:16:20.000Z</time>
      </trkpt>
      <trkpt lat="45.8428" lon="3.27398">
        <ele>316.20001220703</ele>
        <time>2011-02-26T10:16:33.000Z</time>
      </trkpt>
      <trkpt lat="45.84351" lon="3.27474">
        <ele>316.39999389648</ele>
        <time>2011-02-26T10:16:46.000Z</time>
      </trkpt>
      <trkpt lat="45.8441" lon="3.27539">
        <ele>317.79998779297</ele>
        <time>2011-02-26T10:16:57.000Z</time>
      </trkpt>
      <trkpt lat="45.8444" lon="3.2759">
        <ele>317.39999389648</ele>
        <time>2011-02-26T10:17:04.000Z</time>
      </trkpt>
      <trkpt lat="45.84462" lon="3.27652">
        <ele>318.20001220703</ele>
        <time>2011-02-26T10:17:11.000Z</time>
      </trkpt>
      <trkpt lat="45.84499" lon="3.27782">
        <ele>317</ele>
        <time>2011-02-26T10:17:25.000Z</time>
      </trkpt>
      <trkpt lat="45.84528" lon="3.27883">
        <ele>317</ele>
        <time>2011-02-26T10:17:36.000Z</time>
      </trkpt>
      <trkpt lat="45.84555" lon="3.27976">
        <ele>317.60000610352</ele>
        <time>2011-02-26T10:17:46.000Z</time>
      </trkpt>
      <trkpt lat="45.8458" lon="3.28035">
        <ele>317.60000610352</ele>
        <time>2011-02-26T10:17:53.000Z</time>
      </trkpt>
      <trkpt lat="45.84612" lon="3.28078">
        <ele>317.20001220703</ele>
        <time>2011-02-26T10:17:59.000Z</time>
      </trkpt>
      <trkpt lat="45.84662" lon="3.28131">
        <ele>316</ele>
        <time>2011-02-26T10:18:07.000Z</time>
      </trkpt>
      <trkpt lat="45.84724" lon="3.28194">
        <ele>314.39999389648</ele>
        <time>2011-02-26T10:18:17.000Z</time>
      </trkpt>
      <trkpt lat="45.84788" lon="3.2826">
        <ele>313.79998779297</ele>
        <time>2011-02-26T10:18:27.000Z</time>
      </trkpt>
      <trkpt lat="45.84846" lon="3.28313">
        <ele>314</ele>
        <time>2011-02-26T10:18:36.000Z</time>
      </trkpt>
      <trkpt lat="45.84887" lon="3.28336">
        <ele>313.60000610352</ele>
        <time>2011-02-26T10:18:42.000Z</time>
      </trkpt>
      <trkpt lat="45.84937" lon="3.28347">
        <ele>313.79998779297</ele>
        <time>2011-02-26T10:18:49.000Z</time>
      </trkpt>
      <trkpt lat="45.8501" lon="3.28359">
        <ele>314.39999389648</ele>
        <time>2011-02-26T10:18:59.000Z</time>
      </trkpt>
      <trkpt lat="45.85061" lon="3.28379">
        <ele>314</ele>
        <time>2011-02-26T10:19:06.000Z</time>
      </trkpt>
      <trkpt lat="45.85109" lon="3.28412">
        <ele>313.20001220703</ele>
        <time>2011-02-26T10:19:13.000Z</time>
      </trkpt>
      <trkpt lat="45.85152" lon="3.28455">
        <ele>312.39999389648</ele>
        <time>2011-02-26T10:19:20.000Z</time>
      </trkpt>
      <trkpt lat="45.8519" lon="3.28509">
        <ele>312.39999389648</ele>
        <time>2011-02-26T10:19:27.000Z</time>
      </trkpt>
      <trkpt lat="45.85244" lon="3.286">
        <ele>312.79998779297</ele>
        <time>2011-02-26T10:19:38.000Z</time>
      </trkpt>
      <trkpt lat="45.85313" lon="3.28713">
        <ele>312.39999389648</ele>
        <time>2011-02-26T10:19:52.000Z</time>
      </trkpt>
      <trkpt lat="45.85368" lon="3.28801">
        <ele>312.39999389648</ele>
        <time>2011-02-26T10:20:03.000Z</time>
      </trkpt>
      <trkpt lat="45.85436" lon="3.28912">
        <ele>312</ele>
        <time>2011-02-26T10:20:17.000Z</time>
      </trkpt>
      <trkpt lat="45.85485" lon="3.28994">
        <ele>311.79998779297</ele>
        <time>2011-02-26T10:20:27.000Z</time>
      </trkpt>
      <trkpt lat="45.85514" lon="3.29069">
        <ele>310.60000610352</ele>
        <time>2011-02-26T10:20:35.000Z</time>
      </trkpt>
      <trkpt lat="45.85555" lon="3.29187">
        <ele>309.79998779297</ele>
        <time>2011-02-26T10:20:47.000Z</time>
      </trkpt>
      <trkpt lat="45.85591" lon="3.29286">
        <ele>308.60000610352</ele>
        <time>2011-02-26T10:20:57.000Z</time>
      </trkpt>
      <trkpt lat="45.85627" lon="3.29372">
        <ele>308.39999389648</ele>
        <time>2011-02-26T10:21:06.000Z</time>
      </trkpt>
      <trkpt lat="45.85653" lon="3.29447">
        <ele>308.60000610352</ele>
        <time>2011-02-26T10:21:14.000Z</time>
      </trkpt>
      <trkpt lat="45.85685" lon="3.29555">
        <ele>308</ele>
        <time>2011-02-26T10:21:25.000Z</time>
      </trkpt>
      <trkpt lat="45.85722" lon="3.2967">
        <ele>306.60000610352</ele>
        <time>2011-02-26T10:21:37.000Z</time>
      </trkpt>
      <trkpt lat="45.85754" lon="3.29737">
        <ele>306</ele>
        <time>2011-02-26T10:21:44.000Z</time>
      </trkpt>
      <trkpt lat="45.85785" lon="3.29809">
        <ele>305.20001220703</ele>
        <time>2011-02-26T10:21:51.000Z</time>
      </trkpt>
      <trkpt lat="45.85807" lon="3.29879">
        <ele>305.39999389648</ele>
        <time>2011-02-26T10:21:58.000Z</time>
      </trkpt>
      <trkpt lat="45.85834" lon="3.29948">
        <ele>307</ele>
        <time>2011-02-26T10:22:06.000Z</time>
      </trkpt>
      <trkpt lat="45.85867" lon="3.29988">
        <ele>307.79998779297</ele>
        <time>2011-02-26T10:22:12.000Z</time>
      </trkpt>
      <trkpt lat="45.85912" lon="3.30023">
        <ele>307.39999389648</ele>
        <time>2011-02-26T10:22:19.000Z</time>
      </trkpt>
      <trkpt lat="45.85971" lon="3.30068">
        <ele>308</ele>
        <time>2011-02-26T10:22:28.000Z</time>
      </trkpt>
      <trkpt lat="45.86011" lon="3.30094">
        <ele>308</ele>
        <time>2011-02-26T10:22:34.000Z</time>
      </trkpt>
      <trkpt lat="45.86062" lon="3.30104">
        <ele>308.60000610352</ele>
        <time>2011-02-26T10:22:41.000Z</time>
      </trkpt>
      <trkpt lat="45.86122" lon="3.30114">
        <ele>310.20001220703</ele>
        <time>2011-02-26T10:22:50.000Z</time>
      </trkpt>
      <trkpt lat="45.86177" lon="3.30126">
        <ele>312.20001220703</ele>
        <time>2011-02-26T10:22:59.000Z</time>
      </trkpt>
      <trkpt lat="45.86225" lon="3.30148">
        <ele>313.79998779297</ele>
        <time>2011-02-26T10:23:07.000Z</time>
      </trkpt>
      <trkpt lat="45.86276" lon="3.30179">
        <ele>313.39999389648</ele>
        <time>2011-02-26T10:23:15.000Z</time>
      </trkpt>
      <trkpt lat="45.8632" lon="3.30195">
        <ele>313.39999389648</ele>
        <time>2011-02-26T10:23:22.000Z</time>
      </trkpt>
      <trkpt lat="45.86376" lon="3.30223">
        <ele>314</ele>
        <time>2011-02-26T10:23:31.000Z</time>
      </trkpt>
      <trkpt lat="45.864" lon="3.30239">
        <ele>314.20001220703</ele>
        <time>2011-02-26T10:23:35.000Z</time>
      </trkpt>
      <trkpt lat="45.86445" lon="3.30254">
        <ele>314.20001220703</ele>
        <time>2011-02-26T10:23:42.000Z</time>
      </trkpt>
      <trkpt lat="45.86489" lon="3.30266">
        <ele>314.60000610352</ele>
        <time>2011-02-26T10:23:48.000Z</time>
      </trkpt>
      <trkpt lat="45.86558" lon="3.3027">
        <ele>313.60000610352</ele>
        <time>2011-02-26T10:23:57.000Z</time>
      </trkpt>
      <trkpt lat="45.86638" lon="3.30267">
        <ele>314.39999389648</ele>
        <time>2011-02-26T10:24:08.000Z</time>
      </trkpt>
      <trkpt lat="45.86702" lon="3.30272">
        <ele>314.39999389648</ele>
        <time>2011-02-26T10:24:17.000Z</time>
      </trkpt>
      <trkpt lat="45.86781" lon="3.30279">
        <ele>314.60000610352</ele>
        <time>2011-02-26T10:24:28.000Z</time>
      </trkpt>
      <trkpt lat="45.86846" lon="3.30278">
        <ele>314.39999389648</ele>
        <time>2011-02-26T10:24:37.000Z</time>
      </trkpt>
      <trkpt lat="45.8691" lon="3.30267">
        <ele>314.20001220703</ele>
        <time>2011-02-26T10:24:46.000Z</time>
      </trkpt>
      <trkpt lat="45.86979" lon="3.30257">
        <ele>314.20001220703</ele>
        <time>2011-02-26T10:24:55.000Z</time>
      </trkpt>
      <trkpt lat="45.87026" lon="3.30259">
        <ele>313.39999389648</ele>
        <time>2011-02-26T10:25:01.000Z</time>
      </trkpt>
      <trkpt lat="45.87034" lon="3.30261">
        <ele>313.60000610352</ele>
        <time>2011-02-26T10:25:02.000Z</time>
      </trkpt>
      <trkpt lat="45.87062" lon="3.30256">
        <ele>313.60000610352</ele>
        <time>2011-02-26T10:25:06.000Z</time>
      </trkpt>
      <trkpt lat="45.87128" lon="3.30222">
        <ele>313.20001220703</ele>
        <time>2011-02-26T10:25:16.000Z</time>
      </trkpt>
      <trkpt lat="45.87181" lon="3.30205">
        <ele>314</ele>
        <time>2011-02-26T10:25:24.000Z</time>
      </trkpt>
      <trkpt lat="45.87242" lon="3.30191">
        <ele>315</ele>
        <time>2011-02-26T10:25:33.000Z</time>
      </trkpt>
      <trkpt lat="45.87326" lon="3.30167">
        <ele>315</ele>
        <time>2011-02-26T10:25:45.000Z</time>
      </trkpt>
      <trkpt lat="45.87388" lon="3.30147">
        <ele>315.60000610352</ele>
        <time>2011-02-26T10:25:54.000Z</time>
      </trkpt>
      <trkpt lat="45.87453" lon="3.30128">
        <ele>314.60000610352</ele>
        <time>2011-02-26T10:26:03.000Z</time>
      </trkpt>
      <trkpt lat="45.87527" lon="3.30106">
        <ele>315</ele>
        <time>2011-02-26T10:26:13.000Z</time>
      </trkpt>
      <trkpt lat="45.87598" lon="3.3008">
        <ele>314.60000610352</ele>
        <time>2011-02-26T10:26:23.000Z</time>
      </trkpt>
      <trkpt lat="45.87648" lon="3.30051">
        <ele>315.60000610352</ele>
        <time>2011-02-26T10:26:31.000Z</time>
      </trkpt>
      <trkpt lat="45.87698" lon="3.30032">
        <ele>316.39999389648</ele>
        <time>2011-02-26T10:26:39.000Z</time>
      </trkpt>
      <trkpt lat="45.87759" lon="3.30007">
        <ele>317.39999389648</ele>
        <time>2011-02-26T10:26:49.000Z</time>
      </trkpt>
      <trkpt lat="45.8781" lon="3.29979">
        <ele>318.60000610352</ele>
        <time>2011-02-26T10:26:58.000Z</time>
      </trkpt>
      <trkpt lat="45.87849" lon="3.2995">
        <ele>320.20001220703</ele>
        <time>2011-02-26T10:27:06.000Z</time>
      </trkpt>
      <trkpt lat="45.87892" lon="3.29922">
        <ele>322.20001220703</ele>
        <time>2011-02-26T10:27:15.000Z</time>
      </trkpt>
      <trkpt lat="45.87931" lon="3.29907">
        <ele>323.20001220703</ele>
        <time>2011-02-26T10:27:22.000Z</time>
      </trkpt>
      <trkpt lat="45.87983" lon="3.29893">
        <ele>323.60000610352</ele>
        <time>2011-02-26T10:27:30.000Z</time>
      </trkpt>
      <trkpt lat="45.88059" lon="3.29864">
        <ele>323</ele>
        <time>2011-02-26T10:27:41.000Z</time>
      </trkpt>
      <trkpt lat="45.88134" lon="3.29822">
        <ele>323.20001220703</ele>
        <time>2011-02-26T10:27:52.000Z</time>
      </trkpt>
      <trkpt lat="45.88189" lon="3.29784">
        <ele>321.20001220703</ele>
        <time>2011-02-26T10:28:00.000Z</time>
      </trkpt>
      <trkpt lat="45.88262" lon="3.29732">
        <ele>321.60000610352</ele>
        <time>2011-02-26T10:28:11.000Z</time>
      </trkpt>
      <trkpt lat="45.88317" lon="3.29694">
        <ele>322.39999389648</ele>
        <time>2011-02-26T10:28:20.000Z</time>
      </trkpt>
      <trkpt lat="45.88378" lon="3.29656">
        <ele>323</ele>
        <time>2011-02-26T10:28:30.000Z</time>
      </trkpt>
      <trkpt lat="45.88441" lon="3.29607">
        <ele>323.39999389648</ele>
        <time>2011-02-26T10:28:40.000Z</time>
      </trkpt>
      <trkpt lat="45.88487" lon="3.29581">
        <ele>324.20001220703</ele>
        <time>2011-02-26T10:28:47.000Z</time>
      </trkpt>
      <trkpt lat="45.88554" lon="3.29549">
        <ele>322.60000610352</ele>
        <time>2011-02-26T10:28:56.000Z</time>
      </trkpt>
      <trkpt lat="45.88632" lon="3.29511">
        <ele>320.79998779297</ele>
        <time>2011-02-26T10:29:06.000Z</time>
      </trkpt>
      <trkpt lat="45.88699" lon="3.29484">
        <ele>320</ele>
        <time>2011-02-26T10:29:15.000Z</time>
      </trkpt>
      <trkpt lat="45.88729" lon="3.29476">
        <ele>319.20001220703</ele>
        <time>2011-02-26T10:29:19.000Z</time>
      </trkpt>
      <trkpt lat="45.88768" lon="3.29482">
        <ele>318.39999389648</ele>
        <time>2011-02-26T10:29:24.000Z</time>
      </trkpt>
      <trkpt lat="45.88775" lon="3.29486">
        <ele>318.39999389648</ele>
        <time>2011-02-26T10:29:25.000Z</time>
      </trkpt>
      <trkpt lat="45.88839" lon="3.2952">
        <ele>318.39999389648</ele>
        <time>2011-02-26T10:29:34.000Z</time>
      </trkpt>
      <trkpt lat="45.88892" lon="3.2953">
        <ele>317.79998779297</ele>
        <time>2011-02-26T10:29:41.000Z</time>
      </trkpt>
      <trkpt lat="45.88985" lon="3.29541">
        <ele>317.60000610352</ele>
        <time>2011-02-26T10:29:53.000Z</time>
      </trkpt>
      <trkpt lat="45.89074" lon="3.29548">
        <ele>316.60000610352</ele>
        <time>2011-02-26T10:30:04.000Z</time>
      </trkpt>
      <trkpt lat="45.89149" lon="3.29542">
        <ele>315.60000610352</ele>
        <time>2011-02-26T10:30:13.000Z</time>
      </trkpt>
      <trkpt lat="45.89232" lon="3.29524">
        <ele>314.79998779297</ele>
        <time>2011-02-26T10:30:23.000Z</time>
      </trkpt>
      <trkpt lat="45.8929" lon="3.29497">
        <ele>313.60000610352</ele>
        <time>2011-02-26T10:30:30.000Z</time>
      </trkpt>
      <trkpt lat="45.89335" lon="3.29458">
        <ele>312.60000610352</ele>
        <time>2011-02-26T10:30:36.000Z</time>
      </trkpt>
      <trkpt lat="45.89402" lon="3.29402">
        <ele>311.60000610352</ele>
        <time>2011-02-26T10:30:45.000Z</time>
      </trkpt>
      <trkpt lat="45.8949" lon="3.29347">
        <ele>310.39999389648</ele>
        <time>2011-02-26T10:30:56.000Z</time>
      </trkpt>
      <trkpt lat="45.89562" lon="3.29307">
        <ele>309</ele>
        <time>2011-02-26T10:31:05.000Z</time>
      </trkpt>
      <trkpt lat="45.89648" lon="3.29266">
        <ele>306</ele>
        <time>2011-02-26T10:31:16.000Z</time>
      </trkpt>
      <trkpt lat="45.89723" lon="3.29231">
        <ele>305</ele>
        <time>2011-02-26T10:31:25.000Z</time>
      </trkpt>
      <trkpt lat="45.89757" lon="3.29224">
        <ele>304.20001220703</ele>
        <time>2011-02-26T10:31:29.000Z</time>
      </trkpt>
      <trkpt lat="45.89799" lon="3.29231">
        <ele>303.39999389648</ele>
        <time>2011-02-26T10:31:34.000Z</time>
      </trkpt>
      <trkpt lat="45.89868" lon="3.29252">
        <ele>301.79998779297</ele>
        <time>2011-02-26T10:31:42.000Z</time>
      </trkpt>
      <trkpt lat="45.89911" lon="3.29251">
        <ele>300.39999389648</ele>
        <time>2011-02-26T10:31:47.000Z</time>
      </trkpt>
      <trkpt lat="45.89947" lon="3.29249">
        <ele>299.60000610352</ele>
        <time>2011-02-26T10:31:51.000Z</time>
      </trkpt>
      <trkpt lat="45.89971" lon="3.29258">
        <ele>299.20001220703</ele>
        <time>2011-02-26T10:31:55.000Z</time>
      </trkpt>
      <trkpt lat="45.89993" lon="3.29257">
        <ele>299.60000610352</ele>
        <time>2011-02-26T10:31:59.000Z</time>
      </trkpt>
      <trkpt lat="45.89998" lon="3.29256">
        <ele>299.60000610352</ele>
        <time>2011-02-26T10:32:00.000Z</time>
      </trkpt>
      <trkpt lat="45.90015" lon="3.29256">
        <ele>299.60000610352</ele>
        <time>2011-02-26T10:32:03.000Z</time>
      </trkpt>
      <trkpt lat="45.90046" lon="3.29242">
        <ele>299.60000610352</ele>
        <time>2011-02-26T10:32:08.000Z</time>
      </trkpt>
      <trkpt lat="45.90071" lon="3.29209">
        <ele>299.39999389648</ele>
        <time>2011-02-26T10:32:13.000Z</time>
      </trkpt>
      <trkpt lat="45.90095" lon="3.29155">
        <ele>299.39999389648</ele>
        <time>2011-02-26T10:32:19.000Z</time>
      </trkpt>
      <trkpt lat="45.90121" lon="3.29125">
        <ele>299.79998779297</ele>
        <time>2011-02-26T10:32:24.000Z</time>
      </trkpt>
      <trkpt lat="45.90151" lon="3.29096">
        <ele>301.39999389648</ele>
        <time>2011-02-26T10:32:31.000Z</time>
      </trkpt>
      <trkpt lat="45.90162" lon="3.29081">
        <ele>302.60000610352</ele>
        <time>2011-02-26T10:32:35.000Z</time>
      </trkpt>
      <trkpt lat="45.9016" lon="3.29068">
        <ele>304</ele>
        <time>2011-02-26T10:32:39.000Z</time>
      </trkpt>
      <trkpt lat="45.90155" lon="3.2906">
        <ele>304.20001220703</ele>
        <time>2011-02-26T10:32:41.000Z</time>
      </trkpt>
      <trkpt lat="45.90144" lon="3.29048">
        <ele>304.60000610352</ele>
        <time>2011-02-26T10:32:44.000Z</time>
      </trkpt>
      <trkpt lat="45.9011" lon="3.29009">
        <ele>304.60000610352</ele>
        <time>2011-02-26T10:32:52.000Z</time>
      </trkpt>
      <trkpt lat="45.90075" lon="3.28961">
        <ele>305.39999389648</ele>
        <time>2011-02-26T10:33:00.000Z</time>
      </trkpt>
      <trkpt lat="45.90034" lon="3.28891">
        <ele>305.39999389648</ele>
        <time>2011-02-26T10:33:10.000Z</time>
      </trkpt>
      <trkpt lat="45.90015" lon="3.28833">
        <ele>305.60000610352</ele>
        <time>2011-02-26T10:33:17.000Z</time>
      </trkpt>
      <trkpt lat="45.89995" lon="3.28757">
        <ele>305.79998779297</ele>
        <time>2011-02-26T10:33:26.000Z</time>
      </trkpt>
      <trkpt lat="45.8998" lon="3.28689">
        <ele>306.79998779297</ele>
        <time>2011-02-26T10:33:34.000Z</time>
      </trkpt>
      <trkpt lat="45.89963" lon="3.28587">
        <ele>307.39999389648</ele>
        <time>2011-02-26T10:33:46.000Z</time>
      </trkpt>
      <trkpt lat="45.89949" lon="3.28501">
        <ele>308.79998779297</ele>
        <time>2011-02-26T10:33:56.000Z</time>
      </trkpt>
      <trkpt lat="45.89926" lon="3.28368">
        <ele>309.79998779297</ele>
        <time>2011-02-26T10:34:11.000Z</time>
      </trkpt>
      <trkpt lat="45.89909" lon="3.28261">
        <ele>309.79998779297</ele>
        <time>2011-02-26T10:34:23.000Z</time>
      </trkpt>
      <trkpt lat="45.89888" lon="3.28147">
        <ele>310.20001220703</ele>
        <time>2011-02-26T10:34:36.000Z</time>
      </trkpt>
      <trkpt lat="45.89863" lon="3.28031">
        <ele>311.20001220703</ele>
        <time>2011-02-26T10:34:49.000Z</time>
      </trkpt>
      <trkpt lat="45.89836" lon="3.2791">
        <ele>311.60000610352</ele>
        <time>2011-02-26T10:35:02.000Z</time>
      </trkpt>
      <trkpt lat="45.89811" lon="3.27812">
        <ele>311.79998779297</ele>
        <time>2011-02-26T10:35:13.000Z</time>
      </trkpt>
      <trkpt lat="45.8978" lon="3.27719">
        <ele>311.79998779297</ele>
        <time>2011-02-26T10:35:24.000Z</time>
      </trkpt>
      <trkpt lat="45.89739" lon="3.27603">
        <ele>311.60000610352</ele>
        <time>2011-02-26T10:35:38.000Z</time>
      </trkpt>
      <trkpt lat="45.89713" lon="3.27516">
        <ele>311.39999389648</ele>
        <time>2011-02-26T10:35:48.000Z</time>
      </trkpt>
      <trkpt lat="45.89688" lon="3.27404">
        <ele>311.60000610352</ele>
        <time>2011-02-26T10:36:00.000Z</time>
      </trkpt>
      <trkpt lat="45.89675" lon="3.273">
        <ele>311.39999389648</ele>
        <time>2011-02-26T10:36:11.000Z</time>
      </trkpt>
      <trkpt lat="45.89668" lon="3.27191">
        <ele>312.20001220703</ele>
        <time>2011-02-26T10:36:23.000Z</time>
      </trkpt>
      <trkpt lat="45.8966" lon="3.27091">
        <ele>312.39999389648</ele>
        <time>2011-02-26T10:36:34.000Z</time>
      </trkpt>
      <trkpt lat="45.89645" lon="3.27018">
        <ele>312</ele>
        <time>2011-02-26T10:36:42.000Z</time>
      </trkpt>
      <trkpt lat="45.89617" lon="3.26921">
        <ele>312</ele>
        <time>2011-02-26T10:36:53.000Z</time>
      </trkpt>
      <trkpt lat="45.89577" lon="3.26792">
        <ele>311.20001220703</ele>
        <time>2011-02-26T10:37:08.000Z</time>
      </trkpt>
      <trkpt lat="45.89542" lon="3.26677">
        <ele>310.60000610352</ele>
        <time>2011-02-26T10:37:21.000Z</time>
      </trkpt>
      <trkpt lat="45.89505" lon="3.26556">
        <ele>309.60000610352</ele>
        <time>2011-02-26T10:37:35.000Z</time>
      </trkpt>
      <trkpt lat="45.89484" lon="3.2649">
        <ele>310</ele>
        <time>2011-02-26T10:37:43.000Z</time>
      </trkpt>
      <trkpt lat="45.89464" lon="3.26455">
        <ele>310.39999389648</ele>
        <time>2011-02-26T10:37:48.000Z</time>
      </trkpt>
      <trkpt lat="45.89444" lon="3.2645">
        <ele>310.60000610352</ele>
        <time>2011-02-26T10:37:51.000Z</time>
      </trkpt>
      <trkpt lat="45.89438" lon="3.26452">
        <ele>310.60000610352</ele>
        <time>2011-02-26T10:37:52.000Z</time>
      </trkpt>
      <trkpt lat="45.89377" lon="3.2647">
        <ele>309.39999389648</ele>
        <time>2011-02-26T10:38:01.000Z</time>
      </trkpt>
      <trkpt lat="45.89373" lon="3.26471">
        <ele>308.79998779297</ele>
        <time>2011-02-26T10:38:03.000Z</time>
      </trkpt>
      <trkpt lat="45.89373" lon="3.26471">
        <ele>308.39999389648</ele>
        <time>2011-02-26T10:38:04.000Z</time>
      </trkpt>
      <trkpt lat="45.89375" lon="3.26478">
        <ele>306.39999389648</ele>
        <time>2011-02-26T10:40:36.000Z</time>
      </trkpt>
      <trkpt lat="45.8938" lon="3.26478">
        <ele>306.39999389648</ele>
        <time>2011-02-26T10:40:40.000Z</time>
      </trkpt>
      <trkpt lat="45.8938" lon="3.26478">
        <ele>306.39999389648</ele>
        <time>2011-02-26T10:40:41.000Z</time>
      </trkpt>
      <trkpt lat="45.89375" lon="3.26475">
        <ele>306.60000610352</ele>
        <time>2011-02-26T10:41:03.000Z</time>
      </trkpt>
      <trkpt lat="45.89372" lon="3.26475">
        <ele>306.60000610352</ele>
        <time>2011-02-26T10:41:04.000Z</time>
      </trkpt>
      <trkpt lat="45.89345" lon="3.26479">
        <ele>306.79998779297</ele>
        <time>2011-02-26T10:41:10.000Z</time>
      </trkpt>
      <trkpt lat="45.89303" lon="3.26487">
        <ele>307</ele>
        <time>2011-02-26T10:41:17.000Z</time>
      </trkpt>
      <trkpt lat="45.89235" lon="3.26496">
        <ele>306.20001220703</ele>
        <time>2011-02-26T10:41:27.000Z</time>
      </trkpt>
      <trkpt lat="45.89194" lon="3.26487">
        <ele>306.39999389648</ele>
        <time>2011-02-26T10:41:33.000Z</time>
      </trkpt>
      <trkpt lat="45.89161" lon="3.26463">
        <ele>305.20001220703</ele>
        <time>2011-02-26T10:41:38.000Z</time>
      </trkpt>
      <trkpt lat="45.89139" lon="3.26437">
        <ele>304</ele>
        <time>2011-02-26T10:41:42.000Z</time>
      </trkpt>
      <trkpt lat="45.89116" lon="3.26384">
        <ele>303.60000610352</ele>
        <time>2011-02-26T10:41:48.000Z</time>
      </trkpt>
      <trkpt lat="45.89094" lon="3.2632">
        <ele>303.60000610352</ele>
        <time>2011-02-26T10:41:56.000Z</time>
      </trkpt>
      <trkpt lat="45.89078" lon="3.26304">
        <ele>304.60000610352</ele>
        <time>2011-02-26T10:42:00.000Z</time>
      </trkpt>
      <trkpt lat="45.89072" lon="3.26304">
        <ele>304.79998779297</ele>
        <time>2011-02-26T10:42:01.000Z</time>
      </trkpt>
      <trkpt lat="45.89031" lon="3.26309">
        <ele>305.60000610352</ele>
        <time>2011-02-26T10:42:08.000Z</time>
      </trkpt>
      <trkpt lat="45.8901" lon="3.26299">
        <ele>305.60000610352</ele>
        <time>2011-02-26T10:42:12.000Z</time>
      </trkpt>
      <trkpt lat="45.89008" lon="3.26291">
        <ele>305.60000610352</ele>
        <time>2011-02-26T10:42:13.000Z</time>
      </trkpt>
      <trkpt lat="45.88994" lon="3.26185">
        <ele>305.60000610352</ele>
        <time>2011-02-26T10:42:25.000Z</time>
      </trkpt>
      <trkpt lat="45.88986" lon="3.26109">
        <ele>306</ele>
        <time>2011-02-26T10:42:34.000Z</time>
      </trkpt>
      <trkpt lat="45.88983" lon="3.26087">
        <ele>306</ele>
        <time>2011-02-26T10:42:37.000Z</time>
      </trkpt>
      <trkpt lat="45.8897" lon="3.26071">
        <ele>306.39999389648</ele>
        <time>2011-02-26T10:42:41.000Z</time>
      </trkpt>
      <trkpt lat="45.88964" lon="3.2607">
        <ele>306.60000610352</ele>
        <time>2011-02-26T10:42:42.000Z</time>
      </trkpt>
      <trkpt lat="45.88917" lon="3.26076">
        <ele>306</ele>
        <time>2011-02-26T10:42:49.000Z</time>
      </trkpt>
      <trkpt lat="45.88865" lon="3.26072">
        <ele>304.39999389648</ele>
        <time>2011-02-26T10:42:56.000Z</time>
      </trkpt>
      <trkpt lat="45.88805" lon="3.26065">
        <ele>304.60000610352</ele>
        <time>2011-02-26T10:43:05.000Z</time>
      </trkpt>
      <trkpt lat="45.88742" lon="3.26059">
        <ele>305.60000610352</ele>
        <time>2011-02-26T10:43:15.000Z</time>
      </trkpt>
      <trkpt lat="45.88691" lon="3.26067">
        <ele>305.79998779297</ele>
        <time>2011-02-26T10:43:23.000Z</time>
      </trkpt>
      <trkpt lat="45.88642" lon="3.2609">
        <ele>306.20001220703</ele>
        <time>2011-02-26T10:43:31.000Z</time>
      </trkpt>
      <trkpt lat="45.88585" lon="3.26127">
        <ele>307.79998779297</ele>
        <time>2011-02-26T10:43:41.000Z</time>
      </trkpt>
      <trkpt lat="45.88541" lon="3.26156">
        <ele>308.20001220703</ele>
        <time>2011-02-26T10:43:49.000Z</time>
      </trkpt>
      <trkpt lat="45.88503" lon="3.26181">
        <ele>308.79998779297</ele>
        <time>2011-02-26T10:43:56.000Z</time>
      </trkpt>
      <trkpt lat="45.88475" lon="3.26182">
        <ele>309.60000610352</ele>
        <time>2011-02-26T10:44:01.000Z</time>
      </trkpt>
      <trkpt lat="45.88457" lon="3.26161">
        <ele>310</ele>
        <time>2011-02-26T10:44:05.000Z</time>
      </trkpt>
      <trkpt lat="45.88455" lon="3.26153">
        <ele>310</ele>
        <time>2011-02-26T10:44:06.000Z</time>
      </trkpt>
      <trkpt lat="45.88429" lon="3.26073">
        <ele>311</ele>
        <time>2011-02-26T10:44:16.000Z</time>
      </trkpt>
      <trkpt lat="45.884" lon="3.25982">
        <ele>310.60000610352</ele>
        <time>2011-02-26T10:44:27.000Z</time>
      </trkpt>
      <trkpt lat="45.88371" lon="3.2589">
        <ele>311.39999389648</ele>
        <time>2011-02-26T10:44:38.000Z</time>
      </trkpt>
      <trkpt lat="45.8834" lon="3.2581">
        <ele>311.39999389648</ele>
        <time>2011-02-26T10:44:48.000Z</time>
      </trkpt>
      <trkpt lat="45.88038" lon="3.25142">
        <ele>321.60000610352</ele>
        <time>2011-02-26T10:46:49.000Z</time>
      </trkpt>
      <trkpt lat="45.88038" lon="3.25142">
        <ele>321</ele>
        <time>2011-02-26T10:46:50.000Z</time>
      </trkpt>
      <trkpt lat="45.88033" lon="3.25117">
        <ele>318.39999389648</ele>
        <time>2011-02-26T10:47:00.000Z</time>
      </trkpt>
      <trkpt lat="45.88029" lon="3.25092">
        <ele>316.39999389648</ele>
        <time>2011-02-26T10:47:06.000Z</time>
      </trkpt>
      <trkpt lat="45.88023" lon="3.25057">
        <ele>314.79998779297</ele>
        <time>2011-02-26T10:47:12.000Z</time>
      </trkpt>
      <trkpt lat="45.88011" lon="3.24993">
        <ele>314</ele>
        <time>2011-02-26T10:47:21.000Z</time>
      </trkpt>
      <trkpt lat="45.87997" lon="3.24931">
        <ele>312.79998779297</ele>
        <time>2011-02-26T10:47:29.000Z</time>
      </trkpt>
      <trkpt lat="45.8797" lon="3.24848">
        <ele>310.60000610352</ele>
        <time>2011-02-26T10:47:39.000Z</time>
      </trkpt>
      <trkpt lat="45.87936" lon="3.24749">
        <ele>308.79998779297</ele>
        <time>2011-02-26T10:47:51.000Z</time>
      </trkpt>
      <trkpt lat="45.87905" lon="3.24658">
        <ele>309</ele>
        <time>2011-02-26T10:48:03.000Z</time>
      </trkpt>
      <trkpt lat="45.87875" lon="3.24567">
        <ele>308.79998779297</ele>
        <time>2011-02-26T10:48:15.000Z</time>
      </trkpt>
      <trkpt lat="45.87831" lon="3.24438">
        <ele>309.79998779297</ele>
        <time>2011-02-26T10:48:32.000Z</time>
      </trkpt>
      <trkpt lat="45.87803" lon="3.24355">
        <ele>309.39999389648</ele>
        <time>2011-02-26T10:48:43.000Z</time>
      </trkpt>
      <trkpt lat="45.87798" lon="3.24339">
        <ele>308.20001220703</ele>
        <time>2011-02-26T10:48:45.000Z</time>
      </trkpt>
      <trkpt lat="45.87765" lon="3.2424">
        <ele>308.79998779297</ele>
        <time>2011-02-26T10:48:57.000Z</time>
      </trkpt>
      <trkpt lat="45.87728" lon="3.24131">
        <ele>309.39999389648</ele>
        <time>2011-02-26T10:49:10.000Z</time>
      </trkpt>
      <trkpt lat="45.877" lon="3.24049">
        <ele>308.39999389648</ele>
        <time>2011-02-26T10:49:20.000Z</time>
      </trkpt>
      <trkpt lat="45.87666" lon="3.23952">
        <ele>308.39999389648</ele>
        <time>2011-02-26T10:49:32.000Z</time>
      </trkpt>
      <trkpt lat="45.87627" lon="3.23857">
        <ele>309.20001220703</ele>
        <time>2011-02-26T10:49:44.000Z</time>
      </trkpt>
      <trkpt lat="45.87585" lon="3.23764">
        <ele>310.20001220703</ele>
        <time>2011-02-26T10:49:56.000Z</time>
      </trkpt>
      <trkpt lat="45.87545" lon="3.23659">
        <ele>310.39999389648</ele>
        <time>2011-02-26T10:50:09.000Z</time>
      </trkpt>
      <trkpt lat="45.87511" lon="3.23568">
        <ele>310.79998779297</ele>
        <time>2011-02-26T10:50:20.000Z</time>
      </trkpt>
      <trkpt lat="45.87472" lon="3.23459">
        <ele>310.20001220703</ele>
        <time>2011-02-26T10:50:33.000Z</time>
      </trkpt>
      <trkpt lat="45.87438" lon="3.2337">
        <ele>309.39999389648</ele>
        <time>2011-02-26T10:50:44.000Z</time>
      </trkpt>
      <trkpt lat="45.87406" lon="3.23302">
        <ele>309.20001220703</ele>
        <time>2011-02-26T10:50:53.000Z</time>
      </trkpt>
      <trkpt lat="45.87363" lon="3.23224">
        <ele>309</ele>
        <time>2011-02-26T10:51:04.000Z</time>
      </trkpt>
      <trkpt lat="45.87308" lon="3.23129">
        <ele>309.60000610352</ele>
        <time>2011-02-26T10:51:18.000Z</time>
      </trkpt>
      <trkpt lat="45.87261" lon="3.23044">
        <ele>309.60000610352</ele>
        <time>2011-02-26T10:51:30.000Z</time>
      </trkpt>
      <trkpt lat="45.87234" lon="3.22983">
        <ele>309.39999389648</ele>
        <time>2011-02-26T10:51:38.000Z</time>
      </trkpt>
      <trkpt lat="45.87221" lon="3.22943">
        <ele>309.79998779297</ele>
        <time>2011-02-26T10:51:43.000Z</time>
      </trkpt>
      <trkpt lat="45.87204" lon="3.22925">
        <ele>309.79998779297</ele>
        <time>2011-02-26T10:51:47.000Z</time>
      </trkpt>
      <trkpt lat="45.87183" lon="3.22932">
        <ele>309.60000610352</ele>
        <time>2011-02-26T10:51:51.000Z</time>
      </trkpt>
      <trkpt lat="45.87173" lon="3.22926">
        <ele>309.60000610352</ele>
        <time>2011-02-26T10:51:53.000Z</time>
      </trkpt>
      <trkpt lat="45.87139" lon="3.22876">
        <ele>309.79998779297</ele>
        <time>2011-02-26T10:52:01.000Z</time>
      </trkpt>
      <trkpt lat="45.87109" lon="3.22814">
        <ele>310.20001220703</ele>
        <time>2011-02-26T10:52:10.000Z</time>
      </trkpt>
      <trkpt lat="45.87076" lon="3.22744">
        <ele>310.20001220703</ele>
        <time>2011-02-26T10:52:20.000Z</time>
      </trkpt>
      <trkpt lat="45.87043" lon="3.22688">
        <ele>310.60000610352</ele>
        <time>2011-02-26T10:52:29.000Z</time>
      </trkpt>
      <trkpt lat="45.87007" lon="3.22636">
        <ele>310.79998779297</ele>
        <time>2011-02-26T10:52:38.000Z</time>
      </trkpt>
      <trkpt lat="45.86969" lon="3.22586">
        <ele>310.60000610352</ele>
        <time>2011-02-26T10:52:47.000Z</time>
      </trkpt>
      <trkpt lat="45.86924" lon="3.22529">
        <ele>310</ele>
        <time>2011-02-26T10:52:57.000Z</time>
      </trkpt>
      <trkpt lat="45.86884" lon="3.2248">
        <ele>310.20001220703</ele>
        <time>2011-02-26T10:53:06.000Z</time>
      </trkpt>
      <trkpt lat="45.86874" lon="3.22459">
        <ele>309.60000610352</ele>
        <time>2011-02-26T10:53:10.000Z</time>
      </trkpt>
      <trkpt lat="45.86861" lon="3.22451">
        <ele>310</ele>
        <time>2011-02-26T10:53:13.000Z</time>
      </trkpt>
      <trkpt lat="45.86853" lon="3.22441">
        <ele>309.79998779297</ele>
        <time>2011-02-26T10:53:15.000Z</time>
      </trkpt>
      <trkpt lat="45.86806" lon="3.22377">
        <ele>310.60000610352</ele>
        <time>2011-02-26T10:53:26.000Z</time>
      </trkpt>
      <trkpt lat="45.86781" lon="3.22332">
        <ele>310.79998779297</ele>
        <time>2011-02-26T10:53:33.000Z</time>
      </trkpt>
      <trkpt lat="45.86767" lon="3.22308">
        <ele>310.79998779297</ele>
        <time>2011-02-26T10:53:37.000Z</time>
      </trkpt>
      <trkpt lat="45.86754" lon="3.22275">
        <ele>310</ele>
        <time>2011-02-26T10:53:42.000Z</time>
      </trkpt>
      <trkpt lat="45.8675" lon="3.2227">
        <ele>310</ele>
        <time>2011-02-26T10:53:43.000Z</time>
      </trkpt>
      <trkpt lat="45.8674" lon="3.22261">
        <ele>309.79998779297</ele>
        <time>2011-02-26T10:53:45.000Z</time>
      </trkpt>
      <trkpt lat="45.86706" lon="3.22208">
        <ele>310.60000610352</ele>
        <time>2011-02-26T10:53:54.000Z</time>
      </trkpt>
      <trkpt lat="45.86657" lon="3.22127">
        <ele>310.79998779297</ele>
        <time>2011-02-26T10:54:07.000Z</time>
      </trkpt>
      <trkpt lat="45.86603" lon="3.22061">
        <ele>310.60000610352</ele>
        <time>2011-02-26T10:54:19.000Z</time>
      </trkpt>
      <trkpt lat="45.86548" lon="3.21995">
        <ele>310.39999389648</ele>
        <time>2011-02-26T10:54:31.000Z</time>
      </trkpt>
      <trkpt lat="45.86525" lon="3.21969">
        <ele>311.20001220703</ele>
        <time>2011-02-26T10:54:36.000Z</time>
      </trkpt>
      <trkpt lat="45.8651" lon="3.21938">
        <ele>311.60000610352</ele>
        <time>2011-02-26T10:54:41.000Z</time>
      </trkpt>
      <trkpt lat="45.86499" lon="3.21931">
        <ele>311.20001220703</ele>
        <time>2011-02-26T10:54:43.000Z</time>
      </trkpt>
      <trkpt lat="45.86482" lon="3.21921">
        <ele>311.20001220703</ele>
        <time>2011-02-26T10:54:46.000Z</time>
      </trkpt>
      <trkpt lat="45.86428" lon="3.2187">
        <ele>311.39999389648</ele>
        <time>2011-02-26T10:54:56.000Z</time>
      </trkpt>
      <trkpt lat="45.86423" lon="3.21865">
        <ele>311.60000610352</ele>
        <time>2011-02-26T10:54:57.000Z</time>
      </trkpt>
      <trkpt lat="45.86381" lon="3.21824">
        <ele>310.79998779297</ele>
        <time>2011-02-26T10:55:05.000Z</time>
      </trkpt>
      <trkpt lat="45.86346" lon="3.21808">
        <ele>311.20001220703</ele>
        <time>2011-02-26T10:55:11.000Z</time>
      </trkpt>
      <trkpt lat="45.86302" lon="3.21796">
        <ele>311.20001220703</ele>
        <time>2011-02-26T10:55:18.000Z</time>
      </trkpt>
      <trkpt lat="45.8626" lon="3.21794">
        <ele>311.60000610352</ele>
        <time>2011-02-26T10:55:25.000Z</time>
      </trkpt>
      <trkpt lat="45.86188" lon="3.21805">
        <ele>312</ele>
        <time>2011-02-26T10:55:37.000Z</time>
      </trkpt>
      <trkpt lat="45.86118" lon="3.21816">
        <ele>312.20001220703</ele>
        <time>2011-02-26T10:55:49.000Z</time>
      </trkpt>
      <trkpt lat="45.86057" lon="3.21824">
        <ele>312.60000610352</ele>
        <time>2011-02-26T10:55:59.000Z</time>
      </trkpt>
      <trkpt lat="45.85992" lon="3.2183">
        <ele>313</ele>
        <time>2011-02-26T10:56:10.000Z</time>
      </trkpt>
      <trkpt lat="45.85917" lon="3.21835">
        <ele>314.20001220703</ele>
        <time>2011-02-26T10:56:23.000Z</time>
      </trkpt>
      <trkpt lat="45.85859" lon="3.21839">
        <ele>314.79998779297</ele>
        <time>2011-02-26T10:56:33.000Z</time>
      </trkpt>
      <trkpt lat="45.85782" lon="3.21841">
        <ele>315.20001220703</ele>
        <time>2011-02-26T10:56:46.000Z</time>
      </trkpt>
      <trkpt lat="45.85729" lon="3.21838">
        <ele>316</ele>
        <time>2011-02-26T10:56:55.000Z</time>
      </trkpt>
      <trkpt lat="45.85672" lon="3.21829">
        <ele>317</ele>
        <time>2011-02-26T10:57:05.000Z</time>
      </trkpt>
      <trkpt lat="45.8562" lon="3.21818">
        <ele>317</ele>
        <time>2011-02-26T10:57:14.000Z</time>
      </trkpt>
      <trkpt lat="45.85553" lon="3.21803">
        <ele>317.60000610352</ele>
        <time>2011-02-26T10:57:25.000Z</time>
      </trkpt>
      <trkpt lat="45.8549" lon="3.21786">
        <ele>317.39999389648</ele>
        <time>2011-02-26T10:57:35.000Z</time>
      </trkpt>
      <trkpt lat="45.85453" lon="3.21774">
        <ele>317.60000610352</ele>
        <time>2011-02-26T10:57:41.000Z</time>
      </trkpt>
      <trkpt lat="45.85389" lon="3.21765">
        <ele>316.79998779297</ele>
        <time>2011-02-26T10:57:51.000Z</time>
      </trkpt>
      <trkpt lat="45.85309" lon="3.21769">
        <ele>317.60000610352</ele>
        <time>2011-02-26T10:58:03.000Z</time>
      </trkpt>
      <trkpt lat="45.8525" lon="3.21773">
        <ele>317.39999389648</ele>
        <time>2011-02-26T10:58:13.000Z</time>
      </trkpt>
      <trkpt lat="45.85182" lon="3.21778">
        <ele>316.20001220703</ele>
        <time>2011-02-26T10:58:25.000Z</time>
      </trkpt>
      <trkpt lat="45.85104" lon="3.21783">
        <ele>317.20001220703</ele>
        <time>2011-02-26T10:58:39.000Z</time>
      </trkpt>
      <trkpt lat="45.85024" lon="3.21785">
        <ele>317.60000610352</ele>
        <time>2011-02-26T10:58:53.000Z</time>
      </trkpt>
      <trkpt lat="45.84979" lon="3.21771">
        <ele>318.60000610352</ele>
        <time>2011-02-26T10:59:01.000Z</time>
      </trkpt>
      <trkpt lat="45.84919" lon="3.21746">
        <ele>318.60000610352</ele>
        <time>2011-02-26T10:59:12.000Z</time>
      </trkpt>
      <trkpt lat="45.84844" lon="3.21717">
        <ele>318.79998779297</ele>
        <time>2011-02-26T10:59:25.000Z</time>
      </trkpt>
      <trkpt lat="45.84784" lon="3.21703">
        <ele>318.79998779297</ele>
        <time>2011-02-26T10:59:35.000Z</time>
      </trkpt>
      <trkpt lat="45.84718" lon="3.21691">
        <ele>318.39999389648</ele>
        <time>2011-02-26T10:59:46.000Z</time>
      </trkpt>
      <trkpt lat="45.84663" lon="3.21676">
        <ele>317.39999389648</ele>
        <time>2011-02-26T10:59:55.000Z</time>
      </trkpt>
      <trkpt lat="45.84587" lon="3.21651">
        <ele>316.20001220703</ele>
        <time>2011-02-26T11:00:07.000Z</time>
      </trkpt>
      <trkpt lat="45.84515" lon="3.21626">
        <ele>315.60000610352</ele>
        <time>2011-02-26T11:00:18.000Z</time>
      </trkpt>
      <trkpt lat="45.84456" lon="3.21593">
        <ele>315.60000610352</ele>
        <time>2011-02-26T11:00:28.000Z</time>
      </trkpt>
      <trkpt lat="45.84383" lon="3.21549">
        <ele>315.20001220703</ele>
        <time>2011-02-26T11:00:40.000Z</time>
      </trkpt>
      <trkpt lat="45.84331" lon="3.21516">
        <ele>314.79998779297</ele>
        <time>2011-02-26T11:00:49.000Z</time>
      </trkpt>
      <trkpt lat="45.84273" lon="3.21487">
        <ele>314.79998779297</ele>
        <time>2011-02-26T11:00:59.000Z</time>
      </trkpt>
      <trkpt lat="45.84217" lon="3.21472">
        <ele>314.39999389648</ele>
        <time>2011-02-26T11:01:08.000Z</time>
      </trkpt>
      <trkpt lat="45.84197" lon="3.21454">
        <ele>314.79998779297</ele>
        <time>2011-02-26T11:01:12.000Z</time>
      </trkpt>
      <trkpt lat="45.84192" lon="3.21437">
        <ele>315</ele>
        <time>2011-02-26T11:01:14.000Z</time>
      </trkpt>
      <trkpt lat="45.84178" lon="3.2135">
        <ele>315</ele>
        <time>2011-02-26T11:01:23.000Z</time>
      </trkpt>
      <trkpt lat="45.8416" lon="3.21231">
        <ele>314.39999389648</ele>
        <time>2011-02-26T11:01:35.000Z</time>
      </trkpt>
      <trkpt lat="45.84158" lon="3.21211">
        <ele>314.39999389648</ele>
        <time>2011-02-26T11:01:37.000Z</time>
      </trkpt>
      <trkpt lat="45.84163" lon="3.21174">
        <ele>314.20001220703</ele>
        <time>2011-02-26T11:01:41.000Z</time>
      </trkpt>
      <trkpt lat="45.84165" lon="3.21135">
        <ele>314</ele>
        <time>2011-02-26T11:01:45.000Z</time>
      </trkpt>
      <trkpt lat="45.84166" lon="3.21125">
        <ele>314</ele>
        <time>2011-02-26T11:01:46.000Z</time>
      </trkpt>
      <trkpt lat="45.8418" lon="3.21061">
        <ele>314</ele>
        <time>2011-02-26T11:01:53.000Z</time>
      </trkpt>
      <trkpt lat="45.84208" lon="3.20956">
        <ele>314</ele>
        <time>2011-02-26T11:02:04.000Z</time>
      </trkpt>
      <trkpt lat="45.84232" lon="3.20864">
        <ele>314.20001220703</ele>
        <time>2011-02-26T11:02:14.000Z</time>
      </trkpt>
      <trkpt lat="45.84255" lon="3.20804">
        <ele>314.60000610352</ele>
        <time>2011-02-26T11:02:21.000Z</time>
      </trkpt>
      <trkpt lat="45.84293" lon="3.20736">
        <ele>315</ele>
        <time>2011-02-26T11:02:30.000Z</time>
      </trkpt>
      <trkpt lat="45.84338" lon="3.20654">
        <ele>314.79998779297</ele>
        <time>2011-02-26T11:02:41.000Z</time>
      </trkpt>
      <trkpt lat="45.84365" lon="3.20588">
        <ele>315</ele>
        <time>2011-02-26T11:02:49.000Z</time>
      </trkpt>
      <trkpt lat="45.84384" lon="3.20512">
        <ele>315.20001220703</ele>
        <time>2011-02-26T11:02:57.000Z</time>
      </trkpt>
      <trkpt lat="45.84407" lon="3.20413">
        <ele>314.79998779297</ele>
        <time>2011-02-26T11:03:07.000Z</time>
      </trkpt>
      <trkpt lat="45.84434" lon="3.20299">
        <ele>315</ele>
        <time>2011-02-26T11:03:19.000Z</time>
      </trkpt>
      <trkpt lat="45.84454" lon="3.20213">
        <ele>315.39999389648</ele>
        <time>2011-02-26T11:03:28.000Z</time>
      </trkpt>
      <trkpt lat="45.84484" lon="3.20131">
        <ele>314.60000610352</ele>
        <time>2011-02-26T11:03:37.000Z</time>
      </trkpt>
      <trkpt lat="45.84518" lon="3.20051">
        <ele>314</ele>
        <time>2011-02-26T11:03:46.000Z</time>
      </trkpt>
      <trkpt lat="45.84532" lon="3.19995">
        <ele>314</ele>
        <time>2011-02-26T11:03:52.000Z</time>
      </trkpt>
      <trkpt lat="45.84549" lon="3.19888">
        <ele>315</ele>
        <time>2011-02-26T11:04:03.000Z</time>
      </trkpt>
      <trkpt lat="45.84564" lon="3.19798">
        <ele>314.79998779297</ele>
        <time>2011-02-26T11:04:12.000Z</time>
      </trkpt>
      <trkpt lat="45.84582" lon="3.19678">
        <ele>313.60000610352</ele>
        <time>2011-02-26T11:04:24.000Z</time>
      </trkpt>
      <trkpt lat="45.84592" lon="3.1959">
        <ele>314.39999389648</ele>
        <time>2011-02-26T11:04:33.000Z</time>
      </trkpt>
      <trkpt lat="45.8459" lon="3.195">
        <ele>314</ele>
        <time>2011-02-26T11:04:42.000Z</time>
      </trkpt>
      <trkpt lat="45.84588" lon="3.19386">
        <ele>314</ele>
        <time>2011-02-26T11:04:54.000Z</time>
      </trkpt>
      <trkpt lat="45.84586" lon="3.193">
        <ele>314.20001220703</ele>
        <time>2011-02-26T11:05:03.000Z</time>
      </trkpt>
      <trkpt lat="45.84587" lon="3.19205">
        <ele>314.39999389648</ele>
        <time>2011-02-26T11:05:13.000Z</time>
      </trkpt>
      <trkpt lat="45.84599" lon="3.19119">
        <ele>314.20001220703</ele>
        <time>2011-02-26T11:05:22.000Z</time>
      </trkpt>
      <trkpt lat="45.84616" lon="3.19012">
        <ele>314.79998779297</ele>
        <time>2011-02-26T11:05:33.000Z</time>
      </trkpt>
      <trkpt lat="45.84637" lon="3.18893">
        <ele>314.79998779297</ele>
        <time>2011-02-26T11:05:45.000Z</time>
      </trkpt>
      <trkpt lat="45.8466" lon="3.18829">
        <ele>314.79998779297</ele>
        <time>2011-02-26T11:05:52.000Z</time>
      </trkpt>
      <trkpt lat="45.84702" lon="3.18733">
        <ele>315.39999389648</ele>
        <time>2011-02-26T11:06:03.000Z</time>
      </trkpt>
      <trkpt lat="45.84742" lon="3.18634">
        <ele>315.20001220703</ele>
        <time>2011-02-26T11:06:14.000Z</time>
      </trkpt>
      <trkpt lat="45.84759" lon="3.18565">
        <ele>315.20001220703</ele>
        <time>2011-02-26T11:06:21.000Z</time>
      </trkpt>
      <trkpt lat="45.8476" lon="3.18514">
        <ele>315.79998779297</ele>
        <time>2011-02-26T11:06:26.000Z</time>
      </trkpt>
      <trkpt lat="45.8476" lon="3.18493">
        <ele>316</ele>
        <time>2011-02-26T11:06:28.000Z</time>
      </trkpt>
      <trkpt lat="45.84773" lon="3.18446">
        <ele>315.79998779297</ele>
        <time>2011-02-26T11:06:33.000Z</time>
      </trkpt>
      <trkpt lat="45.84778" lon="3.18438">
        <ele>315.79998779297</ele>
        <time>2011-02-26T11:06:34.000Z</time>
      </trkpt>
      <trkpt lat="45.84817" lon="3.18382">
        <ele>315.60000610352</ele>
        <time>2011-02-26T11:06:41.000Z</time>
      </trkpt>
      <trkpt lat="45.84861" lon="3.1832">
        <ele>315.20001220703</ele>
        <time>2011-02-26T11:06:49.000Z</time>
      </trkpt>
      <trkpt lat="45.84902" lon="3.18291">
        <ele>315.60000610352</ele>
        <time>2011-02-26T11:06:55.000Z</time>
      </trkpt>
      <trkpt lat="45.84915" lon="3.18282">
        <ele>316</ele>
        <time>2011-02-26T11:06:57.000Z</time>
      </trkpt>
      <trkpt lat="45.84937" lon="3.18252">
        <ele>315.60000610352</ele>
        <time>2011-02-26T11:07:01.000Z</time>
      </trkpt>
      <trkpt lat="45.84937" lon="3.18219">
        <ele>315.60000610352</ele>
        <time>2011-02-26T11:07:04.000Z</time>
      </trkpt>
      <trkpt lat="45.8493" lon="3.18176">
        <ele>315.39999389648</ele>
        <time>2011-02-26T11:07:08.000Z</time>
      </trkpt>
      <trkpt lat="45.84933" lon="3.18124">
        <ele>315.20001220703</ele>
        <time>2011-02-26T11:07:13.000Z</time>
      </trkpt>
      <trkpt lat="45.84945" lon="3.18099">
        <ele>315.39999389648</ele>
        <time>2011-02-26T11:07:16.000Z</time>
      </trkpt>
      <trkpt lat="45.84966" lon="3.1809">
        <ele>315.60000610352</ele>
        <time>2011-02-26T11:07:19.000Z</time>
      </trkpt>
      <trkpt lat="45.84973" lon="3.1809">
        <ele>315.60000610352</ele>
        <time>2011-02-26T11:07:20.000Z</time>
      </trkpt>
      <trkpt lat="45.85038" lon="3.18101">
        <ele>315.20001220703</ele>
        <time>2011-02-26T11:07:29.000Z</time>
      </trkpt>
      <trkpt lat="45.85098" lon="3.18103">
        <ele>315.20001220703</ele>
        <time>2011-02-26T11:07:37.000Z</time>
      </trkpt>
      <trkpt lat="45.85125" lon="3.18087">
        <ele>315.20001220703</ele>
        <time>2011-02-26T11:07:41.000Z</time>
      </trkpt>
      <trkpt lat="45.8513" lon="3.1808">
        <ele>315.20001220703</ele>
        <time>2011-02-26T11:07:42.000Z</time>
      </trkpt>
      <trkpt lat="45.85142" lon="3.18059">
        <ele>315</ele>
        <time>2011-02-26T11:07:45.000Z</time>
      </trkpt>
      <trkpt lat="45.85146" lon="3.18037">
        <ele>314.60000610352</ele>
        <time>2011-02-26T11:07:48.000Z</time>
      </trkpt>
      <trkpt lat="45.85143" lon="3.18029">
        <ele>314.60000610352</ele>
        <time>2011-02-26T11:07:49.000Z</time>
      </trkpt>
      <trkpt lat="45.85118" lon="3.17974">
        <ele>314.20001220703</ele>
        <time>2011-02-26T11:07:56.000Z</time>
      </trkpt>
      <trkpt lat="45.85106" lon="3.17951">
        <ele>314.39999389648</ele>
        <time>2011-02-26T11:07:59.000Z</time>
      </trkpt>
      <trkpt lat="45.85073" lon="3.17922">
        <ele>315.20001220703</ele>
        <time>2011-02-26T11:08:05.000Z</time>
      </trkpt>
      <trkpt lat="45.85028" lon="3.17906">
        <ele>316</ele>
        <time>2011-02-26T11:08:12.000Z</time>
      </trkpt>
      <trkpt lat="45.84951" lon="3.17884">
        <ele>315</ele>
        <time>2011-02-26T11:08:24.000Z</time>
      </trkpt>
      <trkpt lat="45.84938" lon="3.1788">
        <ele>315.39999389648</ele>
        <time>2011-02-26T11:08:26.000Z</time>
      </trkpt>
      <trkpt lat="45.8492" lon="3.17861">
        <ele>315.79998779297</ele>
        <time>2011-02-26T11:08:30.000Z</time>
      </trkpt>
      <trkpt lat="45.84918" lon="3.17845">
        <ele>315.79998779297</ele>
        <time>2011-02-26T11:08:32.000Z</time>
      </trkpt>
      <trkpt lat="45.84913" lon="3.17771">
        <ele>315.39999389648</ele>
        <time>2011-02-26T11:08:40.000Z</time>
      </trkpt>
      <trkpt lat="45.84903" lon="3.17668">
        <ele>315.20001220703</ele>
        <time>2011-02-26T11:08:51.000Z</time>
      </trkpt>
      <trkpt lat="45.84898" lon="3.17582">
        <ele>315</ele>
        <time>2011-02-26T11:09:00.000Z</time>
      </trkpt>
      <trkpt lat="45.84894" lon="3.17467">
        <ele>315</ele>
        <time>2011-02-26T11:09:12.000Z</time>
      </trkpt>
      <trkpt lat="45.8489" lon="3.17363">
        <ele>315.20001220703</ele>
        <time>2011-02-26T11:09:23.000Z</time>
      </trkpt>
      <trkpt lat="45.84888" lon="3.17293">
        <ele>315.20001220703</ele>
        <time>2011-02-26T11:09:31.000Z</time>
      </trkpt>
      <trkpt lat="45.84887" lon="3.17268">
        <ele>315.39999389648</ele>
        <time>2011-02-26T11:09:35.000Z</time>
      </trkpt>
      <trkpt lat="45.84898" lon="3.17262">
        <ele>315</ele>
        <time>2011-02-26T11:09:40.000Z</time>
      </trkpt>
      <trkpt lat="45.8491" lon="3.17264">
        <ele>314.79998779297</ele>
        <time>2011-02-26T11:09:45.000Z</time>
      </trkpt>
      <trkpt lat="45.84911" lon="3.17264">
        <ele>314.60000610352</ele>
        <time>2011-02-26T11:09:47.000Z</time>
      </trkpt>
    </trkseg>
  </trk>
</gpx>